GFSWCAN_700_spd_000.txt.gz
Wind_Speed
49 44 43 41 37 35 34 33 32 30 30 28 27 26 24 22 21 20 19 18 18 17 16 15 15 14 15 15 15 17 19 22 22 19 16 18 16 15 17 21 21 21 16 22 20 13 15 18 16 28 45 56 51 45
46 49 44 39 35 34 35 34 33 31 30 29 28 27 26 24 22 22 22 21 21 20 18 16 16 15 15 18 18 20 23 24 16 18 22 21 24 30 33 32 33 28 28 31 30 35 40 44 43 40 40 42 44 45
47 50 47 40 36 36 34 34 34 33 32 30 28 28 26 26 25 24 24 24 25 24 25 24 22 22 23 23 22 26 27 26 27 27 30 33 37 40 37 27 23 32 34 39 43 46 43 38 35 34 38 41 45 47
30 41 49 46 42 40 37 35 35 35 35 33 32 31 29 28 28 25 26 25 23 30 32 27 22 21 23 29 28 24 27 31 32 31 31 34 33 31 35 40 44 43 35 43 44 37 37 36 37 41 43 45 48 50
24 36 41 47 44 42 40 39 36 39 35 34 32 30 30 30 27 26 28 29 27 26 27 29 30 32 32 31 35 39 35 28 30 40 40 39 42 39 47 46 42 42 42 37 46 36 42 44 43 44 45 44 45 37
18 23 32 41 47 43 38 32 35 33 32 33 33 31 31 30 30 29 31 30 28 28 34 42 44 47 48 35 29 29 31 34 31 33 38 41 38 35 42 39 44 44 42 40 39 41 37 38 41 44 50 41 37 27
16 12 10 9 9 18 37 36 35 33 31 30 28 33 35 32 31 32 34 33 30 32 39 47 43 23 14 17 16 17 22 23 25 29 36 37 39 41 47 50 46 42 39 36 33 34 39 40 41 36 27 23 28 36
16 16 13 12 15 14 13 12 16 24 23 25 28 29 31 31 32 32 36 32 30 27 28 26 27 19 23 18 23 22 20 20 31 35 37 36 39 40 43 45 39 37 34 37 39 39 37 40 44 45 35 32 37 38
22 18 18 17 16 17 15 16 15 16 19 19 21 25 27 31 37 38 29 23 28 37 34 31 27 28 21 17 16 19 32 36 31 35 33 33 40 39 41 34 29 29 29 32 33 33 35 38 30 29 30 36 41 44
27 23 20 17 15 15 15 17 21 20 18 19 20 24 30 34 29 26 24 28 22 23 35 39 35 31 29 32 40 35 18 18 18 27 24 29 36 32 21 19 24 27 28 29 31 32 33 33 32 36 36 41 46 45
26 24 23 24 22 18 15 14 14 16 19 20 23 26 27 25 24 25 19 17 18 20 24 33 32 37 41 36 28 17 14 11 10 15 12 13 21 19 15 21 24 23 24 29 30 29 26 27 33 37 41 45 49 45
24 23 22 22 21 20 17 16 15 14 16 19 19 21 18 15 10 10 12 13 14 14 17 20 18 17 20 20 16 13 16 9 8 10 7 7 12 20 18 17 19 23 26 23 22 24 28 31 38 44 44 44 42 42
24 23 21 21 19 18 18 18 15 15 14 14 16 16 11 13 16 11 15 14 14 18 21 17 15 11 15 16 12 8 7 11 10 7 7 13 17 13 14 14 13 18 22 26 29 36 41 45 47 44 43 43 43 43
25 24 23 22 21 18 18 16 16 14 11 12 12 12 10 9 11 21 19 15 18 14 13 12 12 9 12 10 10 7 9 7 6 7 16 19 18 18 19 20 24 28 32 37 42 46 49 46 43 43 44 43 43 43
25 24 23 22 20 18 17 17 17 14 13 12 9 9 16 16 12 8 12 16 15 14 13 11 15 16 15 10 7 9 6 7 8 11 15 19 19 23 29 34 38 41 44 47 46 42 40 41 43 45 45 44 40 38
26 25 22 17 18 18 20 20 18 17 18 17 14 13 12 10 12 13 11 12 12 13 13 11 13 9 11 9 11 10 8 14 17 18 18 23 30 37 40 40 40 45 43 39 38 39 41 44 44 45 46 42 36 33
21 21 19 13 16 16 16 17 16 19 16 15 17 21 20 15 10 10 11 12 14 14 14 13 10 9 9 10 13 17 26 25 24 25 28 29 36 42 45 46 42 39 38 37 38 40 42 42 41 41 40 35 31 30
18 16 17 27 27 22 19 17 17 18 21 20 16 18 18 16 14 13 13 12 11 13 13 18 21 23 21 24 35 35 31 32 32 35 36 37 40 41 39 39 38 37 38 38 39 40 38 37 37 36 35 31 28 26
18 20 19 19 19 19 18 17 20 18 22 21 21 19 18 15 13 12 13 15 16 19 22 27 20 29 37 36 32 30 29 31 32 35 35 37 39 39 37 34 36 34 34 37 36 37 37 35 33 34 32 30 27 24
18 18 17 17 16 16 18 14 16 17 16 18 17 15 15 14 15 17 18 20 23 26 30 35 38 35 32 24 25 28 29 31 34 38 39 36 34 34 34 33 32 35 36 36 38 36 37 33 28 29 28 25 24 22
18 19 19 19 19 18 16 10 9 9 9 11 11 12 13 13 14 14 16 18 23 30 35 31 26 25 25 30 32 33 34 33 34 33 35 38 35 33 28 29 31 32 33 38 33 29 24 25 24 24 21 19 19 16
17 16 16 18 17 15 14 13 10 10 12 15 15 16 17 15 14 14 16 22 29 30 27 25 27 28 30 31 30 28 29 30 32 32 28 27 29 29 30 29 33 31 31 32 29 29 27 24 19 19 19 19 13 12
17 17 17 15 13 11 10 12 14 15 13 15 10 11 14 14 14 13 19 22 24 25 25 26 25 26 27 26 27 29 27 23 23 23 24 25 26 27 30 31 31 31 30 28 28 29 26 21 17 17 16 13 13 17
15 15 16 10 12 11 12 13 14 11 13 13 13 15 17 19 21 25 30 29 25 21 19 18 20 23 24 27 28 25 19 18 22 24 23 25 25 25 27 28 28 29 29 30 28 25 23 23 21 17 15 15 17 17
15 12 9 11 12 13 16 15 13 13 15 15 18 21 23 22 23 27 30 26 18 17 18 17 20 22 24 24 21 17 17 21 22 25 25 26 27 26 27 30 29 28 28 28 25 22 20 17 15 14 14 15 11 10
13 9 8 10 12 13 12 14 14 14 15 15 20 21 20 22 26 25 30 20 13 11 14 17 17 16 16 18 20 20 24 28 30 32 30 31 30 31 31 32 26 23 26 26 24 22 19 16 14 15 14 13 14 15
16 12 15 19 18 16 16 15 16 18 19 21 23 22 23 23 25 28 24 21 16 15 18 20 24 25 26 26 27 29 30 33 35 34 34 32 30 30 31 29 27 26 25 24 24 22 20 17 16 15 15 15 15 14
25 27 27 23 24 23 22 24 26 28 27 26 26 29 30 30 32 27 24 24 25 27 29 32 34 36 37 34 33 32 35 36 38 36 32 28 28 30 30 30 29 28 27 25 24 22 21 20 17 18 18 17 17 18
27 28 29 28 27 27 30 32 35 35 31 29 29 30 31 30 29 28 24 25 27 30 32 31 29 31 33 33 34 36 36 36 34 30 27 27 28 28 29 29 28 26 24 24 25 24 23 23 22 22 23 23 23 23
32 30 31 32 32 34 32 29 28 23 23 25 26 30 32 31 28 28 30 30 28 28 25 27 30 31 30 29 29 29 28 27 26 25 26 27 28 28 27 25 24 23 23 22 21 19 20 23 25 27 26 26 24 24
24 25 27 28 30 27 25 25 27 28 28 29 31 35 38 36 33 33 32 31 30 31 32 33 31 31 30 29 27 27 25 24 24 25 26 26 24 24 23 23 22 22 21 20 19 19 19 19 18 16 15 14 17 18
26 27 28 30 30 27 27 29 30 31 32 33 34 33 32 30 29 30 27 24 24 23 23 24 25 26 28 27 26 26 25 24 23 22 22 22 22 22 21 21 20 20 20 19 18 18 18 17 16 16 15 16 17 18
24 24 25 27 28 29 28 27 30 32 31 29 27 25 23 22 23 26 25 23 22 23 21 20 21 21 20 20 20 20 19 19 19 20 21 21 21 21 21 21 22 22 22 22 22 22 21 21 21 21 22 22 22 23

GFSWCAN_700_spd_003.txt.gz
Wind_Speed
44 46 44 43 42 38 34 33 32 32 30 29 28 26 25 25 24 22 20 19 17 17 15 13 14 15 16 16 17 16 14 17 18 18 17 17 14 15 19 22 21 21 17 25 18 12 15 22 26 30 42 48 43 41
37 41 44 39 39 41 40 35 33 32 31 30 29 27 26 25 24 23 22 21 19 18 15 14 16 17 18 19 19 19 21 19 17 19 18 18 21 29 34 34 37 28 31 30 22 25 44 46 47 37 36 38 41 42
37 43 43 42 47 43 38 37 36 34 31 30 30 29 27 27 27 26 24 23 23 23 22 22 20 20 21 21 24 24 21 20 23 23 27 31 34 35 37 29 30 27 32 37 33 44 38 38 39 31 32 37 40 44
31 40 44 44 41 41 40 38 35 33 32 30 29 29 29 29 28 27 26 26 25 25 27 22 20 20 24 27 26 23 22 25 27 27 32 37 37 33 33 41 41 36 40 37 43 37 41 37 39 41 42 36 35 43
27 37 38 50 48 45 41 37 35 33 32 30 30 30 30 30 30 30 29 28 27 26 23 19 17 20 30 33 28 29 28 35 37 40 37 34 35 40 46 38 33 36 39 37 39 41 36 39 44 37 32 45 44 43
25 30 35 41 45 46 43 38 37 35 33 31 30 30 32 32 32 30 31 30 29 31 30 36 32 31 30 34 36 36 42 33 31 33 35 37 31 30 31 38 40 37 36 34 41 29 32 38 34 39 39 35 31 38
23 26 32 32 42 42 42 45 43 41 35 32 31 32 32 34 31 32 32 29 26 26 29 32 32 34 25 18 19 13 17 20 21 26 31 29 27 31 39 39 36 39 36 28 30 32 32 37 38 33 36 40 33 30
17 13 20 32 33 40 44 44 42 37 37 39 35 32 32 30 33 33 32 29 27 28 31 29 28 24 24 19 18 22 23 25 27 26 28 36 38 30 35 35 29 28 27 30 31 27 26 26 29 31 31 32 38 36
17 14 13 10 12 18 18 33 46 37 37 34 37 29 27 28 31 34 27 29 27 28 21 26 28 25 20 19 14 19 24 26 28 33 37 32 27 24 32 28 25 25 26 24 27 25 25 27 26 30 31 34 38 39
20 22 16 13 12 15 15 12 15 13 15 20 22 26 31 35 25 24 30 30 36 29 33 38 36 30 27 28 25 22 24 23 33 30 20 25 34 31 19 18 23 24 24 24 23 26 27 29 37 43 42 38 43 47
26 21 18 16 14 17 16 16 18 19 18 24 27 28 25 25 25 26 12 13 13 18 26 34 37 36 30 30 24 20 13 13 10 17 17 15 20 20 21 24 23 23 23 23 27 33 36 37 39 39 42 46 44 45
25 23 20 18 17 13 12 13 14 18 23 24 22 24 25 24 21 15 14 14 15 13 21 21 22 23 26 26 24 12 15 9 9 10 7 5 13 17 20 19 18 17 20 22 25 29 31 35 46 49 51 47 43 43
25 23 20 20 18 18 15 11 12 13 14 17 20 19 16 13 12 13 16 14 15 21 24 19 16 13 15 15 10 10 7 9 9 7 6 13 20 21 20 18 17 19 22 26 32 38 43 47 50 47 44 43 46 46
26 23 20 19 18 17 17 16 14 11 11 15 12 11 11 9 11 24 23 19 23 18 16 14 12 8 12 11 10 6 9 6 5 7 18 21 23 22 22 23 25 28 33 40 44 46 47 50 44 42 44 45 46 44
30 25 22 19 18 16 16 16 14 12 12 13 9 8 16 17 14 10 15 20 19 16 14 11 11 12 12 10 7 8 5 6 7 9 13 17 20 23 27 31 36 41 45 49 49 50 44 42 41 42 43 44 42 41
27 23 22 21 18 17 16 14 13 13 16 14 12 13 14 12 13 14 12 12 12 13 11 11 11 8 11 8 9 9 7 12 14 13 14 18 23 30 35 41 43 44 48 45 41 38 38 38 40 42 42 38 39 38
24 22 21 20 20 19 17 16 16 18 14 16 19 22 18 13 9 9 10 12 12 13 13 9 7 9 8 9 10 16 23 19 18 21 23 27 33 37 41 45 43 41 39 37 36 37 37 39 37 39 39 35 36 35
20 17 17 17 20 20 18 15 14 13 18 21 15 17 18 18 17 15 16 17 16 16 15 19 18 18 14 17 26 25 23 26 30 33 35 36 38 40 38 37 37 35 35 36 35 36 36 37 38 39 38 35 33 30
16 17 18 19 19 21 17 15 18 14 18 18 18 17 16 15 15 13 12 12 13 16 18 22 17 22 28 28 26 24 25 28 31 32 32 34 37 37 35 33 34 34 32 31 32 34 36 36 34 31 28 29 29 27
17 18 19 17 19 19 17 16 16 19 14 16 16 16 17 16 15 15 16 18 20 23 25 32 32 31 28 25 23 24 26 30 36 38 36 34 32 32 33 32 29 29 30 30 33 33 33 32 30 30 28 26 24 21
24 26 25 20 18 19 16 9 11 10 11 13 11 12 14 13 15 17 18 20 25 30 33 33 28 25 21 24 26 29 33 33 34 35 36 35 33 32 28 27 29 28 29 31 31 31 30 31 32 29 25 22 23 20
21 19 18 19 18 17 18 13 10 12 11 11 10 11 12 14 14 15 19 24 29 29 27 23 21 23 26 30 30 31 32 32 32 32 32 29 28 27 28 29 29 28 28 29 30 31 31 32 31 26 24 22 19 16
17 18 19 18 16 14 11 14 14 14 12 12 9 10 12 9 8 10 16 21 22 17 20 26 27 26 29 30 30 30 30 30 30 28 25 22 23 24 26 25 26 28 30 30 31 30 31 31 29 26 23 18 16 16
15 16 17 12 12 11 11 12 11 11 12 10 10 11 13 13 14 18 25 25 19 16 18 20 21 23 22 22 23 24 22 22 23 20 19 21 23 25 28 29 31 33 33 32 29 28 29 28 28 26 21 17 16 17
18 14 9 12 12 12 15 13 11 11 10 10 12 13 16 17 20 24 28 26 15 15 19 22 19 17 19 19 16 15 16 19 20 22 22 26 30 32 31 32 32 30 31 29 28 28 29 26 25 24 21 19 17 15
13 10 7 8 11 11 9 7 6 7 8 10 12 14 15 17 22 24 29 23 14 14 14 17 18 18 17 18 20 22 24 24 27 31 32 34 35 36 36 35 32 27 29 29 29 29 29 27 24 23 22 20 18 18
13 9 14 16 10 7 8 8 10 13 15 18 20 20 21 21 24 27 20 19 21 21 18 18 21 23 26 29 31 32 32 35 36 35 34 35 36 34 33 31 28 28 29 29 29 30 30 28 25 23 23 22 20 19
15 19 17 13 15 15 17 18 19 22 23 21 23 26 20 22 30 30 29 27 27 27 27 28 32 35 39 37 36 35 35 35 36 35 34 34 34 32 31 29 29 29 30 30 29 28 27 27 26 25 26 26 26 24
23 23 22 21 20 22 25 27 29 30 27 26 28 31 33 33 33 33 31 26 26 28 30 32 33 34 34 32 30 33 35 33 32 31 32 31 29 28 27 27 28 28 27 27 26 26 26 25 24 24 26 28 28 29
27 26 26 25 25 28 28 24 24 21 23 26 31 35 37 37 33 32 33 35 36 36 36 36 35 34 34 33 35 36 36 32 29 29 28 26 25 26 27 26 25 25 24 24 23 23 22 21 22 23 24 25 24 23
24 25 25 24 26 26 26 27 28 30 31 33 33 36 39 37 36 37 38 38 38 37 35 32 31 31 31 30 30 30 32 32 28 26 26 26 26 25 24 24 24 24 23 22 22 21 21 20 20 21 20 20 18 17
22 23 25 27 27 25 26 28 30 32 34 35 36 34 33 32 33 34 34 33 33 29 24 25 25 24 24 24 24 25 26 25 24 24 21 20 21 21 22 22 22 22 22 23 23 23 23 23 22 22 22 22 22 22
22 24 26 26 25 24 22 25 28 29 30 31 25 22 22 21 25 25 24 22 24 24 24 24 23 22 22 20 18 18 19 18 18 18 19 19 20 21 22 22 23 24 25 25 25 25 25 25 25 24 24 24 24 24

GFSWCAN_700_spd_006.txt.gz
Wind_Speed
50 48 42 39 37 36 34 34 31 29 27 26 25 24 23 22 21 21 20 19 18 18 16 15 17 17 17 17 17 16 17 20 18 17 12 11 10 12 16 19 20 22 18 25 16 10 11 6 20 31 38 44 45 48
43 46 45 44 41 38 36 35 31 30 30 28 27 26 24 23 23 22 22 21 20 19 16 17 18 18 18 18 18 20 22 21 14 13 11 11 15 22 25 28 30 23 26 23 21 24 41 46 47 32 38 41 41 46
35 41 42 46 40 42 38 34 31 31 30 29 29 28 27 26 24 23 23 22 22 22 21 22 20 19 19 19 21 24 25 22 23 23 24 24 28 29 28 27 28 33 24 31 34 39 34 29 32 32 36 38 41 39
37 36 44 44 44 41 41 36 35 32 30 30 30 29 28 27 26 25 25 25 25 25 25 23 17 21 25 24 24 26 28 29 28 24 26 30 33 29 32 32 34 31 40 37 37 33 37 32 34 36 36 38 33 40
22 36 36 46 39 38 38 35 33 34 35 33 31 30 30 28 27 27 27 26 27 26 22 20 23 29 28 26 27 28 25 25 27 30 34 37 38 38 35 29 34 32 29 35 40 30 38 33 35 34 39 42 39 27
16 23 30 37 40 41 38 38 42 37 34 33 31 31 29 28 28 28 29 30 28 28 31 32 29 29 24 26 30 28 30 33 37 38 40 43 31 29 30 29 24 36 37 27 34 37 31 31 35 33 34 30 31 31
19 19 27 27 31 39 36 41 40 38 38 35 32 32 30 29 29 29 31 28 27 27 29 30 31 36 32 32 26 21 27 32 29 35 37 33 30 26 33 37 37 34 25 27 28 29 31 29 26 27 30 27 32 35
17 19 22 27 27 34 38 37 42 44 38 34 32 30 29 30 29 29 30 30 29 27 27 21 24 25 25 23 21 22 21 22 27 29 31 30 32 29 29 34 28 26 26 27 32 28 26 29 26 26 31 37 40 40
11 14 22 24 27 32 37 40 38 39 39 33 34 34 32 34 33 34 27 29 28 30 29 29 24 22 21 13 14 21 25 22 27 29 30 26 25 21 26 26 30 29 29 27 28 29 30 30 28 33 38 40 42 44
15 11 12 9 15 26 29 46 48 45 44 42 38 34 38 37 37 34 27 23 30 34 35 35 33 25 26 16 17 18 22 17 19 23 22 25 33 26 23 29 26 26 25 27 28 31 29 32 35 35 38 40 44 51
19 16 12 15 8 7 8 11 33 36 34 37 33 32 27 25 26 26 21 14 15 23 25 31 30 30 29 26 25 16 14 11 16 19 20 15 18 21 26 26 27 28 30 30 32 31 33 35 36 39 43 48 51 51
20 18 20 18 12 12 13 12 9 9 10 17 18 18 16 13 10 10 9 10 12 13 13 12 13 15 21 23 18 14 19 12 9 10 8 7 20 22 24 24 24 25 26 27 29 32 33 37 44 49 51 51 46 45
22 19 20 20 15 15 15 16 17 18 18 16 16 16 10 11 12 10 13 13 11 17 24 25 21 19 18 16 11 10 8 9 10 7 7 14 21 23 23 24 24 26 28 30 32 35 42 49 52 52 48 43 42 43
19 18 17 17 18 14 14 13 14 16 17 20 20 19 11 9 11 23 23 20 26 24 19 15 13 10 15 12 13 7 10 6 5 7 16 20 20 21 23 25 26 29 34 39 43 48 50 50 48 44 40 40 42 41
26 21 17 15 16 16 14 14 15 13 15 10 8 8 14 17 14 9 11 16 18 17 15 13 12 13 11 10 7 8 5 6 6 7 12 13 15 18 23 27 32 37 42 47 49 49 44 42 39 39 39 41 39 40
29 27 22 19 18 19 17 16 14 13 17 12 11 11 11 12 14 13 11 11 11 12 12 15 13 7 11 8 9 9 5 7 10 11 13 16 23 27 31 36 42 45 45 43 41 40 38 38 39 40 40 40 40 41
34 32 26 22 19 16 15 14 13 16 14 15 16 18 14 9 7 8 10 13 14 14 15 12 8 9 7 8 8 10 18 17 17 16 22 26 30 35 39 38 37 37 38 37 36 36 35 35 36 37 38 37 33 30
38 28 22 17 16 15 14 15 16 16 18 21 17 14 15 16 16 16 14 13 12 13 13 16 15 17 12 12 18 17 16 17 24 30 33 36 36 33 36 38 35 33 33 34 33 32 34 34 34 35 36 36 35 33
21 20 18 17 16 16 17 16 17 15 17 17 16 14 14 12 12 12 12 13 15 16 17 21 16 18 23 24 24 23 22 27 31 35 37 36 35 36 33 31 31 31 30 29 30 31 32 34 33 33 35 35 35 32
17 16 16 16 16 16 15 13 15 14 13 14 15 14 14 15 16 17 16 16 18 20 23 28 28 27 27 27 25 25 27 29 33 35 35 35 33 33 31 31 29 27 27 27 27 29 32 31 31 32 35 35 32 29
21 20 18 17 18 18 17 11 10 11 12 15 13 11 13 14 15 16 17 19 22 28 29 29 28 26 24 27 27 27 30 31 34 37 37 35 31 30 28 25 26 27 25 24 26 29 33 35 32 32 33 33 31 30
20 18 17 18 16 15 16 13 11 11 10 8 8 10 12 13 13 16 19 22 26 26 25 25 25 24 26 27 28 31 32 33 32 33 34 33 30 28 23 22 24 25 27 28 31 33 35 35 31 30 30 30 29 26
18 19 19 15 13 11 11 16 15 13 10 11 11 11 14 14 15 16 19 21 20 15 17 22 24 27 29 29 28 25 23 25 27 28 26 25 22 20 22 24 26 30 32 31 34 35 34 33 31 30 30 29 27 23
14 15 16 13 12 9 10 11 11 14 15 15 14 14 12 12 13 16 21 22 16 16 19 21 25 27 27 25 25 23 22 22 20 19 17 18 20 22 26 29 32 34 35 35 35 33 32 32 31 30 31 29 26 24
15 13 8 11 10 10 12 12 12 12 10 11 11 11 11 12 15 20 25 24 14 16 18 20 22 23 23 20 21 19 17 20 22 24 22 24 28 32 34 34 33 35 36 36 34 32 31 32 31 31 31 29 26 24
13 9 7 6 10 14 12 10 10 11 10 10 9 10 10 13 19 19 27 17 16 14 16 20 22 23 22 24 26 27 28 28 30 32 32 34 35 36 35 34 33 34 34 33 31 31 31 31 31 31 30 28 26 25
10 8 12 12 7 6 7 8 7 8 9 12 15 16 15 14 19 21 16 10 14 22 25 28 29 26 27 30 33 36 37 38 37 34 30 31 32 33 30 31 33 33 30 28 29 31 31 31 30 30 29 27 26 26
11 11 9 8 8 8 11 13 15 17 18 19 21 22 15 18 23 23 26 30 33 34 32 32 31 29 30 31 33 35 37 36 33 28 29 30 30 29 30 33 30 28 27 28 29 29 29 30 30 30 29 28 26 26
16 14 13 12 13 16 19 20 22 22 22 23 25 27 31 32 33 36 39 40 40 39 36 35 33 35 36 37 39 40 39 37 35 34 35 35 32 30 28 27 26 26 27 25 25 27 27 27 28 27 27 27 26 26
17 17 20 22 23 26 24 22 24 22 23 26 30 34 37 38 40 42 43 43 41 40 39 38 38 39 38 38 38 36 33 31 30 31 32 31 30 28 27 26 27 25 24 24 25 25 26 26 26 26 26 25 25 24
17 18 19 21 23 22 22 25 28 30 31 33 33 36 37 38 40 41 41 40 38 35 34 34 35 35 35 32 29 28 28 26 27 26 27 29 28 27 25 22 21 22 23 25 25 26 26 27 27 27 27 27 26 26
17 19 21 22 22 21 24 27 29 30 28 27 28 26 29 29 30 34 37 37 35 35 34 31 28 26 27 28 28 28 26 23 25 24 21 19 17 18 19 20 22 23 24 25 26 27 28 28 28 27 28 27 27 26
13 17 21 23 23 22 21 22 25 26 24 22 17 15 13 15 20 26 27 24 20 19 22 22 21 18 15 14 15 18 19 18 18 18 18 17 17 18 20 22 24 25 27 27 27 27 27 27 27 26 26 25 24 23

GFSWCAN_700_spd_009.txt.gz
Wind_Speed
39 39 39 38 37 34 32 31 29 28 27 26 25 23 21 20 19 18 17 16 15 14 13 13 13 14 14 14 13 12 11 13 13 12 9 9 8 10 11 12 18 24 16 20 11 8 9 10 24 33 39 44 34 35
31 42 39 39 37 36 34 32 30 29 29 27 25 24 22 21 20 20 18 17 16 16 13 16 17 16 18 18 17 16 16 15 9 9 7 8 12 17 19 20 21 19 17 17 16 24 29 35 35 35 36 40 35 34
22 30 45 40 36 36 36 34 32 31 29 27 26 25 24 23 22 21 20 19 19 17 17 19 18 18 20 20 20 19 19 19 19 20 20 22 25 27 24 21 23 33 30 30 34 32 33 32 30 34 32 28 35 35
18 26 29 45 43 38 37 36 34 33 30 29 28 27 26 25 24 23 22 21 21 20 21 20 15 19 23 22 22 21 21 21 22 24 26 30 31 27 27 30 35 37 33 31 34 33 33 32 31 36 31 32 37 41
15 19 28 31 40 42 42 38 34 33 32 31 30 28 27 26 25 24 23 23 23 21 16 14 18 24 25 23 21 25 25 24 24 26 28 29 32 33 36 34 44 21 28 25 34 34 32 34 35 27 30 40 38 32
12 14 22 30 31 38 44 39 39 36 35 31 29 28 26 26 26 26 26 27 26 24 25 27 26 27 27 26 25 27 31 26 28 33 35 32 31 29 32 31 25 27 26 29 32 31 30 35 37 36 37 36 31 29
13 14 14 23 32 37 42 43 41 39 36 33 32 30 27 28 28 27 29 26 25 23 24 23 26 30 26 24 25 27 28 29 28 33 35 32 33 28 33 37 37 35 30 28 26 29 34 33 32 33 32 27 28 33
15 13 16 18 24 33 46 40 40 37 36 32 29 28 28 29 29 30 30 28 26 23 23 17 20 23 22 15 13 17 21 26 32 30 32 30 27 24 30 34 30 27 30 27 29 35 30 28 30 30 29 31 36 38
16 12 14 15 18 23 33 45 42 40 35 33 32 29 30 31 33 33 29 28 27 26 23 27 29 22 19 16 20 25 23 24 28 29 26 24 24 20 21 26 31 34 31 31 29 25 28 29 30 29 32 37 42 45
14 10 10 15 20 25 24 27 41 43 37 36 34 36 32 36 33 28 31 30 31 33 33 35 33 28 26 19 17 15 19 24 19 20 18 23 27 28 30 30 31 25 27 22 21 24 27 29 32 36 40 42 47 52
15 11 7 11 18 21 22 28 28 37 42 37 41 38 40 38 38 37 28 20 20 19 22 32 28 30 24 19 20 13 9 8 9 15 16 15 21 24 25 23 24 24 23 24 25 28 32 34 38 42 44 50 52 47
16 15 11 10 8 4 15 26 31 39 39 41 41 37 38 31 20 16 16 14 12 16 12 12 16 18 13 11 12 11 13 9 8 10 9 10 20 22 22 22 22 23 24 26 27 29 33 36 41 48 50 46 44 42
18 16 13 14 12 9 7 11 23 25 27 31 25 20 15 11 9 11 13 10 10 6 6 6 10 13 14 16 11 10 8 10 10 7 7 14 19 18 18 18 20 22 24 26 29 33 39 45 46 43 42 40 39 40
20 17 14 13 16 12 11 6 7 8 11 11 5 3 7 5 6 6 6 6 8 9 10 10 11 9 13 10 11 7 10 8 7 11 18 17 15 13 13 16 20 23 26 32 38 43 43 41 40 39 37 38 39 40
26 22 18 15 24 18 15 15 17 12 16 9 5 4 7 5 8 4 4 7 11 13 13 12 12 12 12 10 8 9 6 7 8 9 11 10 9 12 18 22 25 29 35 41 39 39 40 39 37 37 36 38 38 38
26 23 18 14 22 22 19 16 14 12 15 7 7 6 3 7 8 8 6 6 7 11 13 13 12 8 13 8 9 9 6 7 11 14 13 10 15 22 24 27 33 38 37 38 39 36 35 35 35 36 36 35 35 36
34 27 22 19 20 20 19 18 16 16 10 9 10 12 11 10 5 5 7 8 8 10 12 11 8 10 8 8 9 11 18 20 20 16 12 18 27 30 32 33 30 33 34 33 33 32 31 31 33 34 35 33 34 36
32 28 24 21 18 18 19 19 17 13 13 13 12 12 12 11 11 12 12 11 10 11 16 19 17 15 9 12 16 17 17 16 14 17 26 31 32 34 31 30 31 31 31 30 29 29 30 29 29 31 33 32 33 35
32 30 28 25 21 17 15 12 13 8 13 14 14 13 13 12 13 14 14 13 13 13 16 21 15 16 20 22 22 19 19 20 25 31 35 36 33 30 31 31 30 29 29 26 27 28 27 25 27 31 35 34 32 33
31 31 29 27 24 19 14 10 14 15 10 11 11 11 11 12 13 13 14 14 16 18 22 25 25 24 22 21 21 23 26 30 32 32 31 30 30 32 31 29 27 28 26 26 26 26 26 27 30 32 34 32 31 32
24 25 23 20 18 17 12 7 9 9 11 12 12 12 12 12 14 15 17 18 20 26 26 23 21 21 23 25 26 29 29 29 28 29 31 33 32 31 30 27 27 27 25 24 26 28 29 31 33 34 33 31 30 31
20 19 19 17 14 13 13 11 9 10 10 7 7 9 11 13 14 16 18 22 26 23 20 20 21 22 21 21 23 25 27 28 29 29 27 28 29 31 29 26 24 23 24 27 31 33 33 34 35 34 32 32 30 30
13 14 15 16 14 12 10 14 12 10 7 8 9 11 13 13 15 16 20 22 20 13 14 17 18 19 21 22 23 25 26 26 27 27 27 28 28 26 23 20 21 25 29 32 34 34 35 35 34 33 32 32 32 30
14 15 18 12 11 9 9 8 10 11 14 14 13 12 13 14 14 17 21 21 15 16 18 18 19 20 21 22 23 25 26 24 25 25 25 26 26 24 25 27 29 31 33 32 33 34 35 35 32 31 32 32 31 30
15 13 7 9 8 9 11 11 11 12 12 10 11 10 10 10 14 19 23 21 16 15 15 18 19 19 23 25 25 25 26 27 28 30 29 28 30 33 34 32 31 32 34 32 30 33 34 32 30 30 31 31 30 30
9 7 6 5 7 10 10 8 9 11 11 10 7 8 8 10 14 15 23 16 16 19 17 18 22 27 28 28 27 27 28 32 34 37 35 34 33 32 29 28 28 28 28 28 31 33 31 28 29 30 29 29 29 30
7 5 7 7 4 3 7 8 6 4 5 6 9 10 11 10 14 15 15 16 14 16 20 24 31 36 35 34 35 34 33 32 32 33 34 35 34 30 28 29 30 30 30 30 30 29 29 29 28 27 28 28 30 30
5 5 6 5 4 7 8 6 7 9 12 14 16 18 11 13 15 17 19 24 29 34 38 40 40 41 40 38 37 36 35 37 39 39 38 36 33 32 31 31 31 30 29 28 27 28 28 26 26 27 28 29 29 29
5 5 4 4 6 9 11 13 14 16 17 19 21 24 26 28 31 34 37 39 41 44 45 44 43 41 39 38 37 38 39 39 40 38 35 30 28 27 27 28 28 27 27 26 27 26 25 26 27 27 28 29 29 29
8 9 12 13 14 16 17 17 19 20 22 24 26 29 30 33 36 38 40 41 42 43 44 45 44 41 38 35 34 35 34 33 32 29 26 26 27 26 26 28 26 24 24 22 22 23 24 26 27 28 29 29 30 30
15 13 14 16 17 16 17 21 24 25 27 28 28 30 29 29 32 34 35 34 29 30 33 32 34 35 34 35 35 32 28 26 26 24 25 26 24 25 25 23 21 19 20 22 23 24 25 27 29 29 29 29 28 28
14 16 18 20 17 17 20 23 25 27 26 24 22 22 24 26 27 25 21 21 23 26 27 25 25 24 23 24 24 24 24 23 24 23 22 22 20 19 18 19 20 21 22 24 26 28 28 28 28 28 28 28 27 26
12 12 15 20 22 21 19 20 23 25 24 22 22 20 17 16 19 21 22 23 24 23 21 21 20 17 16 16 17 18 18 18 17 17 16 16 16 18 18 19 21 23 25 26 26 26 26 26 26 26 26 25 25 26

GFSWCAN_700_spd_012.txt.gz
Wind_Speed
33 38 38 36 34 32 34 35 34 32 28 26 24 23 22 20 18 18 17 16 15 14 12 14 14 14 14 15 14 12 12 14 11 10 7 7 8 9 10 13 12 12 7 8 6 8 7 6 21 18 28 32 36 37
32 31 35 34 35 33 32 33 34 33 31 28 26 24 23 21 20 19 18 17 16 15 11 14 14 15 15 16 16 16 17 10 10 8 9 7 10 14 15 13 16 15 11 12 13 17 22 28 24 32 32 30 33 33
25 35 30 38 38 35 34 33 32 31 31 29 27 25 23 22 20 19 18 18 17 17 16 17 16 15 17 18 18 18 19 19 18 16 16 17 19 20 22 19 20 24 23 27 27 30 19 25 25 33 33 33 36 25
14 20 33 39 39 36 37 35 33 31 30 30 28 26 25 24 22 21 20 19 19 18 19 17 15 19 21 20 19 20 21 21 21 21 21 21 23 20 25 24 27 28 28 32 28 26 23 21 31 36 33 29 29 38
7 14 21 28 40 41 37 36 35 33 31 30 29 27 27 26 24 23 22 22 21 19 12 17 21 23 21 19 17 18 20 23 26 26 26 26 25 30 32 30 36 28 24 28 29 25 27 30 31 27 37 34 31 29
7 8 14 20 31 43 40 36 36 34 33 30 29 29 29 28 27 25 24 25 23 23 24 24 24 24 21 19 20 20 22 24 27 28 30 30 30 27 22 26 34 25 31 28 33 33 29 30 29 32 28 25 26 25
11 9 10 15 24 31 48 42 37 34 33 31 31 31 30 29 28 27 27 25 24 23 24 23 25 28 28 26 26 25 25 25 27 29 34 34 33 28 33 37 34 36 30 29 30 28 30 28 30 26 24 27 28 29
14 13 10 13 16 25 30 39 47 39 37 35 31 31 29 29 29 30 28 26 24 22 23 16 17 19 17 15 15 16 17 20 26 30 33 29 28 26 29 34 31 28 29 22 25 24 30 28 25 25 26 28 31 34
16 15 12 11 13 19 27 29 34 37 40 34 34 31 31 33 34 32 28 27 26 26 23 29 31 22 20 20 18 19 20 26 29 31 31 25 26 21 23 30 30 22 21 28 32 25 23 21 23 25 28 32 38 44
16 14 12 11 13 14 19 28 30 40 40 40 38 33 37 37 35 26 26 27 28 32 34 37 29 23 20 16 18 21 19 14 15 19 19 26 32 31 26 29 26 26 28 22 20 18 20 22 25 29 37 41 45 49
18 14 11 10 11 12 16 19 26 42 41 39 44 44 36 29 33 30 17 17 21 28 30 39 36 31 29 27 27 19 14 9 10 15 16 12 22 22 23 22 22 21 19 17 18 20 24 27 32 39 42 45 42 41
18 16 12 10 8 11 13 15 23 26 42 49 45 44 43 40 22 16 18 18 16 21 16 22 26 27 24 21 23 11 12 8 9 11 10 11 19 19 19 19 19 18 18 19 21 24 26 31 37 42 40 40 41 38
18 16 14 11 8 7 8 13 18 21 26 37 41 35 22 18 14 12 14 13 17 13 17 18 21 25 17 10 8 9 7 9 9 8 10 18 21 17 14 13 13 15 18 20 23 26 31 38 37 38 39 36 35 35
20 17 15 11 11 9 6 10 14 14 14 25 18 17 15 9 10 8 13 14 15 15 21 13 11 9 12 9 10 6 11 8 7 10 18 22 19 11 8 9 13 17 20 23 28 33 36 35 36 34 33 32 34 35
22 21 18 12 13 14 11 9 11 12 10 7 6 4 6 8 10 11 11 9 8 7 6 7 10 11 11 10 9 9 6 7 7 10 13 10 7 6 10 14 16 20 25 30 34 33 34 34 34 32 30 30 32 35
23 23 19 15 13 17 14 16 10 7 6 8 4 5 6 5 5 4 4 3 3 4 6 10 9 7 11 7 9 10 7 8 14 15 13 11 10 12 16 19 23 28 32 31 32 33 34 33 31 29 28 27 28 32
25 25 19 17 17 23 23 17 16 15 3 5 8 5 4 4 3 3 2 4 5 7 11 10 9 10 7 8 10 12 19 20 18 18 18 16 17 19 24 27 30 30 29 31 32 32 32 30 30 29 26 26 28 30
21 25 23 19 18 21 21 21 17 12 11 10 9 8 7 7 8 9 9 10 10 11 14 16 14 13 8 11 13 15 17 18 18 18 19 20 24 28 31 31 29 28 31 32 31 30 29 29 30 29 28 30 32 34
20 30 24 23 22 20 23 20 20 8 10 10 8 7 7 8 10 11 11 12 11 12 15 19 12 13 14 16 17 15 13 15 18 23 26 28 30 30 29 28 29 31 31 31 29 28 28 28 28 30 31 33 35 35
23 31 28 24 20 18 17 10 17 11 6 8 8 9 9 10 10 11 12 12 12 15 19 21 21 17 17 16 16 18 21 24 26 28 27 26 25 27 29 30 30 30 31 30 28 27 26 27 30 32 34 35 35 34
30 31 29 26 25 24 17 10 12 8 10 11 9 9 10 11 12 13 15 16 19 24 23 18 14 13 16 19 20 21 21 20 20 22 24 27 28 28 27 28 30 31 30 28 25 25 27 30 33 33 34 35 33 31
32 32 28 28 28 22 14 11 11 9 8 7 7 9 10 12 13 15 15 19 22 18 15 15 16 18 18 17 16 17 18 20 22 25 26 27 27 28 29 28 28 27 26 24 26 29 31 34 34 34 35 34 32 30
32 28 22 19 16 15 10 13 11 9 7 8 9 10 12 13 14 13 17 18 14 12 13 14 15 15 15 16 17 19 21 23 24 25 25 25 25 26 26 26 27 28 29 31 33 35 35 34 34 33 35 34 30 29
21 23 20 16 12 10 9 8 9 10 11 11 10 11 12 13 13 15 19 17 11 12 14 15 15 15 16 18 17 20 24 25 26 26 27 28 28 29 30 31 32 35 36 36 34 35 36 34 31 33 35 32 30 30
16 13 7 9 8 7 8 10 10 11 12 10 9 11 11 11 12 16 16 11 10 10 9 10 14 18 18 18 22 25 27 28 28 31 31 31 34 36 36 35 32 33 32 32 32 33 33 31 31 33 31 30 30 28
9 6 7 7 8 9 9 8 9 11 10 9 9 10 10 10 10 8 12 10 10 10 15 20 22 22 23 25 29 32 34 33 37 38 35 34 33 33 33 35 34 33 29 31 32 33 33 32 29 28 29 28 28 28
7 5 9 9 8 7 8 11 10 8 8 9 9 9 8 7 7 8 11 12 16 18 20 22 24 26 31 35 39 43 43 42 41 41 38 36 36 37 38 38 36 34 32 31 31 32 30 28 27 28 27 26 27 28
6 7 8 7 8 7 5 4 6 6 7 9 11 12 8 8 10 14 16 20 23 25 29 34 39 43 46 48 49 50 47 43 41 39 38 37 37 37 37 35 32 29 28 28 28 29 28 27 27 26 26 26 27 28
6 6 7 8 7 6 7 8 9 10 12 14 17 17 19 23 25 28 31 32 34 36 38 39 41 41 40 40 41 43 42 40 38 36 34 33 33 33 30 27 27 26 26 28 28 26 24 23 24 25 26 27 28 30
4 3 6 8 10 10 11 13 15 17 19 20 22 24 26 28 30 32 34 35 36 35 35 31 30 30 32 30 30 32 32 30 30 31 30 29 27 27 27 26 27 25 26 24 21 20 21 23 25 27 28 30 30 30
8 9 10 11 11 10 13 17 19 21 22 23 24 26 28 31 32 32 31 31 31 28 25 26 30 28 24 25 24 24 23 23 24 24 25 26 25 26 26 25 26 24 20 18 19 21 22 24 26 28 28 28 28 28
13 13 15 17 18 17 16 17 21 24 25 25 24 24 25 26 28 29 27 22 22 23 25 27 27 28 29 28 25 22 20 18 17 18 20 21 22 22 21 20 19 18 18 19 20 22 24 26 27 27 26 26 26 26
10 10 11 14 18 20 21 21 23 24 23 22 22 22 21 21 22 20 19 23 25 27 29 29 30 31 31 29 27 26 25 24 24 22 21 21 21 21 21 21 20 20 20 21 22 24 24 24 24 24 24 25 26 27

GFSWCAN_700_spd_015.txt.gz
Wind_Speed
39 38 37 36 38 40 39 37 35 32 28 25 22 21 21 20 19 17 16 14 15 16 15 19 20 18 17 18 16 17 15 16 16 14 11 10 9 9 8 6 8 7 6 7 6 7 8 6 11 17 22 24 28 35
35 36 40 34 36 36 38 38 36 34 31 28 25 23 22 21 20 18 17 16 15 16 11 15 16 17 19 20 17 16 16 11 12 12 14 10 11 9 10 5 7 8 13 8 10 12 17 23 25 26 26 27 34 36
44 37 37 37 36 34 33 34 35 34 31 29 27 25 23 22 21 20 18 17 17 16 15 15 17 17 17 17 17 19 19 20 18 19 16 17 17 16 16 16 14 18 15 24 19 21 21 23 24 30 30 32 31 30
27 35 40 38 34 34 32 30 31 32 32 30 29 27 25 23 21 20 19 18 17 17 18 17 17 20 19 19 19 19 21 19 21 22 24 24 23 20 23 20 20 24 16 22 27 28 26 22 25 29 28 25 29 31
9 18 28 38 40 35 34 32 30 30 29 30 30 29 28 25 24 22 21 21 19 19 12 18 22 21 19 19 20 21 21 22 22 23 26 25 26 27 33 31 34 29 24 23 29 26 34 29 31 33 26 27 25 24
6 1 10 22 36 36 38 34 33 30 29 30 29 29 29 27 25 24 24 24 22 21 23 23 20 20 19 21 23 24 24 25 24 27 28 27 26 24 23 32 39 27 25 24 27 33 32 31 37 22 25 24 23 26
8 7 7 13 21 31 38 38 34 33 31 31 30 29 29 28 27 28 26 25 24 23 24 24 25 29 26 25 25 26 26 30 28 30 32 31 30 27 33 39 33 27 31 28 27 30 30 25 19 23 21 23 26 27
9 8 7 7 14 22 31 39 39 36 32 32 31 31 29 29 29 28 27 26 22 22 25 18 17 20 22 24 25 27 30 30 33 33 34 33 29 29 33 38 34 30 26 24 28 17 17 22 21 19 20 24 27 32
14 11 11 9 8 14 23 29 39 38 34 31 31 29 30 33 33 29 26 26 27 27 23 28 31 27 24 24 20 20 23 25 27 29 31 29 31 28 31 26 28 27 26 26 23 24 24 19 18 21 24 27 33 40
17 15 13 12 10 11 15 22 28 36 43 36 34 34 35 37 32 27 27 27 30 34 36 40 35 29 24 19 20 22 22 18 19 25 24 27 37 33 29 28 26 26 25 21 23 20 17 18 21 24 28 34 39 40
18 17 15 14 12 11 14 16 22 29 31 37 38 42 40 38 33 30 27 24 27 29 36 44 43 32 30 24 22 20 19 12 12 19 18 14 28 25 19 19 20 21 20 18 16 16 17 20 25 29 34 38 38 39
17 16 15 13 13 12 13 14 19 27 32 40 44 42 34 32 22 23 19 19 19 25 28 29 31 31 34 34 32 28 25 11 10 13 10 11 21 16 14 16 17 17 17 16 16 17 20 25 29 33 35 36 37 36
17 15 14 11 11 10 11 12 16 19 22 29 40 35 30 19 15 12 19 25 28 24 25 26 25 22 30 32 27 17 11 10 9 8 8 10 19 18 16 13 15 17 17 16 17 21 25 29 33 33 34 34 35 33
17 16 13 12 11 10 7 7 10 12 15 18 16 17 14 7 10 11 17 21 26 26 23 20 21 27 27 25 11 8 9 7 6 6 10 15 17 15 15 14 13 15 16 17 21 26 29 32 31 32 33 34 32 31
19 18 15 13 12 12 8 5 9 10 10 12 8 6 6 6 8 11 14 14 15 16 17 21 25 13 11 7 7 6 4 6 6 5 11 10 12 12 11 11 15 15 18 21 27 31 31 31 32 33 33 31 31 30
20 19 19 15 13 13 12 11 9 7 5 5 3 7 12 12 11 11 11 11 13 12 12 9 6 3 6 5 5 8 5 4 9 16 15 11 9 11 13 15 15 18 24 29 32 31 31 32 33 33 32 30 31 30
24 19 20 17 15 12 12 7 15 12 4 5 7 6 8 6 11 10 4 7 8 8 8 6 3 7 4 6 7 10 17 21 21 16 14 14 12 14 16 18 22 28 31 31 30 31 33 33 33 32 31 30 30 30
22 21 21 20 18 17 14 16 8 6 6 6 6 4 3 4 5 4 3 2 4 6 9 12 10 12 8 9 15 18 16 14 15 15 16 16 18 19 24 29 31 30 29 30 31 32 32 33 32 30 30 30 32 34
17 20 22 21 19 19 16 16 17 8 10 8 7 6 7 6 6 7 7 8 9 10 13 18 12 13 14 18 21 20 19 17 16 18 21 22 24 26 27 27 28 28 29 29 29 30 31 32 30 28 28 31 33 34
15 24 20 23 20 17 20 15 12 16 8 10 10 11 10 11 11 13 14 14 15 16 18 20 21 17 18 19 19 20 21 21 21 22 22 23 24 23 24 26 26 27 28 29 28 28 28 26 25 27 31 34 37 36
16 19 23 25 21 19 15 7 12 10 13 10 10 11 10 10 11 12 13 14 17 20 19 18 15 15 19 20 20 19 18 19 19 20 21 22 23 25 25 25 26 27 28 28 27 27 26 27 30 34 36 37 37 36
16 31 32 29 24 21 18 12 13 11 10 8 11 11 11 12 13 14 14 18 19 15 16 15 15 16 17 16 15 15 16 18 19 20 23 25 26 25 26 26 27 27 27 28 30 32 34 35 37 37 37 38 39 36
14 21 35 28 23 22 18 19 14 13 10 9 10 11 13 13 13 13 16 14 11 10 13 13 14 14 13 14 15 16 17 19 20 23 26 27 28 28 28 28 29 30 32 32 36 37 37 37 35 35 36 36 36 35
22 28 31 20 14 15 15 16 16 14 13 12 12 13 14 14 13 15 17 13 9 12 13 14 13 14 15 15 16 18 20 22 25 28 29 29 30 29 30 32 34 37 39 37 33 35 37 36 34 34 34 35 36 34
23 15 10 11 13 13 12 15 15 14 14 12 12 12 10 10 11 13 12 8 10 10 10 11 11 12 15 18 21 23 26 28 30 33 33 35 38 42 41 37 37 37 35 36 35 37 37 36 35 36 37 36 33 30
8 7 9 13 14 13 13 11 12 13 12 11 9 10 9 10 10 7 8 10 10 10 10 15 16 19 21 24 27 29 31 34 37 40 45 47 47 47 46 44 40 37 37 36 37 37 36 34 34 33 32 31 29 28
7 6 10 10 10 10 10 10 9 8 8 9 12 11 9 6 7 12 12 13 13 15 19 20 22 25 28 30 33 37 43 46 48 47 45 43 43 42 42 41 40 39 37 37 37 33 31 31 29 29 29 27 26 26
6 7 8 9 9 7 5 6 8 8 9 10 10 10 7 7 12 14 14 16 18 21 23 27 32 35 39 41 43 44 41 38 37 37 38 38 37 37 35 35 33 33 33 32 30 29 29 28 29 27 24 23 24 26
7 8 9 8 9 9 8 9 9 10 10 11 13 15 19 21 22 23 24 27 29 32 34 35 38 37 36 36 35 35 35 34 34 34 34 32 30 29 28 29 29 30 31 30 30 30 28 26 24 21 21 23 25 28
5 5 6 8 9 10 11 11 13 14 16 18 20 22 23 25 26 28 29 30 33 34 34 32 32 31 30 29 32 34 34 35 35 34 30 28 27 26 26 27 28 28 28 29 28 28 26 22 21 21 22 24 26 28
8 9 10 11 13 14 15 16 17 18 19 20 21 23 26 29 30 31 32 31 31 30 31 28 26 26 28 31 32 32 33 34 33 33 31 29 27 26 26 26 26 27 26 26 24 23 21 21 20 20 22 24 26 26
8 9 10 12 13 13 14 14 15 18 20 23 25 24 26 27 28 28 29 29 27 24 22 24 28 31 33 34 35 35 36 35 34 34 33 31 31 30 28 26 24 23 22 21 21 20 20 20 20 20 21 23 23 23
7 8 10 11 13 15 17 19 23 24 23 22 23 24 24 23 23 23 21 19 20 23 28 30 33 35 35 35 35 35 34 34 34 34 33 33 33 31 29 26 24 24 23 22 22 21 21 20 21 21 20 20 20 22

GFSWCAN_700_spd_021.txt.gz
Wind_Speed
41 40 40 41 39 36 34 31 28 25 23 20 18 17 16 15 14 13 12 12 12 12 10 16 19 19 19 15 17 16 16 17 17 16 14 14 11 13 13 14 11 12 9 10 10 7 10 8 11 17 20 26 27 29
40 39 38 39 39 36 34 31 29 26 23 20 18 17 16 16 15 14 13 11 11 11 9 13 20 20 19 18 14 14 16 14 13 11 15 11 12 12 17 12 17 15 19 12 13 9 16 20 21 27 30 30 30 29
38 33 34 37 38 35 34 31 29 28 25 22 20 18 16 15 15 15 14 13 11 11 12 12 16 17 19 22 19 18 16 16 17 17 16 14 14 15 17 18 17 11 18 22 19 20 18 20 28 31 32 32 32 29
38 33 31 33 35 35 34 32 30 28 26 24 22 20 18 16 15 14 15 15 15 13 14 12 14 16 18 19 19 18 18 18 18 18 18 19 20 18 21 21 22 22 22 26 31 26 22 26 30 31 33 32 32 33
32 30 31 31 32 33 33 33 31 29 27 25 24 22 20 18 16 16 18 17 17 16 8 14 18 17 18 19 19 20 20 21 21 22 24 23 23 24 29 30 32 25 28 30 35 34 32 32 30 30 30 33 36 35
36 34 32 30 29 30 29 33 31 29 29 27 25 24 23 21 20 19 19 20 19 19 19 20 17 16 19 22 20 21 23 23 24 26 26 26 27 25 23 30 33 26 23 25 28 30 29 29 29 31 32 32 31 18
36 40 32 30 30 29 29 29 28 28 30 29 27 26 24 24 23 22 21 21 22 22 21 22 22 23 20 20 21 24 23 25 26 28 30 28 26 25 33 39 36 32 31 30 29 30 30 30 33 31 25 21 18 19
13 23 36 32 29 29 30 27 26 26 26 25 25 25 24 25 25 24 22 22 20 20 23 19 14 16 19 21 23 25 26 26 29 31 33 32 32 32 38 41 36 29 24 25 29 28 27 27 25 25 21 21 19 18
15 13 13 18 21 32 30 28 25 26 25 24 23 22 23 23 23 21 22 23 23 24 23 26 26 21 23 23 22 22 23 25 29 33 34 33 34 34 37 33 33 30 30 27 23 23 23 24 22 20 19 18 17 20
10 10 11 11 7 6 20 31 31 30 25 24 23 24 24 22 21 21 22 24 27 29 32 32 29 26 24 23 20 19 20 20 21 26 23 29 39 37 33 30 28 30 30 25 23 24 22 21 18 16 16 18 21 26
7 7 7 7 6 6 6 10 17 26 30 29 28 27 26 24 23 23 19 17 19 25 31 36 35 34 31 28 26 22 17 12 18 21 19 23 36 32 24 22 24 27 28 26 23 20 18 18 15 15 18 21 26 30
10 9 8 7 7 6 4 5 9 15 20 24 25 24 22 24 19 15 16 17 20 19 24 22 24 29 33 32 27 22 22 14 13 15 11 14 20 18 10 13 17 18 18 18 20 18 17 15 15 17 21 27 31 33
11 11 10 9 8 7 7 6 6 9 15 17 20 23 18 14 13 12 16 12 16 22 22 20 21 23 24 22 20 17 13 15 19 11 11 15 13 10 11 10 10 10 12 13 12 13 14 16 18 22 28 32 34 32
9 9 8 9 7 7 7 7 6 7 10 15 15 10 11 7 10 14 15 16 16 13 14 18 22 16 22 19 17 9 11 9 9 6 5 8 12 9 4 2 3 8 12 13 12 14 16 19 22 28 33 32 31 32
8 8 8 7 6 6 5 4 5 6 8 11 7 6 9 9 9 9 13 15 15 14 14 13 18 24 17 15 10 9 6 4 5 3 8 7 4 5 6 7 8 8 9 13 17 20 23 26 30 32 30 30 31 32
6 8 8 7 6 4 4 4 3 4 6 7 6 3 1 4 6 8 9 10 10 8 9 15 15 7 9 4 4 3 4 3 2 4 8 10 8 4 4 8 12 14 16 19 21 24 28 31 30 29 28 28 30 32
3 6 6 5 6 5 3 4 4 6 4 4 5 6 6 5 3 6 5 5 7 9 10 7 5 5 3 2 4 5 2 7 10 10 9 10 11 10 10 13 15 18 21 23 27 29 27 26 27 27 28 29 31 29
5 5 8 6 6 7 4 4 3 5 5 7 9 7 5 5 6 6 5 6 7 8 8 7 5 6 4 1 3 7 11 12 14 16 15 13 13 13 15 17 20 24 25 24 24 25 26 27 27 28 29 29 29 29
6 4 6 9 6 8 8 6 7 4 6 4 6 6 6 7 8 7 5 5 5 5 4 1 1 1 4 4 6 10 11 12 12 14 16 18 18 18 20 20 20 21 23 24 25 26 27 28 30 30 29 30 32 32
9 8 8 10 10 10 9 6 5 6 5 8 9 10 10 10 11 10 8 8 9 9 9 8 9 11 14 11 13 16 18 19 19 19 19 20 21 22 21 21 22 23 23 24 26 28 30 31 30 31 33 35 36 38
10 9 8 11 10 11 11 6 8 8 8 8 9 13 14 13 13 12 12 12 13 11 11 11 10 12 14 16 18 19 19 19 19 20 21 20 19 19 20 20 22 24 26 28 27 27 28 31 33 36 37 36 34 35
10 10 7 9 13 14 14 12 9 11 11 9 11 11 13 14 13 12 12 12 10 10 12 13 15 14 15 16 15 16 18 19 19 19 20 21 21 22 23 25 27 28 28 27 31 36 39 40 40 39 40 40 38 38
13 14 9 9 17 14 12 17 17 13 12 11 11 12 13 14 12 10 11 9 10 13 12 13 13 13 15 16 16 20 21 21 21 21 21 21 23 25 28 30 32 35 39 41 44 46 48 47 45 45 47 44 40 38
14 16 12 6 14 12 19 21 20 18 16 14 13 13 12 10 10 11 12 12 16 11 12 14 14 15 15 19 21 21 19 17 18 20 23 26 29 32 35 38 40 42 43 42 41 41 39 39 40 40 37 34 35 35
8 11 11 11 12 15 15 18 22 21 21 18 16 14 8 8 9 11 12 14 12 13 14 16 16 15 17 16 14 17 19 22 26 28 31 35 39 42 42 39 37 37 37 37 37 38 37 37 33 32 32 33 30 27
8 8 10 9 14 16 18 20 20 20 19 17 13 11 10 11 10 7 12 10 9 9 10 11 13 13 15 17 20 24 27 29 31 35 40 43 42 40 39 39 39 37 36 37 38 37 35 33 31 30 30 29 29 29
15 10 15 16 16 16 16 18 18 16 15 12 13 11 8 6 7 9 10 7 7 10 11 13 15 18 22 25 28 32 33 36 41 41 38 39 38 35 38 40 42 42 42 40 38 37 36 34 33 31 31 29 29 29
5 5 8 12 9 6 3 7 9 9 9 9 9 7 5 6 7 7 7 10 13 15 19 21 23 25 28 31 36 37 38 37 36 33 31 35 37 39 41 42 42 43 43 41 39 37 35 34 34 32 31 30 30 31
5 8 10 9 8 7 6 6 7 7 6 6 7 9 10 10 10 13 15 18 21 24 26 28 28 30 32 36 36 35 34 32 30 31 34 38 40 40 40 40 40 40 39 39 37 36 35 33 31 30 30 31 30 29
9 7 7 6 5 5 4 4 4 6 7 8 10 13 16 17 19 22 23 24 25 27 28 30 30 30 31 31 29 29 30 32 36 39 40 38 36 35 34 35 36 37 37 37 37 34 32 30 28 27 27 25 25 25
5 4 3 3 4 5 8 10 12 14 15 16 18 20 21 22 22 22 24 26 26 26 27 27 26 26 25 24 26 30 34 35 34 32 31 30 30 30 32 33 35 35 35 35 33 32 31 29 27 26 26 24 23 22
5 5 7 8 9 9 11 12 13 14 15 15 18 19 21 23 23 24 23 23 23 21 21 22 22 22 24 28 33 33 29 28 29 28 28 29 30 32 33 34 35 35 37 35 32 29 26 25 24 23 23 22 22 21
8 8 7 7 10 12 13 15 18 20 20 20 21 21 21 22 23 21 20 19 20 21 22 21 22 26 30 32 28 25 26 28 28 29 29 29 31 34 36 35 35 36 37 37 30 26 23 21 22 21 19 18 18 18

GFSWCAN_700_spd_027.txt.gz
Wind_Speed
44 45 45 45 43 38 36 36 33 29 30 30 30 29 33 36 36 23 19 17 17 20 21 23 22 20 19 18 16 15 15 17 18 17 16 15 11 14 16 20 19 15 9 12 14 12 14 19 19 20 17 16 25 24
45 45 45 43 41 39 36 34 32 30 27 29 30 29 31 32 31 22 19 18 18 19 18 21 21 19 18 16 15 14 15 14 13 12 16 15 13 14 17 18 20 19 21 16 16 12 17 18 17 21 24 26 28 26
47 44 42 42 42 43 35 32 32 30 28 26 26 27 28 25 24 22 20 18 18 17 15 18 21 20 18 18 18 17 16 17 17 14 14 15 16 16 17 18 20 20 19 25 27 27 27 27 27 31 33 30 26 27
40 43 43 41 42 43 34 32 31 30 28 27 26 25 24 24 23 21 20 18 17 16 15 18 20 21 20 19 19 18 17 15 16 18 18 19 19 17 20 22 21 19 22 26 30 28 29 31 32 32 30 29 29 34
40 41 40 38 38 41 33 32 30 28 27 26 25 23 22 21 20 19 18 17 16 17 11 15 17 20 22 21 21 19 19 20 20 20 20 20 21 23 27 29 30 26 27 29 32 27 30 30 29 30 32 34 33 28
38 35 35 33 35 37 32 31 29 25 25 23 22 21 20 19 18 17 16 16 16 16 14 11 16 18 17 17 18 19 19 20 21 21 22 24 24 25 24 29 31 26 26 26 30 29 30 32 31 29 28 28 28 26
37 37 38 35 30 32 32 30 29 28 24 22 20 19 19 18 17 16 14 13 13 14 15 15 16 16 14 15 17 18 19 21 22 24 26 26 28 30 36 38 29 29 30 30 30 30 30 28 28 28 28 28 28 30
36 33 34 35 33 31 31 30 28 27 26 24 22 20 19 18 17 17 16 15 14 15 16 11 10 13 15 16 18 19 20 21 24 27 28 28 31 33 39 32 33 30 28 28 27 27 27 27 29 29 29 29 33 25
37 31 30 32 31 31 31 29 29 28 27 25 24 22 20 20 19 18 17 17 18 18 15 18 18 16 16 15 15 16 18 23 26 28 28 29 34 35 34 34 33 32 32 32 31 30 29 29 27 31 30 31 17 13
34 32 29 28 28 30 29 30 29 28 26 25 24 22 21 20 19 18 19 20 22 23 23 22 20 18 17 17 16 16 19 19 18 22 22 28 37 34 32 34 33 31 30 28 29 28 26 24 28 35 22 13 15 20
34 33 32 27 28 26 25 27 27 25 23 22 21 21 19 17 19 17 15 12 14 14 18 23 24 25 24 23 21 16 13 11 15 17 19 21 28 27 26 26 26 26 23 23 25 22 21 24 25 23 17 19 18 16
18 22 36 31 24 22 25 25 23 21 21 21 20 18 17 15 12 10 11 11 9 12 13 13 17 21 26 24 20 16 18 11 10 13 10 11 19 19 19 20 22 22 21 20 20 21 24 22 12 16 15 11 17 20
16 17 16 14 16 22 24 21 19 20 23 21 20 18 12 13 15 10 13 9 13 14 15 12 12 13 15 17 15 12 10 11 14 9 6 11 16 18 12 9 8 8 9 12 12 10 9 9 9 12 18 20 21 26
12 13 14 14 14 14 14 14 19 24 21 25 24 14 12 9 11 14 17 17 19 17 13 14 14 7 10 10 11 6 9 7 6 5 5 7 8 12 11 9 6 8 8 8 11 12 11 13 17 19 22 26 29 32
10 10 12 12 12 12 12 13 14 15 14 11 7 7 10 9 7 7 11 13 13 13 13 12 10 12 11 9 7 8 5 5 6 5 3 8 7 3 3 2 3 3 6 9 12 15 18 20 23 25 29 32 30 28
11 10 11 12 11 11 12 12 13 15 18 10 7 6 6 8 9 8 7 7 8 9 9 10 11 7 12 8 7 7 4 6 3 7 10 7 7 7 5 1 8 12 11 12 17 20 22 25 28 30 28 27 28 29
10 10 9 10 10 10 10 10 11 12 10 6 8 10 7 7 6 6 6 7 7 9 11 8 7 8 5 4 4 5 4 7 8 6 5 5 4 6 10 13 13 14 15 16 19 23 28 27 26 27 27 28 29 31
10 9 8 8 9 9 10 9 10 6 7 7 7 8 8 8 7 7 6 5 4 4 5 7 5 7 4 4 6 7 5 6 7 8 11 12 12 12 13 12 14 17 21 25 26 26 26 27 28 29 31 34 36 37
4 5 5 6 8 9 9 9 7 5 8 7 7 8 7 6 6 5 4 3 3 4 4 4 4 4 5 6 5 6 7 8 7 8 11 12 13 14 16 18 21 22 23 24 25 26 27 28 31 33 36 38 41 43
1 2 2 4 5 6 7 5 9 6 11 11 10 8 7 6 6 6 5 5 5 5 4 3 4 5 7 8 9 10 10 10 10 12 14 16 17 18 18 19 20 21 23 24 25 28 31 33 36 39 43 45 47 48
5 5 5 6 7 9 9 6 10 8 12 12 12 11 11 11 11 10 10 9 9 10 10 9 10 10 11 11 12 12 13 13 13 13 14 15 16 17 19 20 22 23 25 27 31 34 38 41 43 44 45 45 45 46
9 9 9 9 8 9 10 11 10 12 12 11 13 14 15 14 15 16 14 14 14 13 13 12 12 13 14 14 13 13 13 14 14 13 14 16 17 18 19 21 23 27 31 35 39 43 44 45 45 46 46 46 46 46
11 11 11 11 9 8 10 13 14 13 11 13 14 15 14 15 16 14 15 15 16 14 13 13 13 14 14 14 14 15 14 15 16 17 18 18 19 21 25 29 33 36 40 44 46 46 46 46 46 47 47 48 48 48
9 8 8 6 7 8 9 10 11 14 16 15 14 13 12 12 11 12 16 18 14 12 13 14 16 15 16 16 16 15 16 17 17 17 18 21 25 30 33 37 40 44 47 48 47 46 46 47 49 51 51 50 48 46
5 6 5 7 9 11 11 13 14 14 15 16 17 16 13 10 11 13 15 14 13 15 16 16 17 17 17 17 16 16 17 18 20 23 26 30 34 37 40 44 46 47 46 45 45 47 49 50 47 45 43 42 41 40
4 4 7 8 10 11 10 12 15 15 18 16 12 13 16 15 13 9 11 11 15 17 15 15 14 15 14 15 16 17 19 22 26 29 33 36 39 42 44 44 42 41 43 46 48 47 44 42 41 41 40 39 37 37
5 8 12 12 13 11 11 14 14 13 12 12 14 15 15 9 8 11 10 11 13 12 14 13 12 13 15 17 20 23 26 29 31 35 37 40 41 40 40 41 43 45 45 43 41 40 41 42 43 42 43 40 39 37
15 17 19 16 14 13 14 15 12 11 10 10 8 6 4 5 5 7 7 8 9 10 11 13 16 19 22 25 26 28 31 33 35 37 36 35 36 38 40 43 42 40 38 37 38 38 42 44 44 42 43 42 41 35
14 15 10 5 6 9 8 7 7 6 5 5 6 8 8 8 9 9 10 11 13 15 17 20 23 26 27 28 29 31 32 31 31 31 31 32 34 38 39 36 35 35 34 34 35 40 41 41 41 41 41 42 38 32
10 5 3 4 4 3 4 4 4 5 6 7 8 9 10 11 12 14 16 18 20 22 25 26 27 28 29 29 28 27 27 27 29 31 34 37 36 34 32 32 34 34 35 35 36 36 36 37 37 38 36 31 29 26
3 5 6 6 7 6 7 7 8 8 9 11 12 14 15 16 17 19 20 22 23 25 26 26 25 25 25 25 25 27 29 30 33 35 33 33 33 34 34 34 35 34 33 34 34 34 35 35 34 32 28 25 23 22
7 8 9 11 11 11 12 12 12 12 12 14 16 17 17 19 21 23 22 22 22 21 21 21 22 23 24 25 25 26 29 32 31 32 34 35 34 33 32 31 30 31 31 30 31 32 32 30 27 24 25 24 23 22
12 12 13 12 11 11 12 12 14 17 18 20 21 21 21 20 22 20 18 18 18 20 22 22 22 23 25 26 27 29 28 30 32 32 32 31 30 29 29 29 29 28 28 29 29 30 29 27 24 22 22 22 21 20

GFSWCAN_700_spd_030.txt.gz
Wind_Speed
55 53 51 47 44 41 39 36 32 30 30 30 30 31 34 37 38 33 28 23 19 21 27 28 23 22 21 20 19 18 17 15 14 17 16 15 10 12 13 18 17 15 9 11 10 9 11 14 16 16 15 15 19 21
50 49 47 45 42 39 37 33 31 32 30 29 27 30 34 40 37 24 22 20 20 21 23 24 22 22 19 18 19 16 13 10 11 11 15 13 15 17 17 18 19 16 19 15 13 11 16 21 26 25 21 22 27 30
46 46 45 41 38 37 34 31 29 32 30 29 28 29 34 38 34 20 13 15 17 18 19 23 22 20 20 20 18 17 16 15 15 15 16 15 15 16 17 17 19 19 18 23 25 25 24 25 27 27 28 30 30 29
43 43 41 38 37 35 32 29 26 28 32 30 30 30 31 33 26 29 16 16 17 18 17 21 21 21 20 20 19 19 18 16 16 17 18 19 20 18 19 20 18 16 21 26 29 28 28 26 26 26 28 29 28 29
39 40 40 38 37 36 32 29 27 25 25 27 31 31 29 28 26 24 21 19 18 19 16 17 18 20 21 21 20 19 18 18 18 20 21 21 21 22 24 24 24 23 24 26 30 24 26 26 27 28 29 30 32 32
40 37 43 39 36 39 31 29 28 26 25 24 23 23 24 24 23 22 21 20 19 20 9 15 17 19 20 20 20 19 20 20 21 21 21 22 22 23 18 21 26 25 25 28 30 29 30 29 29 29 28 28 27 26
37 37 40 38 37 41 34 28 28 27 26 24 24 24 23 22 21 21 20 18 18 16 16 12 10 16 18 18 18 19 19 20 20 22 24 24 25 26 30 32 27 27 27 27 27 28 28 26 28 28 27 27 25 22
36 34 33 30 42 41 35 29 28 27 24 22 22 21 21 20 19 18 16 13 15 15 14 9 8 12 14 16 18 18 19 20 23 25 26 26 28 29 33 31 30 28 28 28 28 28 29 30 30 29 28 27 26 26
37 34 31 29 28 39 35 29 29 25 21 21 19 18 17 17 16 15 15 14 13 14 10 11 13 11 11 13 15 17 20 23 23 25 25 25 28 23 25 31 31 31 32 32 31 31 30 29 27 26 26 28 28 36
28 31 29 27 25 26 33 30 27 27 25 22 20 19 18 17 15 15 15 15 17 17 17 16 14 15 15 15 16 18 19 16 15 19 18 23 27 28 29 30 31 30 28 27 27 28 26 25 23 23 25 33 33 22
30 27 28 27 26 24 23 22 24 25 25 25 23 21 20 17 17 17 15 11 12 11 15 19 20 21 21 20 18 14 11 9 11 14 16 14 19 20 21 21 22 24 23 23 24 23 23 20 22 24 24 21 13 9
33 28 24 22 23 24 23 23 22 22 21 21 20 19 18 16 13 11 10 10 8 10 10 11 16 21 24 22 17 13 15 9 9 10 9 8 18 18 18 18 22 23 21 20 17 17 16 15 12 12 9 8 13 19
31 28 25 26 23 21 18 20 21 21 20 19 18 16 11 12 13 9 11 8 11 14 15 14 13 14 15 17 13 10 9 10 11 6 5 9 15 14 14 15 13 10 10 8 6 3 2 4 7 10 15 19 23 24
14 14 22 27 22 20 19 21 20 20 20 19 17 15 11 8 8 15 16 16 18 16 12 11 11 8 12 9 10 6 8 7 5 6 7 8 9 8 7 9 11 10 11 12 13 15 18 21 21 22 23 24 27 30
13 14 15 13 12 13 15 20 23 24 21 18 13 9 14 15 11 10 14 18 17 14 11 10 9 8 8 7 7 8 5 6 6 6 8 10 9 7 5 4 5 5 7 10 11 15 18 19 20 22 26 29 31 29
12 11 12 13 14 14 14 15 14 15 14 7 6 4 6 8 10 9 10 11 10 9 9 12 11 6 10 6 7 8 5 6 7 9 9 7 9 8 7 7 7 9 12 15 17 18 19 21 24 26 26 27 29 29
10 11 10 10 11 11 12 13 13 15 9 6 6 8 7 8 9 9 10 11 11 13 13 9 7 9 6 6 7 6 7 7 6 4 6 9 9 8 9 10 10 9 11 13 16 20 22 23 24 25 26 27 29 32
10 11 11 10 10 10 10 10 9 7 6 7 6 8 9 8 7 7 7 7 7 9 11 10 8 8 4 4 7 7 6 5 5 7 8 8 7 8 9 11 11 14 16 19 20 22 23 25 27 29 31 33 36 39
8 8 8 8 9 9 9 9 7 3 5 6 6 7 8 7 7 6 5 5 6 7 8 7 6 7 9 9 7 7 6 5 6 7 6 9 10 12 13 14 16 19 20 21 23 24 26 29 32 35 38 42 44 45
5 4 4 3 3 5 4 3 6 3 5 7 8 8 7 6 6 5 5 5 5 5 6 5 6 5 5 6 7 8 8 8 9 10 11 13 13 14 15 18 19 20 22 23 25 27 29 33 37 41 43 45 46 47
3 3 3 3 2 3 3 2 4 3 5 8 9 8 8 8 7 6 7 7 8 9 8 8 9 10 10 10 10 10 10 10 11 13 14 15 16 17 18 19 20 21 22 24 28 33 37 41 45 46 47 47 48 49
7 7 7 7 6 7 7 8 6 8 9 10 12 14 13 13 12 12 12 12 12 12 12 12 13 13 13 13 12 12 12 12 13 14 14 16 17 18 19 18 20 23 28 33 37 41 45 47 48 48 49 50 51 53
11 10 10 9 6 5 5 8 9 10 8 10 11 12 11 12 13 13 16 15 14 15 15 15 14 14 14 14 14 13 13 14 13 14 15 17 18 18 20 23 28 32 36 39 43 46 46 46 46 48 50 50 49 47
10 8 6 3 1 3 5 5 6 6 7 10 11 12 12 12 11 12 14 14 13 13 14 16 16 16 15 16 16 16 15 16 16 17 17 18 20 24 28 32 35 39 42 44 45 44 45 46 47 46 44 43 43 44
6 5 3 4 4 5 8 8 8 10 11 12 12 11 11 10 10 12 14 13 11 12 15 16 17 16 16 16 16 17 16 17 17 18 20 23 26 30 34 37 41 42 42 42 42 44 45 44 41 40 41 43 45 44
5 4 5 7 9 10 10 7 8 10 11 12 9 11 11 10 11 9 13 11 13 13 15 15 13 14 15 15 15 16 17 18 20 23 26 30 32 35 38 40 39 38 41 43 45 44 40 39 39 39 41 42 42 43
2 2 9 11 12 11 11 11 12 13 11 7 10 12 11 5 6 9 11 9 11 12 11 11 12 14 14 14 15 17 21 24 28 30 33 35 38 38 38 38 39 42 44 44 42 39 39 39 39 41 42 41 43 42
6 11 12 14 12 10 9 10 12 12 8 8 9 8 3 3 2 5 6 7 9 9 10 11 14 15 17 20 23 26 28 30 32 34 35 35 33 35 37 40 42 42 40 39 38 39 40 40 40 40 40 40 39 37
11 12 13 8 4 4 7 7 5 5 5 5 6 6 5 6 7 8 8 9 11 12 14 16 19 22 25 28 30 31 32 33 32 31 31 31 33 36 38 38 37 38 38 38 39 39 38 37 36 36 37 36 34 33
6 4 4 4 5 5 6 8 8 7 6 6 7 8 9 10 12 13 15 16 18 19 21 23 26 28 29 29 28 27 26 26 26 28 30 33 35 35 35 36 36 36 35 33 32 32 32 31 32 33 31 29 28 29
4 4 5 6 7 7 9 10 11 12 12 12 13 15 15 16 16 18 19 20 22 23 25 25 25 25 24 24 24 25 26 27 29 31 33 32 32 33 34 33 32 31 31 30 30 28 29 29 30 30 28 25 25 26
8 10 11 13 13 13 14 15 15 16 16 17 17 17 18 19 21 23 21 20 21 21 21 20 20 22 24 24 25 27 28 29 31 29 29 31 31 31 30 30 29 28 27 26 27 29 29 29 28 27 25 23 22 22
12 13 14 15 14 13 13 13 15 17 19 21 22 21 20 20 20 19 17 17 17 18 20 22 22 23 25 27 27 28 29 29 28 29 30 30 29 29 29 28 26 26 27 27 28 28 28 28 27 25 23 21 19 19

GFSWCAN_700_spd_033.txt.gz
Wind_Speed
60 55 52 50 47 45 42 41 38 36 35 35 36 40 42 40 38 34 28 25 20 20 14 26 27 29 31 27 22 19 20 19 15 14 11 11 8 10 10 12 11 10 6 7 8 7 7 4 6 8 14 21 19 17
53 53 50 48 45 43 39 35 32 31 30 32 34 37 39 39 36 34 27 24 20 18 18 26 25 19 23 27 23 20 18 12 15 11 12 8 11 11 13 12 14 13 14 11 11 9 14 20 22 19 20 21 20 23
54 51 48 44 40 37 35 32 30 29 30 30 31 33 35 38 39 36 28 20 18 16 18 27 26 22 21 21 19 19 18 16 16 14 12 11 13 13 14 13 15 15 15 20 21 20 20 23 23 23 22 21 21 25
47 44 40 38 36 34 31 28 29 29 28 27 28 31 36 38 40 39 26 19 18 19 20 26 25 24 22 20 19 18 17 16 14 14 15 16 18 15 15 15 13 16 20 23 25 22 22 21 23 24 24 24 25 24
43 39 37 35 32 30 29 27 28 28 27 26 29 31 33 34 32 32 23 16 16 18 20 23 23 22 21 21 20 19 18 17 17 17 18 17 18 18 20 19 19 19 18 20 22 22 26 26 26 27 27 26 28 28
38 36 34 32 30 29 27 23 35 29 28 27 29 30 30 30 26 21 11 17 17 19 10 20 20 21 21 21 19 18 18 18 18 17 18 20 21 19 12 13 18 21 21 25 26 27 26 26 25 26 26 26 27 27
35 34 34 32 31 29 27 23 27 28 32 31 27 29 28 27 26 26 25 21 19 18 14 14 14 18 18 18 19 20 20 20 20 20 21 21 20 20 23 22 22 24 24 24 25 25 24 25 26 27 27 27 26 27
34 34 33 31 30 31 26 25 26 25 23 24 25 22 22 23 22 21 19 16 18 16 16 10 8 12 16 17 18 19 20 20 21 22 22 23 22 22 20 21 23 24 24 24 26 28 29 29 28 27 26 25 22 22
27 34 35 31 31 34 32 26 24 24 23 23 22 21 20 20 19 18 16 15 17 17 12 12 12 10 11 14 16 18 20 22 22 23 23 22 22 17 20 23 25 27 28 28 28 26 25 24 24 22 19 20 23 25
22 28 29 30 29 35 38 31 24 24 24 21 20 19 17 17 17 16 14 13 13 14 14 11 10 12 11 13 15 17 17 13 13 16 16 20 22 23 23 25 26 26 25 22 23 21 22 24 21 19 19 20 16 15
21 18 15 14 16 25 36 32 26 26 25 22 20 18 14 12 10 9 8 6 8 9 11 15 15 16 17 18 16 11 9 7 8 13 14 10 15 20 20 20 19 20 22 23 25 24 20 18 16 17 15 13 11 8
26 23 19 16 13 15 26 27 28 25 24 21 18 16 16 14 9 8 8 8 6 9 11 13 17 22 23 20 15 11 13 8 8 8 9 7 14 16 17 16 18 20 20 18 17 15 12 9 7 6 8 12 19 23
24 25 24 22 19 16 16 15 15 19 22 22 20 18 10 10 8 8 10 10 12 14 14 15 16 17 17 17 12 8 7 9 8 6 6 12 14 16 13 12 11 11 9 7 6 6 9 12 16 18 19 21 21 21
29 27 23 21 19 18 19 18 16 15 16 18 14 13 10 7 9 16 15 16 14 12 12 14 14 10 13 10 9 6 9 7 6 7 9 12 12 8 6 6 7 6 6 7 7 9 13 16 16 17 19 21 23 22
17 24 27 27 23 24 21 19 19 17 18 13 9 8 10 12 10 9 14 16 15 13 13 12 13 12 9 8 7 7 5 6 7 8 8 9 7 6 6 7 6 4 3 6 9 12 14 14 16 19 21 22 23 25
11 11 11 12 19 22 20 21 18 16 16 11 10 6 7 10 11 12 12 13 12 10 10 10 10 5 8 5 7 8 5 6 6 6 5 4 5 6 5 7 6 8 9 10 11 12 15 17 19 20 21 23 25 27
11 12 11 10 10 10 10 9 9 14 7 6 6 9 7 8 9 9 8 8 8 10 12 8 6 8 5 6 6 5 4 6 6 2 3 4 7 8 9 9 8 8 9 12 14 17 18 19 21 22 24 26 28 31
9 8 9 9 9 10 9 9 8 6 5 7 8 10 11 11 12 12 12 12 13 13 14 11 8 8 4 3 4 4 5 4 2 4 5 7 6 5 6 7 9 11 13 16 17 19 20 22 24 26 29 32 36 39
13 11 9 8 8 8 8 7 5 3 4 6 5 8 9 9 9 9 9 9 9 9 10 8 6 6 9 8 6 5 5 5 4 4 4 5 8 9 11 12 13 15 17 18 19 21 23 26 29 33 37 41 44 46
11 10 9 8 7 6 4 4 4 3 4 5 6 8 8 8 8 8 7 6 7 8 8 6 7 5 4 4 4 6 7 7 7 8 9 10 12 13 14 16 17 18 19 21 22 24 26 30 35 40 44 46 48 47
5 4 4 4 3 3 3 3 3 3 3 5 6 6 6 6 6 5 4 5 6 6 6 7 8 8 8 9 9 10 11 11 12 13 14 14 15 16 17 18 19 21 21 22 25 29 34 39 43 45 46 46 46 48
4 3 4 4 3 3 1 1 0 1 3 3 5 8 8 8 8 8 7 8 9 9 10 11 12 12 12 13 14 14 13 14 14 15 16 16 17 17 19 20 22 22 24 28 32 37 41 44 45 45 46 47 47 45
9 8 6 5 2 1 0 3 2 3 2 3 4 6 6 7 9 10 12 10 11 12 14 14 15 14 14 14 14 13 11 13 15 16 16 17 18 19 20 21 23 27 31 34 38 41 42 43 44 46 46 44 41 39
11 7 5 4 4 4 3 3 2 3 3 4 6 8 9 9 9 9 10 10 11 12 13 15 15 14 15 15 15 14 14 15 15 16 16 17 18 20 22 25 29 32 35 38 40 41 42 44 45 43 40 38 38 39
6 6 6 9 7 8 6 6 5 5 5 5 6 6 6 6 7 8 10 10 10 11 13 13 14 15 16 16 15 15 15 16 16 16 17 18 21 24 28 31 34 37 38 38 39 41 43 42 39 37 37 38 38 38
6 7 5 7 8 7 6 5 4 8 9 6 2 4 5 6 5 5 7 7 9 10 10 9 9 11 12 14 15 15 16 16 16 18 21 24 27 30 33 34 36 37 39 41 42 41 38 37 37 37 37 36 36 37
6 5 7 6 6 3 3 3 4 6 8 4 4 6 4 3 4 5 6 6 5 7 8 9 10 11 11 12 13 14 15 18 21 25 28 30 32 33 35 35 35 38 40 39 38 38 39 39 37 36 34 34 34 34
5 5 7 7 7 6 6 5 5 3 3 3 4 4 3 2 3 5 5 4 5 6 7 8 10 13 14 16 17 20 24 27 30 30 31 31 31 32 33 36 38 38 36 37 38 37 36 35 33 33 32 32 32 32
4 4 6 8 8 9 10 9 7 6 4 5 6 6 6 6 7 7 8 8 9 10 11 13 15 17 20 23 26 28 29 29 28 28 29 30 32 33 35 35 34 34 34 34 35 34 33 33 31 31 32 31 31 29
7 8 7 6 6 5 5 6 6 6 6 7 8 9 9 10 12 13 14 15 16 17 19 20 22 24 25 26 26 25 25 25 27 28 29 30 32 34 32 31 31 32 32 32 31 31 29 29 30 31 31 31 29 27
6 6 6 6 6 7 9 10 11 12 12 12 13 15 15 16 17 17 18 19 20 21 22 21 21 22 21 21 22 24 24 26 28 29 30 32 32 30 30 31 31 30 30 29 28 27 28 29 29 29 28 28 26 24
9 9 10 11 12 12 13 12 13 14 15 15 16 17 17 19 21 23 20 19 19 19 19 18 18 19 22 22 24 25 27 28 29 30 30 30 31 31 31 30 29 28 27 27 28 28 29 28 28 28 27 26 24 22
12 12 13 13 12 12 13 13 15 17 17 17 18 18 18 18 17 14 13 15 16 17 18 19 20 21 22 24 25 26 28 29 30 31 32 31 29 28 27 26 26 27 28 28 28 28 28 28 27 27 26 25 23 21

GFSWCAN_700_spd_036.txt.gz
Wind_Speed
36 41 44 54 57 53 52 55 52 51 52 52 52 52 49 47 45 43 35 28 24 21 16 23 28 33 31 28 26 23 21 20 19 17 13 11 9 12 10 10 7 7 6 7 7 6 5 1 4 6 11 19 18 17
60 65 60 47 50 50 48 47 46 46 47 48 49 49 47 45 43 38 32 29 23 19 16 17 26 27 32 29 26 22 24 16 19 16 13 8 10 9 12 6 9 9 11 8 7 4 11 16 13 16 21 23 22 20
53 55 53 50 47 44 42 40 40 41 42 43 44 45 45 43 40 34 29 23 25 17 16 18 25 26 25 31 26 23 21 19 16 17 13 11 9 8 9 10 11 11 12 14 14 13 13 19 19 21 22 23 22 23
53 50 48 46 42 39 36 35 35 36 38 39 41 42 42 40 37 33 28 23 23 21 17 24 26 23 20 25 28 26 20 18 16 15 15 14 14 12 12 12 11 13 16 17 18 16 17 19 21 24 24 25 27 28
46 43 41 39 37 35 34 35 35 35 35 35 37 39 41 41 37 35 32 26 21 18 14 26 26 23 23 21 18 17 18 18 17 17 16 16 16 15 15 14 16 17 17 16 19 19 22 23 25 26 25 25 25 26
40 38 36 34 33 32 32 33 33 33 34 34 35 37 39 39 36 32 32 20 15 16 12 26 26 27 24 23 21 20 19 18 18 18 17 16 16 15 10 12 14 17 18 19 21 23 25 25 24 24 25 26 28 28
36 34 32 31 30 34 32 32 30 30 30 32 33 34 34 33 33 29 24 18 14 15 10 18 22 24 24 23 22 20 19 18 18 18 18 18 18 17 16 15 18 20 22 25 24 22 22 22 26 28 28 27 26 24
32 32 29 27 25 23 33 31 30 29 29 31 31 31 32 32 29 18 23 13 15 16 14 10 11 21 21 21 21 20 20 20 21 21 20 19 18 19 16 20 21 21 23 24 23 23 26 26 25 24 23 22 21 17
29 30 29 28 24 20 33 25 28 33 31 30 30 30 29 26 27 23 19 18 20 17 16 14 13 12 18 20 20 20 20 20 20 20 20 20 20 15 19 19 20 22 22 22 23 21 20 21 21 22 23 17 17 19
24 25 25 24 26 26 24 20 17 40 26 25 32 31 29 26 22 20 18 20 21 20 16 13 16 14 13 16 18 17 16 13 13 17 18 22 24 23 23 25 25 23 20 17 16 18 20 21 19 17 16 16 14 11
17 19 22 19 20 22 17 30 25 27 23 25 26 22 24 24 23 19 12 14 11 11 16 15 14 14 14 14 15 12 10 7 7 12 15 10 15 20 22 22 19 15 14 14 13 12 12 12 11 10 8 8 8 12
13 15 17 20 13 16 24 26 29 26 25 25 21 20 24 19 10 8 12 10 8 11 11 16 18 17 18 17 15 12 13 7 7 10 9 7 17 18 17 15 12 11 10 8 7 8 8 6 6 7 9 11 11 12
15 13 12 11 11 10 14 31 27 25 27 25 24 22 13 12 8 9 12 13 12 12 12 16 20 23 21 17 12 9 8 9 7 7 8 15 16 12 11 9 6 5 5 6 7 7 6 6 7 8 9 11 12 12
18 16 15 14 11 10 13 13 18 23 22 22 18 12 9 5 9 12 18 15 16 17 18 19 19 14 15 12 10 7 9 7 7 7 10 12 10 10 8 7 6 6 6 5 5 6 8 10 10 12 13 14 16 18
20 19 17 16 14 13 15 15 14 13 15 11 7 7 12 11 11 14 16 16 14 15 14 14 15 14 11 8 7 8 6 6 8 8 7 6 8 8 9 9 9 9 8 8 9 11 12 13 14 15 16 18 19 22
22 24 20 21 19 20 20 18 16 16 19 10 9 10 13 14 15 13 13 15 17 14 13 13 11 7 10 7 7 8 5 6 3 5 5 6 7 10 11 11 10 10 11 11 11 12 13 15 16 17 19 20 23 25
13 8 12 16 22 21 22 21 20 22 14 10 10 12 11 12 13 14 14 12 12 11 14 9 8 9 6 6 7 6 5 5 4 3 4 6 8 11 13 13 12 12 11 12 13 15 16 17 18 20 22 23 26 30
7 8 9 8 6 5 6 4 5 4 6 10 10 6 7 8 8 8 8 9 11 12 13 11 7 9 5 4 5 5 4 3 3 4 5 7 9 11 12 11 11 11 13 15 17 18 19 20 22 24 26 30 34 39
11 8 7 8 9 10 9 8 6 7 10 11 11 12 11 12 13 13 13 12 13 13 13 10 6 6 8 8 6 5 5 5 4 5 6 8 9 9 10 12 13 15 16 18 19 20 22 23 25 29 33 38 42 45
13 13 12 11 10 8 6 7 7 7 11 11 11 11 9 9 8 8 7 7 7 8 8 7 7 5 5 5 6 5 5 6 7 8 9 10 12 13 14 15 16 18 19 20 21 23 25 27 31 35 40 44 46 47
7 7 7 7 6 5 6 6 7 8 10 9 10 10 8 8 8 8 8 7 7 7 6 6 6 6 7 7 8 8 10 11 11 12 12 13 15 15 16 17 18 19 20 23 25 26 29 33 37 41 43 44 45 47
3 2 2 2 2 3 4 5 5 6 6 7 7 7 7 7 8 8 8 9 9 9 9 9 11 11 12 13 13 13 13 14 15 15 16 17 17 17 18 18 20 21 23 25 27 31 34 38 41 42 43 44 46 44
5 4 2 2 2 3 4 3 4 4 4 4 4 4 4 5 7 8 9 10 12 13 13 13 13 13 14 13 14 14 13 14 16 16 17 17 18 18 19 20 22 24 26 29 32 36 38 39 40 42 44 43 41 39
5 1 3 3 3 5 4 4 4 4 3 2 2 1 2 4 5 6 7 8 9 11 13 14 14 15 16 14 15 18 17 16 16 16 16 17 18 19 20 22 24 27 31 34 36 36 37 38 41 42 40 39 38 37
4 6 7 7 5 5 5 7 9 7 6 4 2 0 1 1 3 4 6 8 9 9 11 13 15 14 14 15 14 15 15 15 15 16 17 17 18 20 23 26 29 32 33 33 34 35 38 39 38 37 37 36 33 32
7 7 6 6 7 6 6 6 4 5 5 4 3 2 3 2 3 4 5 5 6 7 7 7 9 11 13 15 15 15 15 15 16 17 17 19 22 26 29 30 31 31 32 33 36 38 36 34 34 33 32 32 31 30
7 6 6 3 2 2 2 2 1 2 3 3 3 4 2 2 2 3 4 4 4 4 6 7 9 10 11 12 12 13 14 15 17 19 23 26 27 28 28 28 29 32 35 37 35 33 32 32 32 32 31 30 30 30
6 6 7 8 9 7 6 4 4 3 3 2 2 1 1 1 2 3 3 3 4 5 6 8 10 11 12 13 15 16 18 21 25 26 26 26 26 27 28 31 33 34 34 32 31 31 31 31 31 30 29 29 30 30
5 6 7 8 9 9 8 6 4 2 0 1 2 3 4 5 6 6 7 8 8 9 10 12 13 15 16 18 20 23 23 23 23 23 24 26 29 30 31 32 33 32 31 30 31 31 30 30 29 28 29 29 29 28
9 7 5 4 3 2 2 2 3 4 5 6 7 8 8 9 10 11 12 13 14 15 16 17 18 19 19 20 20 20 20 21 23 24 26 28 29 31 32 32 31 31 31 30 30 29 28 28 29 29 29 28 28 28
5 4 4 4 4 6 7 9 10 10 10 10 11 12 13 14 15 15 15 16 18 18 18 18 17 18 18 17 18 20 21 23 25 27 28 30 31 31 32 33 32 31 30 28 27 26 26 27 28 28 27 27 27 26
8 8 9 9 10 11 11 10 11 12 12 13 13 15 15 17 18 20 18 16 15 15 16 15 15 16 17 18 20 22 25 26 28 29 31 32 32 31 29 28 27 26 26 26 26 26 27 27 27 27 27 26 26 25
10 11 11 10 11 11 11 11 12 12 12 12 14 14 14 13 13 12 11 12 13 15 16 17 17 17 19 21 22 24 27 30 31 31 29 29 28 28 27 27 27 27 27 27 27 27 27 27 27 26 26 25 24 23

GFSWCAN_700_spd_039.txt.gz
Wind_Speed
36 37 38 36 34 31 39 35 35 44 72 61 65 66 66 62 44 42 36 28 26 29 30 30 31 27 29 25 23 23 20 19 18 17 14 10 9 11 8 7 7 7 8 9 9 7 6 7 2 1 7 16 21 21
33 30 29 35 39 32 38 46 69 56 51 64 66 64 65 57 43 40 32 29 25 28 24 24 30 29 33 27 23 22 17 17 19 13 15 12 10 10 13 6 12 6 9 5 7 3 10 8 14 15 19 22 23 24
39 39 40 42 41 50 59 56 45 53 60 60 59 58 59 53 43 38 32 29 26 24 20 20 31 29 29 33 29 23 23 20 18 19 14 14 9 11 11 12 10 12 12 12 11 4 6 11 18 15 20 21 23 25
56 55 60 57 46 46 44 47 49 49 53 54 55 54 55 50 39 33 28 29 26 22 19 20 27 29 27 31 31 26 24 18 17 15 19 17 13 11 13 10 9 10 11 9 13 12 14 6 14 20 23 25 26 25
47 48 45 42 40 41 43 43 45 47 48 49 51 48 48 46 38 30 27 25 26 21 20 20 21 26 25 25 30 28 22 20 19 19 20 17 16 14 13 13 13 16 12 13 8 17 18 19 27 26 27 26 25 26
42 41 40 40 39 38 37 39 41 43 44 44 43 45 43 41 32 25 22 22 24 24 17 23 26 28 24 23 24 26 25 22 23 21 20 19 17 14 9 13 18 18 20 18 19 20 23 24 29 26 25 27 29 30
38 37 36 34 33 34 36 37 38 39 40 41 41 40 39 38 32 24 21 23 24 13 11 21 25 27 24 24 24 23 21 21 22 22 21 19 18 18 18 14 19 20 21 22 22 21 24 22 24 26 29 28 27 27
34 37 38 36 32 33 34 36 36 37 38 39 40 39 37 34 29 19 13 21 21 11 12 11 14 26 27 26 24 22 23 23 23 22 21 21 20 20 19 21 22 22 26 26 26 23 22 24 25 23 23 23 24 23
28 30 31 34 32 31 32 32 33 35 36 37 36 35 32 30 28 22 13 20 17 9 8 9 15 18 26 25 24 23 22 22 20 22 22 22 22 16 22 23 24 24 26 25 23 22 22 19 19 20 20 17 17 15
21 19 19 33 35 34 33 28 32 33 34 35 36 33 33 31 25 21 18 16 16 15 13 11 13 11 18 26 23 22 20 18 13 19 21 24 25 25 24 26 26 25 23 22 20 17 16 15 14 12 11 10 10 10
20 15 13 24 34 25 29 34 32 34 36 36 34 32 34 32 33 22 11 16 13 11 15 15 14 15 16 19 21 16 11 9 8 13 15 13 20 21 25 27 25 21 15 13 13 12 11 9 8 9 9 9 9 11
11 9 10 12 14 9 16 20 32 28 32 32 29 27 26 21 9 5 9 8 8 11 13 20 18 17 16 16 13 15 11 7 7 10 11 7 21 22 22 21 17 12 11 9 9 8 7 8 8 9 10 10 10 10
9 9 9 17 10 7 21 16 26 33 29 30 26 24 16 11 13 11 15 15 11 15 17 18 21 20 17 16 12 9 9 10 10 8 8 18 18 17 16 14 10 10 9 8 7 7 7 8 8 10 11 11 12 13
10 9 10 10 9 12 23 28 25 27 24 29 21 19 11 9 10 9 17 17 17 16 14 14 17 17 17 13 10 7 10 8 7 7 11 14 13 13 13 10 10 9 8 8 9 9 9 10 12 12 13 14 15 16
6 8 10 10 10 9 14 21 27 29 27 17 12 10 12 10 11 12 14 13 14 15 16 16 17 16 12 8 8 8 6 6 7 10 15 9 12 12 11 12 10 10 10 10 10 11 13 14 15 16 16 17 18 20
8 9 7 9 10 10 10 12 14 15 16 8 7 10 14 11 10 16 17 18 16 15 15 14 11 7 9 7 8 8 6 7 8 8 8 8 10 12 12 12 12 12 12 13 14 15 16 17 18 18 19 20 22 24
9 8 10 9 10 10 12 15 14 14 8 6 11 11 13 14 14 14 14 14 15 15 14 9 7 8 5 6 7 8 9 8 7 6 7 9 10 12 12 13 13 14 15 16 16 16 17 18 19 20 21 23 25 28
9 10 6 14 14 20 19 18 19 7 8 12 13 13 13 12 12 12 12 12 12 12 13 11 9 10 6 5 6 6 5 3 3 5 8 9 11 12 14 16 16 16 15 15 17 18 19 20 21 23 24 26 29 34
10 7 7 7 9 9 6 9 6 8 11 9 9 8 8 7 8 9 9 8 9 10 11 9 5 7 8 7 6 6 6 6 5 7 7 9 11 13 15 15 14 15 16 18 19 21 22 22 24 26 28 31 36 40
12 11 11 9 9 8 4 6 5 6 11 10 11 9 9 9 9 8 7 8 8 9 8 6 6 4 4 5 5 7 7 7 7 7 8 9 11 11 13 15 17 18 19 21 22 22 24 26 27 29 33 37 41 44
7 7 7 7 5 4 6 7 6 9 12 13 11 9 8 7 7 8 8 8 8 7 5 6 5 5 5 6 7 8 9 9 10 10 10 11 12 14 16 18 19 19 21 22 23 24 26 28 31 35 38 41 43 45
3 3 2 2 2 3 4 6 8 10 10 12 11 9 8 8 9 9 9 8 8 7 7 7 7 8 9 9 9 10 10 10 11 13 15 15 16 17 18 19 20 21 22 23 25 26 29 32 36 39 42 43 44 45
1 1 3 3 3 3 5 6 7 7 6 8 8 7 6 7 8 8 7 9 11 11 10 10 10 10 10 11 12 12 13 15 15 16 17 19 19 18 19 19 20 22 23 24 27 30 34 38 40 41 42 43 42 40
3 4 4 3 3 5 5 5 6 6 6 6 4 3 3 4 4 6 7 8 9 10 13 14 14 13 13 14 15 15 14 14 16 16 16 17 18 18 19 20 21 23 25 29 33 36 38 39 39 41 41 39 37 37
2 3 4 6 5 6 7 8 8 7 7 5 4 2 1 2 2 3 5 7 8 9 11 12 15 15 15 15 15 15 15 14 14 14 15 15 17 18 20 22 24 28 31 34 35 36 37 38 39 38 36 35 34 34
5 5 5 6 7 5 6 7 7 7 5 5 4 3 1 1 1 1 2 3 4 6 8 9 9 10 12 12 13 14 15 15 16 16 17 18 19 21 24 28 32 32 31 33 34 36 37 37 35 34 33 33 32 31
7 6 7 6 6 7 6 5 3 3 4 3 2 2 2 1 0 1 2 2 2 3 4 6 7 9 11 12 13 13 14 15 16 17 19 21 25 28 28 29 29 31 33 35 36 37 35 33 32 31 31 30 30 30
8 8 8 8 6 5 5 5 4 3 2 1 1 0 1 2 2 3 4 5 5 6 7 9 10 11 13 14 15 16 17 19 20 23 26 26 26 26 26 29 31 33 34 35 34 33 32 31 31 30 29 29 29 29
7 7 6 7 7 7 6 5 3 2 0 2 3 4 5 6 7 8 9 10 11 11 12 14 15 16 17 18 19 21 23 24 23 23 23 24 27 28 29 31 32 33 34 34 34 33 32 30 29 28 28 28 29 29
8 6 4 3 2 1 1 3 4 5 6 7 9 10 11 11 12 13 14 16 17 17 18 18 19 20 21 21 21 20 20 20 20 22 25 27 29 30 31 33 34 35 34 33 31 30 28 28 27 27 28 28 28 28
5 4 3 4 5 6 8 9 10 10 11 11 12 13 13 15 16 17 17 17 18 19 20 20 19 18 18 18 17 18 19 21 23 25 26 28 31 33 34 33 32 31 30 29 28 28 27 27 28 28 28 28 27 27
8 8 9 10 10 11 11 11 12 13 13 13 13 14 15 17 17 19 18 16 15 15 14 14 15 15 17 18 19 20 22 24 25 28 32 33 34 33 33 32 31 31 30 30 29 29 29 28 28 28 27 27 26 26
9 9 9 10 11 11 11 11 12 12 12 13 15 16 15 13 12 11 11 10 11 13 14 15 16 17 17 19 21 23 25 29 33 35 34 34 33 32 32 31 31 31 30 30 30 29 28 28 27 27 26 25 25 24

GFSWCAN_700_spd_042.txt.gz
Wind_Speed
30 33 36 36 41 41 37 37 37 37 40 40 48 48 60 71 77 65 46 49 23 36 39 45 39 35 30 26 23 32 31 25 21 15 15 10 9 14 9 8 9 7 10 12 12 6 7 11 7 4 11 10 14 21
27 29 32 38 42 39 39 37 35 37 37 42 42 52 69 78 66 39 32 39 16 32 48 50 42 37 33 30 25 24 17 18 14 13 12 13 11 14 15 7 11 7 8 5 7 2 8 8 10 8 14 18 19 20
26 29 32 32 32 34 36 37 36 36 40 46 64 67 87 61 48 38 26 17 18 31 42 39 30 30 26 29 26 22 18 15 14 15 12 13 11 14 13 16 9 10 12 11 11 6 6 7 9 13 20 18 17 21
30 32 33 34 34 30 28 29 38 42 40 54 65 77 63 62 37 40 31 23 21 31 37 35 31 32 33 30 19 22 17 15 12 12 12 14 13 11 12 9 11 11 10 8 10 12 11 12 20 21 20 23 24 23
37 36 33 30 31 40 42 42 46 49 57 67 63 70 65 38 23 17 16 21 28 22 27 29 29 31 28 26 28 22 19 18 16 15 17 18 15 13 11 12 14 14 11 13 13 19 18 25 25 23 25 27 24 23
38 37 36 41 51 42 45 46 49 45 48 55 66 56 33 33 31 23 18 19 18 14 26 26 29 31 29 26 26 28 22 19 22 19 20 20 17 14 10 16 17 17 17 18 22 22 25 25 27 26 25 23 24 27
36 34 35 37 40 45 41 43 49 48 54 55 55 45 34 35 30 30 18 19 18 20 11 18 22 27 30 27 26 28 30 28 25 22 23 21 20 18 18 16 16 19 21 21 21 22 25 27 28 24 24 25 26 24
37 29 29 32 32 35 39 42 41 42 45 49 51 43 31 30 28 15 12 14 18 19 14 13 14 27 30 29 27 28 29 27 24 22 22 23 21 20 20 20 23 23 25 24 23 25 27 24 23 24 25 23 22 22
28 27 31 31 32 33 34 35 33 37 38 39 37 41 32 28 22 11 12 10 20 16 6 10 20 27 29 27 28 25 25 24 21 25 24 22 22 17 20 24 27 27 27 27 24 23 23 23 22 21 20 19 16 14
35 29 29 28 33 31 30 31 32 33 33 34 34 37 30 25 15 14 12 10 10 12 4 8 18 21 30 29 28 25 22 19 14 21 22 25 27 27 25 26 26 26 26 24 23 22 22 20 17 17 15 12 12 12
26 38 35 31 34 35 31 32 32 34 34 36 38 29 24 22 18 13 7 8 13 8 6 10 17 12 21 29 27 20 16 12 9 14 17 15 24 25 26 28 27 27 26 24 21 17 15 14 12 10 11 11 11 12
20 26 34 34 32 31 32 34 33 34 37 36 30 21 22 19 9 7 10 8 8 8 11 16 15 15 16 20 14 20 10 9 7 10 12 8 22 19 21 22 23 23 19 17 15 13 11 9 9 10 10 11 11 12
14 13 18 18 22 34 39 32 32 33 32 29 24 23 15 15 6 6 9 9 10 13 12 19 18 17 16 16 11 10 9 10 9 8 8 16 15 18 19 19 21 17 14 13 11 10 10 10 10 9 10 12 13 14
13 15 12 8 9 14 31 34 31 29 28 24 18 18 9 9 9 9 15 12 11 9 14 17 20 18 15 15 8 7 9 7 8 7 12 13 15 17 17 19 16 13 14 12 11 10 10 10 10 11 13 15 16 16
9 9 8 7 7 8 10 19 33 34 33 18 9 7 9 9 8 10 11 16 16 14 16 17 16 14 13 8 7 7 6 6 7 9 14 12 13 16 16 15 11 13 12 11 11 11 11 11 13 14 15 16 17 19
3 4 5 6 6 5 10 16 17 21 17 5 5 7 12 10 13 15 14 15 14 15 13 14 11 8 10 7 8 8 5 6 11 11 11 11 11 12 14 11 13 14 13 11 12 12 13 14 16 17 18 20 22 22
7 3 6 9 9 8 10 12 15 18 9 8 9 10 11 13 10 11 10 10 11 12 13 8 7 7 6 6 7 8 10 11 11 9 7 7 8 11 12 12 13 13 13 13 13 14 16 17 18 20 21 21 24 28
13 13 2 1 4 5 8 12 14 7 6 10 13 12 11 10 11 10 10 9 9 10 10 8 7 8 5 5 7 7 7 6 5 5 6 9 11 12 12 14 14 13 14 15 16 17 17 19 21 21 22 24 27 30
16 13 13 14 11 5 16 11 9 9 11 12 12 10 10 10 11 10 9 9 9 9 9 7 4 6 6 7 5 5 5 4 3 5 9 11 12 13 14 14 14 15 15 16 17 18 19 21 22 23 25 28 29 32
12 11 11 9 11 10 10 10 12 10 11 11 9 6 4 3 2 1 1 2 3 3 4 3 4 5 4 4 4 5 4 5 6 7 8 9 11 12 14 16 15 14 16 18 19 20 22 23 23 26 27 30 33 38
9 9 8 8 7 6 8 8 9 10 9 9 6 4 3 4 4 4 5 5 5 5 8 7 6 6 6 6 6 5 6 7 8 9 9 8 10 12 12 13 16 20 20 20 20 22 24 25 27 28 31 35 38 41
4 4 3 3 4 5 5 5 8 9 10 11 9 7 6 5 5 6 6 6 6 7 7 7 7 6 6 6 7 7 7 8 9 10 10 10 12 13 14 17 19 20 20 22 23 24 25 26 29 33 37 39 41 42
5 4 3 2 1 3 6 7 8 7 6 9 7 5 4 4 4 4 4 4 5 5 6 6 7 7 8 9 10 10 10 11 11 12 14 14 15 16 17 19 20 21 21 22 23 25 28 31 35 37 39 40 42 42
5 2 1 2 1 4 5 4 6 6 7 6 5 3 3 2 3 3 4 4 5 6 6 8 8 9 9 10 11 12 14 14 14 13 14 15 15 16 17 18 19 20 22 24 26 29 33 36 37 38 40 41 40 38
2 4 5 6 5 6 6 7 7 6 7 5 4 3 3 2 2 2 1 2 4 5 7 8 9 11 12 13 14 14 13 14 15 14 15 16 17 18 19 20 21 23 25 28 32 34 35 36 37 39 38 38 37 35
5 6 5 6 7 5 6 8 7 8 7 6 5 4 4 3 2 2 1 1 3 5 6 8 9 10 10 11 11 12 13 15 16 17 17 18 19 20 21 23 26 27 30 31 32 33 35 37 37 36 36 35 34 33
8 7 9 9 10 10 10 8 6 6 5 4 4 4 4 2 1 0 2 3 4 4 5 7 8 9 10 11 12 14 15 15 16 17 18 19 21 24 26 28 29 30 31 33 34 35 35 36 36 36 35 34 33 31
10 10 10 8 6 5 5 5 5 4 3 3 3 1 1 1 2 4 5 6 7 8 9 10 11 12 13 14 15 16 17 18 20 21 23 26 26 25 25 27 28 30 33 34 34 36 36 36 36 34 33 31 29 29
11 10 9 9 8 8 7 6 5 3 2 2 3 4 4 6 7 8 10 10 11 12 13 15 16 17 18 19 20 21 22 23 23 23 23 25 26 26 27 29 31 32 34 35 36 35 34 32 31 30 29 28 28 28
9 8 6 6 5 4 4 5 5 7 7 8 10 10 11 12 13 13 14 15 16 18 19 19 20 21 22 22 22 21 21 20 20 21 23 25 27 29 31 33 35 36 35 35 34 33 32 31 30 30 30 29 29 29
6 7 6 7 7 8 9 11 11 11 11 12 13 13 13 14 14 15 16 17 18 19 20 20 20 19 18 19 19 20 19 21 22 24 26 28 30 33 36 37 36 35 34 34 33 32 32 31 31 30 30 29 29 28
9 9 10 11 11 10 11 11 12 13 15 13 12 13 14 15 15 16 15 14 14 13 13 14 15 16 17 19 20 20 22 24 26 28 30 34 37 38 37 36 35 34 34 33 33 32 32 31 30 29 28 28 27 26
9 10 10 10 11 10 10 11 11 12 13 13 14 14 13 12 10 9 11 11 12 13 14 15 16 17 18 20 23 25 27 29 33 37 38 36 36 36 35 35 34 34 33 32 31 31 30 29 28 27 26 25 24 24

GFSWCAN_700_spd_045.txt.gz
Wind_Speed
31 33 36 35 34 33 36 41 37 36 31 40 42 44 50 48 76 74 71 49 37 19 32 35 37 46 53 47 41 37 38 38 29 30 25 11 11 19 12 19 17 14 15 16 13 10 9 13 14 12 12 16 15 14
27 29 31 32 32 36 39 41 38 34 33 37 43 49 55 48 69 72 61 66 31 24 24 33 42 50 53 47 39 34 40 43 18 25 16 19 15 23 19 13 11 12 11 10 8 5 8 12 15 14 12 14 15 21
21 25 26 29 35 37 38 38 38 33 33 35 39 44 51 44 64 66 64 47 44 24 19 37 40 41 37 54 43 29 33 31 20 22 21 16 20 20 20 17 17 14 14 11 10 5 11 18 18 18 18 18 19 18
21 24 26 29 34 35 31 34 36 37 36 40 41 36 43 40 68 71 55 51 34 24 24 32 53 30 28 27 27 32 42 26 23 18 16 14 16 14 18 15 18 18 17 16 14 14 18 18 19 21 22 21 19 21
23 24 25 29 32 30 31 35 34 36 39 40 37 42 38 56 68 67 53 42 24 22 12 27 34 25 27 36 36 41 24 23 20 17 18 15 16 14 15 17 18 19 19 18 20 23 25 26 26 25 23 21 23 23
20 19 22 25 30 34 35 32 30 34 38 43 42 40 55 59 75 68 42 35 18 25 15 25 36 32 26 22 35 38 21 21 20 18 18 18 18 18 15 19 18 18 18 19 20 20 22 22 23 23 23 24 24 23
32 30 30 32 27 25 29 30 32 32 37 40 42 46 51 55 77 63 30 10 20 25 22 27 25 29 31 27 23 23 27 26 22 22 23 22 19 20 20 19 15 17 17 20 22 22 23 22 22 23 23 24 23 22
39 39 37 34 37 37 40 40 35 39 36 38 54 66 69 50 40 19 21 17 12 13 25 21 17 28 33 33 29 30 32 29 25 24 23 21 20 24 20 21 17 19 19 21 23 24 23 23 22 24 23 23 23 21
36 40 41 41 35 36 36 35 35 32 35 51 42 54 34 26 15 20 19 15 16 17 13 14 25 25 31 35 31 29 28 28 25 26 24 21 25 19 19 18 20 23 23 23 23 23 23 23 23 21 22 22 19 15
27 30 35 32 31 36 39 36 34 38 36 37 42 26 17 23 20 24 18 11 11 11 11 10 20 23 30 31 29 26 23 19 16 21 21 25 24 24 22 21 21 24 24 23 24 23 22 24 23 20 18 14 12 11
26 27 26 31 31 32 31 32 36 34 28 25 24 23 24 22 21 16 12 7 6 9 7 8 19 19 27 29 28 23 14 14 9 14 17 16 26 25 24 25 25 27 26 25 24 23 22 21 19 14 11 11 11 11
22 24 26 28 29 29 27 26 28 28 28 26 18 24 23 15 8 6 9 8 6 9 9 7 15 16 24 26 15 19 9 10 7 12 14 11 18 19 20 23 26 26 25 25 23 18 16 15 10 10 10 10 10 10
31 27 31 34 26 28 26 25 26 24 20 18 15 12 9 5 3 5 6 7 7 12 15 8 13 14 16 14 9 10 8 9 6 8 7 8 11 13 18 21 21 22 22 18 13 10 10 12 11 10 10 9 11 12
24 22 24 33 38 38 33 28 27 21 20 13 7 7 3 2 3 4 9 9 6 11 14 19 12 9 12 13 7 6 7 8 8 8 9 12 14 15 19 20 20 20 16 9 13 13 12 10 9 8 10 11 12 13
19 18 21 18 29 31 29 29 24 21 19 11 7 5 6 4 7 7 10 11 12 10 12 17 22 12 14 7 7 6 8 6 7 9 10 10 12 15 18 17 16 14 11 15 14 12 9 8 8 10 11 13 14 15
11 11 12 13 13 18 26 28 28 27 18 10 7 8 12 10 10 11 12 13 14 16 19 18 13 7 7 6 7 7 5 6 6 8 8 11 12 13 12 11 13 12 13 12 10 8 7 9 11 12 13 15 16 18
12 12 11 11 9 7 9 14 24 25 9 8 11 11 10 10 10 11 8 10 13 16 17 10 8 6 5 5 7 7 8 8 7 7 8 8 9 7 10 12 10 10 11 10 9 10 11 12 14 14 16 19 20 20
13 13 12 11 11 9 9 10 11 5 8 12 12 11 10 10 10 10 11 11 11 13 13 8 7 9 6 7 7 6 5 5 6 5 7 8 8 8 9 11 11 10 9 10 11 12 14 15 16 17 19 21 23 25
19 18 14 9 9 11 12 10 7 8 12 11 11 10 9 9 9 8 8 8 8 9 9 10 5 7 7 7 5 5 7 8 7 7 8 10 11 11 10 9 9 10 11 11 12 14 16 18 19 20 22 23 25 27
17 16 14 13 11 9 9 8 10 11 17 16 13 11 10 10 7 6 6 7 7 8 7 7 12 10 8 7 8 8 7 6 5 7 10 11 10 10 10 10 10 11 14 15 16 18 19 20 21 23 24 25 27 29
12 12 12 14 12 15 18 13 13 15 14 11 8 6 8 5 4 5 4 5 2 6 15 13 11 10 8 7 6 4 4 4 5 7 7 7 8 11 11 13 15 15 16 18 21 23 22 22 25 25 26 27 30 35
9 9 9 9 9 12 10 9 13 13 11 11 7 4 5 5 6 6 7 4 11 13 13 11 10 9 8 6 5 4 4 3 4 6 8 9 10 11 12 14 15 17 20 22 21 21 24 25 26 27 29 32 35 37
7 7 6 6 6 6 9 10 10 10 8 9 7 6 7 8 8 7 7 10 13 11 9 8 8 9 8 8 7 6 7 8 8 8 9 11 12 13 15 16 17 18 19 21 22 23 25 26 28 30 33 35 37 38
6 4 5 4 5 6 6 6 7 7 7 7 6 6 7 7 6 5 8 8 6 4 3 5 6 6 7 8 9 9 10 11 13 14 14 13 13 14 15 17 19 20 21 22 24 25 27 30 33 35 36 37 39 38
4 6 6 8 7 7 7 9 8 8 9 7 6 7 5 5 4 5 4 5 3 2 3 4 5 6 7 9 10 11 12 12 13 14 14 14 15 16 18 19 20 21 23 25 26 29 32 33 34 35 37 38 38 37
7 9 6 6 8 5 6 8 9 12 10 9 8 8 8 4 4 4 4 4 2 3 4 5 5 6 6 7 7 9 10 10 12 14 16 17 18 19 20 21 21 24 26 28 30 31 32 34 36 36 36 37 37 36
10 10 14 14 13 12 13 11 9 8 8 7 8 7 4 2 3 3 3 3 3 4 5 6 6 7 8 9 11 12 13 15 15 16 17 18 19 21 23 26 28 29 29 29 31 33 34 35 36 36 36 35 34 33
15 13 14 11 10 9 8 9 9 8 7 6 4 2 2 1 2 1 3 4 5 7 8 9 10 11 12 13 15 16 17 19 20 21 22 22 23 23 24 25 25 27 30 32 33 34 35 35 35 34 34 32 31 30
15 13 13 12 10 10 11 10 8 7 5 4 4 3 3 4 5 6 7 9 11 11 12 14 15 17 17 19 19 20 21 21 21 22 24 24 24 23 25 28 29 31 33 35 37 37 36 35 34 32 32 31 30 30
11 9 8 8 7 7 6 6 6 7 7 7 7 8 8 8 9 10 10 12 13 15 16 16 17 19 19 18 18 18 18 19 20 21 22 24 27 28 30 32 34 36 38 38 36 35 34 33 32 32 31 31 31 30
9 9 9 9 9 8 9 9 8 8 9 10 9 9 9 9 9 10 10 12 14 15 13 13 13 13 14 16 16 17 18 19 21 23 25 28 31 33 36 39 40 38 37 36 35 34 33 32 32 31 30 29 28 27
9 10 10 10 10 9 8 7 8 11 13 10 10 9 9 8 9 9 8 8 9 10 10 12 13 14 16 18 19 21 23 25 27 29 31 35 37 37 37 37 36 36 35 34 33 32 31 30 29 28 27 26 25 24
9 10 10 10 10 9 9 10 10 10 10 10 11 9 8 6 5 7 8 9 10 11 12 14 16 19 21 23 25 27 30 31 32 33 34 34 34 34 34 34 34 33 32 32 31 30 29 28 27 25 25 24 23 23

GFSWCAN_700_spd_048.txt.gz
Wind_Speed
30 32 30 31 34 33 35 40 42 40 39 38 40 48 70 65 60 60 73 54 52 36 29 29 31 41 31 39 49 47 43 41 38 33 34 19 14 26 24 23 26 26 25 21 20 14 13 17 21 24 18 18 17 15
28 28 33 34 31 30 31 32 34 35 36 33 37 40 59 58 57 59 75 63 42 29 33 30 35 39 45 42 47 45 45 37 29 34 24 26 21 22 23 21 22 20 22 21 17 12 14 13 20 20 20 15 11 12
26 28 31 31 30 29 33 34 32 30 35 36 38 49 56 54 49 58 77 69 48 30 26 32 34 40 40 42 45 42 45 41 35 36 35 20 23 25 25 24 21 22 16 16 17 14 13 14 14 14 15 14 13 15
24 24 26 28 28 35 35 37 34 31 38 41 46 48 48 48 47 50 73 74 54 35 26 13 27 28 39 37 40 43 38 37 39 36 40 35 20 24 24 20 25 24 21 20 21 17 18 17 18 18 19 19 20 20
22 22 25 28 35 40 40 40 36 36 33 39 38 45 53 42 45 43 67 62 55 42 10 23 25 27 33 32 33 37 35 36 34 33 41 26 26 22 25 26 24 24 24 27 27 23 22 21 22 23 23 22 23 24
22 22 29 35 36 36 37 36 34 35 34 32 34 34 29 34 28 47 65 51 56 39 18 12 21 28 33 36 36 42 45 32 35 31 29 29 30 22 22 25 23 23 24 23 22 20 20 22 23 24 24 24 24 25
24 25 28 35 35 36 39 37 34 34 29 32 34 29 31 32 35 60 55 52 52 38 30 18 19 30 42 36 41 46 39 47 41 33 29 31 26 24 21 24 21 21 19 19 19 20 22 23 24 25 26 26 26 25
23 25 27 28 27 32 36 33 33 32 32 32 27 27 27 24 45 58 41 39 57 40 28 16 15 16 32 39 41 39 26 28 34 27 29 27 23 26 19 24 19 17 16 17 20 20 22 23 24 25 25 25 25 23
43 39 33 30 31 34 31 30 29 28 31 26 24 22 22 30 50 50 40 16 10 20 12 13 18 21 35 30 33 29 29 30 22 28 26 25 27 20 23 21 21 21 19 19 21 23 24 25 25 25 25 25 22 21
37 38 42 42 39 40 36 45 42 41 38 38 33 32 29 52 55 33 25 8 11 7 6 13 22 20 28 29 28 30 23 20 17 24 30 26 29 28 24 22 21 21 22 22 25 25 24 24 23 22 22 22 21 18
37 38 42 41 40 41 43 41 38 36 32 35 32 36 34 19 35 29 7 8 7 5 7 12 18 18 26 30 29 23 16 17 14 18 23 24 27 27 25 24 25 25 25 27 27 26 24 23 22 21 20 19 17 15
30 36 36 34 35 30 34 34 22 24 28 24 30 29 19 10 7 6 11 10 7 8 12 12 14 18 20 26 17 20 16 11 8 16 19 12 20 24 25 27 28 28 28 26 25 26 24 22 20 16 15 15 13 12
27 28 30 32 32 29 31 27 21 23 19 35 28 18 9 6 5 8 8 10 9 17 19 16 18 18 18 17 12 11 9 12 7 12 8 15 18 21 22 25 27 26 25 23 22 19 16 14 15 15 15 13 9 9
25 23 28 28 31 36 33 27 20 18 19 16 9 9 5 4 5 7 10 12 12 18 16 18 17 14 19 20 8 7 9 10 11 10 13 13 16 18 21 20 19 18 19 17 14 13 15 16 17 14 11 9 9 9
28 24 25 30 26 23 20 16 18 16 10 6 6 5 5 8 10 12 12 12 13 15 20 20 16 11 10 5 7 6 10 7 9 11 10 14 16 15 15 14 13 12 12 10 13 17 17 15 12 10 8 8 8 10
16 21 20 19 18 20 19 20 19 13 7 6 6 12 11 10 12 11 14 14 14 12 15 16 13 6 9 6 7 6 6 6 8 8 9 9 9 10 10 10 8 8 10 11 12 12 12 11 10 8 7 8 10 13
17 14 15 16 16 16 14 16 15 8 2 5 10 11 10 9 10 11 14 16 13 13 17 10 9 7 6 6 7 7 7 7 8 7 7 7 7 7 6 8 10 8 8 10 12 13 10 6 6 8 9 12 15 17
8 10 12 13 12 11 14 18 17 4 8 11 10 9 8 8 7 8 8 10 13 17 17 11 9 8 6 5 5 5 5 6 7 7 6 8 9 9 8 8 8 9 11 12 10 7 6 7 9 11 14 16 19 21
13 8 5 6 8 11 16 11 8 10 17 15 11 8 8 8 7 6 7 7 9 11 12 11 5 7 6 7 6 6 6 6 8 12 13 11 8 7 7 9 10 9 8 6 6 8 9 10 13 16 19 21 22 23
17 16 13 9 6 10 6 9 13 13 19 17 12 10 9 9 7 5 5 6 7 9 8 8 13 12 12 12 11 11 10 9 6 7 11 12 10 8 7 5 4 5 6 9 12 13 13 15 19 21 22 24 26 28
14 14 15 14 12 6 8 8 11 19 19 15 10 9 11 8 7 7 8 8 3 16 22 17 13 12 11 10 10 9 9 8 7 4 4 4 4 4 5 7 9 11 13 15 14 16 18 21 23 23 24 27 30 31
10 11 11 9 15 18 15 16 15 13 12 11 8 8 9 9 8 7 7 4 14 20 16 12 12 10 8 6 5 5 5 4 4 4 5 6 7 9 10 12 13 15 17 18 20 20 22 24 25 27 29 30 32 33
7 7 5 8 8 8 14 15 13 12 8 11 11 9 10 9 8 7 8 16 17 13 11 10 9 9 8 7 5 4 5 6 6 7 7 9 10 12 14 16 18 18 18 19 21 22 24 27 27 29 31 33 35 37
8 5 7 5 7 7 7 8 10 8 8 9 7 9 10 9 6 8 14 13 11 8 4 3 3 3 4 5 5 5 6 7 8 9 10 12 13 15 16 17 18 20 21 23 24 26 27 29 30 31 34 36 37 37
6 8 7 10 7 8 8 12 10 10 12 9 9 9 7 5 4 9 8 7 6 4 2 2 3 5 6 7 7 9 10 11 11 12 13 14 15 16 18 19 21 23 24 26 27 29 30 31 33 35 36 37 37 37
9 10 7 8 11 7 7 9 10 12 10 10 10 9 7 6 5 7 8 5 4 3 2 1 1 2 3 4 5 7 9 10 12 13 14 16 17 18 20 21 23 24 26 28 29 31 32 33 34 35 36 37 38 38
13 13 15 15 13 12 14 12 11 9 11 9 8 5 2 2 3 5 5 4 3 2 3 3 4 5 6 7 8 10 11 12 14 16 17 19 20 22 24 25 27 28 28 29 30 31 32 34 35 37 38 38 38 37
21 19 16 15 12 13 11 10 9 8 7 7 5 2 1 2 3 2 1 0 2 4 5 7 8 9 11 12 14 16 17 17 18 19 20 21 22 23 24 25 26 28 29 30 32 34 36 37 38 38 37 36 35 34
19 17 13 12 10 10 10 10 7 6 4 3 2 1 0 1 1 3 4 5 5 7 9 10 12 14 15 16 16 17 18 18 18 18 18 19 20 22 25 27 29 31 34 36 38 40 41 40 39 37 36 35 34 33
13 10 8 8 7 7 6 5 5 5 5 5 5 4 4 4 4 5 6 7 8 10 12 14 14 12 11 12 13 14 16 18 20 21 23 25 27 28 31 33 36 38 40 39 38 37 37 37 36 35 34 33 32 32
11 10 10 10 9 7 6 5 5 5 5 5 5 5 5 4 4 6 7 8 7 8 9 9 10 12 13 13 15 16 17 21 23 25 28 31 33 35 36 36 36 37 37 36 36 35 35 34 33 32 30 29 29 28
10 10 10 10 9 7 8 8 10 10 7 7 6 6 6 5 4 4 4 4 5 6 8 10 11 13 16 18 20 22 24 25 26 27 27 29 30 32 33 34 35 35 35 35 35 35 34 33 31 29 27 26 25 24
9 10 10 10 8 6 7 7 7 8 8 8 6 3 2 2 2 3 4 5 6 8 11 13 15 18 20 21 22 23 24 25 27 28 30 31 32 32 32 32 32 32 33 33 34 33 32 31 29 27 25 24 23 23

GFSWCAN_700_spd_051.txt.gz
Wind_Speed
26 30 29 31 31 31 36 40 45 46 46 47 47 48 44 59 76 63 46 61 61 31 35 28 35 34 40 38 31 26 33 42 40 37 29 24 17 26 28 27 30 32 28 27 26 19 15 17 20 24 22 21 14 15
27 30 31 32 34 32 37 41 43 45 41 41 44 47 48 65 47 59 48 61 63 42 22 39 38 35 30 27 34 31 35 27 37 39 32 30 24 21 28 28 29 31 33 30 23 21 18 11 14 23 27 19 14 11
27 29 30 29 29 29 30 32 34 33 35 31 39 47 52 46 40 60 38 58 57 53 31 21 28 35 35 41 40 33 33 29 24 35 31 26 19 27 21 32 27 32 25 31 25 26 25 21 18 16 18 17 13 13
28 29 30 28 29 28 29 32 35 33 33 30 38 42 46 50 54 56 57 61 43 27 27 23 25 26 30 32 41 39 29 34 26 33 36 30 27 26 29 22 23 26 26 29 30 23 19 18 17 16 16 16 15 16
23 26 25 28 29 28 27 28 29 29 30 28 35 36 37 44 47 55 54 57 48 39 9 29 27 29 27 28 34 39 33 34 33 34 37 34 36 30 27 27 30 35 36 37 35 26 22 17 15 17 17 18 19 21
20 24 25 30 31 33 30 28 28 29 28 31 37 37 39 40 45 54 48 45 60 49 23 7 22 18 20 24 31 35 33 33 36 33 33 36 37 34 32 38 33 32 32 29 27 20 18 18 19 19 21 23 25 26
23 24 30 34 33 33 33 32 32 35 38 42 42 47 46 36 40 37 34 43 58 46 34 24 15 19 23 22 31 31 34 36 38 37 37 32 34 29 29 27 26 35 33 26 23 21 21 20 20 21 24 25 26 27
29 31 34 37 37 33 32 32 32 32 33 35 36 33 38 30 23 19 18 41 50 46 36 16 12 10 16 30 34 37 35 36 36 34 33 33 30 31 26 30 24 25 26 25 23 22 20 19 21 23 25 26 26 26
32 35 38 37 34 32 29 30 29 28 31 31 25 24 33 28 23 28 21 25 34 37 26 24 16 18 17 20 38 38 34 43 35 42 42 35 30 20 28 14 21 21 21 20 20 21 22 24 24 25 26 26 27 26
28 30 32 37 34 28 24 27 26 31 30 24 24 24 22 17 39 31 32 22 24 26 34 26 18 26 23 24 21 22 42 25 22 28 43 30 36 38 35 27 23 22 23 23 23 24 25 26 27 27 27 27 27 25
42 40 36 35 38 37 34 33 34 32 28 27 29 14 21 24 33 17 11 12 15 15 28 44 40 20 22 25 30 9 18 18 9 9 15 9 26 28 27 24 22 22 26 30 31 31 29 28 25 25 26 25 24 23
38 45 50 51 44 42 39 37 37 35 27 17 16 26 31 28 20 15 6 9 12 13 16 23 26 23 17 18 12 10 8 9 5 11 14 11 24 26 27 27 26 29 33 34 32 28 25 24 24 25 24 22 22 22
37 39 40 41 41 43 42 37 32 30 24 22 32 28 24 9 11 12 11 9 9 18 26 26 23 22 21 19 7 10 9 10 6 11 8 12 18 24 27 31 33 32 31 27 24 23 25 26 24 21 18 20 22 21
31 35 37 31 27 23 25 28 31 18 16 15 14 9 6 7 8 9 12 12 11 13 21 25 24 16 18 16 8 5 7 9 11 10 10 11 18 22 23 24 25 25 24 23 23 22 19 17 16 17 18 18 17 15
24 28 27 26 25 26 31 29 14 16 12 5 5 5 8 10 15 13 13 11 14 16 20 20 12 11 19 9 8 6 9 7 9 9 13 16 13 12 17 20 21 19 16 15 15 13 13 16 16 15 14 13 12 11
26 31 22 22 25 24 15 10 10 9 6 5 7 14 12 10 13 14 14 14 16 19 21 15 7 5 4 5 6 4 6 4 6 9 8 8 14 16 16 14 11 9 11 11 9 12 14 14 14 15 14 12 9 8
10 17 19 19 22 22 17 14 11 5 4 6 9 9 10 10 9 10 12 15 18 18 17 8 6 5 4 3 4 4 4 4 6 9 9 8 8 9 10 9 8 9 8 8 8 11 14 15 14 12 9 9 9 11
6 5 7 12 12 14 15 14 8 5 14 15 11 8 6 6 6 7 10 13 12 13 14 9 7 7 5 4 4 6 6 7 9 9 8 8 9 9 8 9 12 10 9 11 13 13 13 13 10 9 9 10 13 15
7 6 6 5 6 9 9 6 6 12 17 16 11 8 7 7 6 5 6 7 9 10 11 9 4 7 8 9 7 5 5 5 7 11 14 12 8 7 9 10 10 9 9 9 10 11 10 9 11 11 12 15 18 20
17 15 8 7 10 10 7 11 18 13 17 16 12 10 9 8 6 4 5 5 5 7 7 10 17 15 13 11 11 11 11 12 13 8 12 13 11 9 8 7 6 6 6 6 7 9 12 14 15 16 18 20 22 23
15 16 18 13 8 7 11 10 15 18 17 17 13 12 16 13 10 8 7 5 4 17 25 20 16 14 13 11 12 13 13 10 8 4 5 7 6 5 3 2 3 4 6 8 12 15 18 20 20 21 21 22 24 27
10 13 10 10 17 22 17 18 16 14 14 12 11 11 13 13 11 12 13 10 24 25 20 15 13 11 9 9 10 9 10 8 7 6 3 2 1 3 5 7 10 12 15 16 18 20 22 23 24 25 25 26 28 30
9 9 6 9 10 8 15 16 15 13 7 10 9 8 8 8 7 6 11 20 20 18 13 10 10 9 8 8 7 6 7 5 4 4 4 4 5 7 10 13 16 18 19 19 20 21 22 24 26 27 29 31 32 34
10 5 8 7 9 9 7 7 7 6 7 6 6 10 8 7 7 10 16 15 13 11 7 6 6 5 4 3 2 3 4 6 6 6 6 8 10 12 14 16 17 19 20 22 23 24 25 27 29 31 33 34 35 37
6 7 7 10 8 7 8 10 8 8 11 9 9 8 4 3 4 10 10 9 7 5 4 3 2 2 2 2 2 3 4 5 7 9 10 12 13 15 17 18 20 22 24 25 27 28 30 31 33 34 36 37 37 38
8 9 6 7 10 7 7 9 9 10 8 8 8 7 6 4 4 6 7 6 5 3 3 2 2 2 3 4 5 6 7 8 9 11 12 14 16 18 19 21 22 24 26 28 30 32 33 34 35 36 37 38 40 40
13 13 17 17 15 14 15 14 10 9 9 7 7 4 3 2 3 7 7 5 4 3 2 0 1 2 4 5 7 8 10 12 14 16 17 19 20 21 22 23 25 26 28 29 30 32 34 36 38 39 41 42 43 43
23 20 17 16 13 12 10 10 9 7 6 4 2 1 1 1 6 7 5 4 3 2 3 5 6 8 10 11 12 13 15 16 17 17 18 19 20 22 23 25 27 29 31 33 35 37 39 41 42 43 42 40 39 38
20 17 13 11 8 8 8 7 6 4 3 1 1 0 1 2 4 4 4 5 6 6 7 8 10 11 12 13 13 12 12 13 15 16 18 20 22 24 27 29 31 33 35 37 39 40 40 40 40 40 38 37 36 34
14 11 8 7 6 6 6 5 4 4 4 4 4 3 2 3 4 5 5 6 7 8 8 8 8 8 9 11 12 14 16 18 20 22 24 25 27 28 29 30 32 33 35 36 37 37 37 37 37 37 36 35 34 32
11 10 9 9 8 6 5 4 3 4 4 4 4 3 2 3 3 4 5 6 6 5 5 5 6 8 10 13 15 17 19 21 22 23 24 26 28 30 31 32 33 33 33 34 34 35 36 36 36 35 33 32 30 29
9 10 10 9 7 6 6 6 6 5 5 6 5 5 4 4 3 2 1 2 4 5 6 8 11 13 15 16 17 18 18 20 21 24 25 27 28 28 28 29 30 31 32 34 35 37 37 36 34 32 29 27 25 24
8 9 9 9 8 7 6 6 8 9 8 6 3 0 1 1 2 2 3 3 5 8 10 12 14 15 15 15 17 19 20 22 23 24 24 24 24 25 26 27 29 30 32 33 33 33 33 32 29 27 24 22 20 19

GFSWCAN_700_spd_054.txt.gz
Wind_Speed
18 15 17 24 27 28 31 33 34 42 39 39 62 54 47 48 56 63 65 50 59 43 35 22 32 31 32 39 35 24 25 34 37 37 28 22 17 24 23 21 33 32 30 28 27 19 14 21 18 24 28 24 20 18
15 12 15 16 19 23 32 37 37 35 37 51 58 52 49 51 52 62 66 55 60 57 30 24 29 32 27 17 27 29 22 14 34 27 28 18 19 21 23 33 30 30 33 31 29 28 28 20 20 20 16 21 23 16
27 27 26 27 28 29 32 35 39 41 39 47 47 48 51 43 45 48 58 66 29 54 26 28 23 24 28 31 30 33 32 16 12 32 27 27 18 25 23 26 26 31 30 33 32 33 31 28 28 26 25 20 21 17
27 29 30 32 31 30 33 36 37 37 36 36 40 42 40 38 45 52 46 52 34 44 46 17 27 35 26 28 32 31 29 28 26 21 27 29 29 26 24 31 26 28 30 35 35 33 29 31 28 25 21 20 19 17
24 25 27 27 29 32 34 34 33 34 32 30 33 41 46 47 44 42 36 40 44 44 44 31 11 20 34 40 37 37 34 31 24 31 25 27 29 31 24 27 33 31 30 31 35 28 28 31 24 21 21 20 18 18
23 25 25 25 26 26 29 30 30 30 28 27 25 30 39 35 38 44 39 28 40 52 22 34 19 17 22 20 22 31 30 31 34 28 28 28 29 30 32 35 33 28 31 31 33 36 34 25 21 19 19 19 20 21
25 26 28 29 27 27 27 25 25 26 23 26 26 28 33 32 34 30 30 23 41 46 18 21 20 20 19 19 20 25 29 32 36 33 35 29 25 27 36 42 36 34 34 32 34 31 30 27 22 21 22 22 22 23
26 28 29 27 28 29 27 24 24 22 24 36 32 25 23 24 30 18 26 24 37 41 21 7 10 25 25 19 17 21 26 33 34 36 35 37 32 29 31 41 36 33 30 31 36 29 30 27 23 23 23 23 24 26
31 30 27 28 30 31 34 37 36 35 34 39 38 31 24 32 33 23 27 22 36 24 13 13 8 5 7 10 12 20 24 27 26 35 38 32 35 33 37 40 39 30 31 22 24 30 28 27 26 24 24 24 25 28
31 31 29 29 29 29 31 31 28 29 28 26 33 28 30 26 22 22 19 22 23 28 34 23 22 17 10 13 15 12 23 24 21 30 30 41 37 37 27 26 23 26 28 22 22 25 27 26 25 24 26 26 27 28
32 32 33 33 32 32 33 34 35 32 28 30 32 30 28 25 34 17 17 17 15 18 25 40 30 23 16 11 16 11 11 9 17 24 27 31 40 48 42 36 27 28 21 23 27 28 25 23 22 23 25 26 27 28
29 30 28 28 26 26 27 24 25 26 32 33 29 28 26 24 4 6 14 17 12 16 10 13 24 24 32 30 19 18 13 11 7 21 18 13 31 29 37 30 40 24 26 33 25 24 30 28 28 27 27 23 22 20
29 29 29 26 23 26 29 27 23 25 32 27 23 21 12 5 5 6 9 17 12 10 16 15 14 16 21 24 16 10 8 7 8 9 6 11 13 18 19 23 31 26 16 19 29 32 29 25 22 18 17 17 19 20
35 40 35 31 29 28 27 28 28 25 10 20 11 11 4 6 8 8 12 14 13 14 18 17 18 9 13 9 5 2 5 8 8 6 7 9 12 15 21 28 32 33 32 23 24 23 18 16 17 19 18 18 19 22
26 29 35 34 36 32 28 28 19 8 3 6 5 4 7 7 8 9 13 15 14 15 18 20 19 14 11 7 6 5 5 4 6 6 9 13 14 16 17 18 20 20 19 16 16 17 19 17 12 12 12 15 16 15
20 18 20 23 18 18 17 15 13 12 11 7 10 16 14 9 11 12 15 15 19 20 21 18 10 5 5 5 5 3 3 1 3 3 3 6 11 13 14 15 16 17 16 15 14 11 9 10 12 13 11 13 14 13
13 16 17 10 7 11 10 5 7 10 7 8 12 14 12 11 12 11 12 18 21 21 17 6 5 2 4 3 3 3 1 1 2 4 9 10 7 8 10 11 10 11 14 9 5 5 9 11 12 12 12 12 12 10
10 12 11 12 13 13 10 7 7 9 18 17 13 10 7 8 8 6 7 14 19 17 13 7 6 6 5 4 5 4 3 3 5 7 10 10 10 10 9 8 10 12 4 2 3 7 9 10 10 11 11 10 10 10
7 9 8 6 6 3 2 9 7 11 16 14 11 7 3 4 4 5 6 9 11 9 10 7 4 8 8 8 6 5 3 2 4 10 13 12 8 7 8 10 9 4 4 5 6 7 7 9 10 10 12 13 14 16
10 8 9 9 9 3 5 10 15 12 15 15 9 6 5 7 6 3 2 3 4 7 7 11 17 14 11 9 8 9 8 9 10 11 12 12 11 9 7 5 4 3 2 2 3 5 7 9 13 16 19 20 21 22
19 13 9 9 7 3 9 12 16 18 19 19 14 12 15 12 9 7 3 4 4 15 26 20 16 14 13 12 11 11 12 11 9 7 9 9 8 5 3 3 2 1 3 5 7 10 13 16 19 22 24 25 26 28
18 20 19 13 11 15 14 13 16 15 17 18 14 13 14 13 11 11 10 4 22 26 22 16 12 9 8 8 9 11 12 9 9 9 8 6 4 2 1 2 5 7 9 11 14 16 19 21 24 26 28 29 30 31
12 9 9 14 13 11 19 18 16 12 9 11 8 8 8 7 7 4 10 21 22 18 15 12 12 10 8 9 7 7 9 7 5 4 3 3 3 3 5 8 10 13 15 18 19 21 22 23 25 27 29 30 32 33
9 4 10 7 9 10 10 9 9 9 9 9 6 8 8 7 7 11 16 16 15 13 9 8 8 6 5 4 2 2 2 2 2 3 4 5 7 9 11 13 15 17 19 21 22 23 25 27 28 30 32 34 35 37
10 9 8 9 8 8 9 10 8 8 11 9 8 6 4 3 4 10 11 11 11 8 7 6 5 3 2 1 1 2 2 4 5 7 9 10 12 13 14 16 18 20 22 23 25 27 29 31 33 35 37 38 39 39
9 8 6 7 9 7 7 9 9 11 8 6 6 6 6 3 3 6 9 9 7 5 5 4 3 2 2 1 2 3 4 5 7 8 11 13 14 16 18 20 22 24 26 27 29 31 32 34 36 38 40 42 43 44
12 13 17 17 16 14 15 13 11 10 8 6 7 4 2 1 2 7 9 7 5 4 2 1 1 2 3 5 7 9 10 12 13 14 16 17 18 19 20 21 23 25 27 29 31 33 36 37 39 41 42 43 43 43
20 19 16 14 12 12 10 9 7 5 4 3 1 0 1 2 5 10 8 7 5 4 3 3 5 6 8 9 10 11 12 12 13 14 15 17 19 21 23 24 26 28 30 31 33 35 37 39 40 41 41 41 40 40
18 16 13 10 7 6 6 5 5 4 3 2 3 3 3 2 6 7 6 6 5 5 6 7 7 8 9 8 8 9 11 13 15 17 18 20 21 22 23 25 27 29 31 33 34 35 36 37 38 39 40 41 40 39
14 11 8 7 6 6 6 4 4 4 5 5 5 4 4 3 4 5 4 4 3 4 6 6 6 6 7 9 10 12 14 16 17 17 18 19 21 23 25 27 27 27 28 29 30 32 33 35 36 38 39 38 36 34
11 10 9 9 8 6 5 5 5 6 6 5 5 4 2 2 3 3 3 4 4 3 3 4 6 8 10 12 14 15 15 16 17 19 21 23 24 24 23 23 24 26 27 29 30 30 31 32 33 34 33 31 29 26
9 9 9 8 7 6 6 5 5 5 6 6 6 6 4 3 2 1 1 1 2 2 3 6 9 11 12 12 12 14 16 17 18 20 21 21 20 20 20 22 23 25 27 26 27 28 29 30 31 32 32 29 26 23
7 8 8 8 7 7 8 8 7 8 7 8 5 1 1 1 1 2 3 2 4 7 8 10 11 11 11 13 14 15 16 18 18 18 17 17 17 18 19 20 22 24 25 25 26 27 28 29 29 30 30 28 25 23

GFSWCAN_700_spd_057.txt.gz
Wind_Speed
9 13 16 18 20 21 26 30 38 39 44 44 45 44 54 62 66 65 59 46 57 52 30 28 29 30 34 34 43 38 32 36 29 26 17 18 15 21 27 19 17 30 24 24 28 24 16 23 22 26 32 25 18 16
17 12 18 15 21 21 27 32 36 38 40 44 36 48 45 60 64 55 51 54 35 54 28 29 28 26 27 24 34 24 27 26 41 32 30 17 19 19 23 34 32 25 34 28 29 26 28 21 21 22 23 21 21 19
17 14 23 25 28 30 37 33 30 33 37 36 37 40 46 59 53 55 53 46 54 33 30 33 24 24 24 25 25 30 35 22 18 27 25 25 17 27 25 31 32 38 33 29 29 32 33 31 30 29 27 26 22 21
21 22 21 19 22 30 31 29 31 31 31 35 38 46 50 53 54 48 51 42 44 30 42 23 25 30 25 29 30 32 27 26 17 14 29 25 19 28 24 33 28 29 29 29 31 33 33 32 30 28 29 26 25 22
23 27 30 28 25 26 30 31 33 36 33 39 47 41 40 45 41 42 44 40 43 20 34 37 20 25 29 30 31 30 30 34 28 22 22 28 28 22 28 32 37 36 35 31 31 25 25 26 25 29 25 27 24 22
21 21 24 29 32 32 33 31 32 34 33 40 39 38 35 35 37 39 34 36 33 44 20 29 29 31 31 31 30 27 30 30 28 28 30 34 29 25 22 35 36 32 27 25 26 27 30 29 24 28 34 28 23 23
25 24 23 22 26 28 26 28 28 30 29 27 29 34 44 41 35 33 29 23 27 28 21 22 18 13 19 28 35 29 28 31 30 31 38 29 27 32 36 40 27 24 34 34 28 26 27 30 31 28 25 24 25 25
29 28 27 27 28 24 22 22 22 23 25 23 28 29 27 29 25 21 19 21 25 31 18 13 10 16 15 19 22 23 22 25 29 35 34 39 35 35 36 39 36 34 32 32 32 32 32 34 31 26 25 25 26 27
28 29 28 25 25 25 23 24 25 30 32 34 36 36 33 34 26 22 21 20 29 26 21 11 15 14 14 15 17 15 15 28 28 38 37 32 37 35 40 40 29 22 24 28 31 32 32 30 27 26 27 26 27 28
27 31 32 35 36 33 26 20 26 34 38 35 32 31 25 25 23 20 16 14 29 32 12 18 19 18 15 14 10 6 5 10 11 27 20 36 47 45 43 36 30 28 30 29 30 33 31 28 25 27 29 28 29 30
29 29 27 26 29 34 32 41 42 37 33 36 32 21 29 25 23 16 9 10 15 17 24 23 21 16 11 8 6 3 4 5 6 12 18 17 34 37 35 36 31 28 27 28 29 29 27 21 21 25 28 30 32 34
27 25 24 24 25 32 34 33 39 39 35 31 28 28 30 25 16 10 15 15 15 18 9 22 25 19 12 8 8 5 7 7 5 9 10 11 19 18 25 31 34 35 37 31 29 28 21 21 26 26 29 30 32 34
22 21 22 21 23 25 28 28 32 29 25 23 29 23 13 18 10 8 13 16 16 22 16 12 14 15 13 13 9 7 6 8 6 8 4 5 8 20 20 21 29 31 39 35 36 34 29 27 23 23 26 26 28 23
18 14 12 15 16 20 23 24 26 30 24 19 17 13 5 4 3 6 14 22 12 11 16 19 15 10 10 7 10 6 8 6 5 4 5 5 5 5 10 12 15 19 22 20 12 14 18 21 23 21 17 14 17 20
18 16 15 14 14 20 24 27 34 23 5 2 3 4 5 10 10 11 14 20 16 11 14 17 18 12 17 8 7 5 6 3 3 4 7 9 15 17 16 17 17 17 16 16 15 13 12 12 13 14 16 18 19 19
30 26 22 23 24 21 26 17 9 4 3 4 6 13 15 11 14 12 13 14 14 18 21 21 10 7 5 6 5 3 2 3 2 5 6 3 5 6 6 8 10 9 8 8 8 6 6 8 10 13 11 9 9 9
15 21 18 21 22 23 23 11 8 6 5 7 11 14 13 12 12 11 12 13 13 16 13 6 6 4 5 6 5 4 4 2 1 1 4 8 8 7 7 7 7 6 8 7 2 1 3 5 5 6 7 7 8 9
6 11 13 11 12 11 10 3 8 9 16 16 15 13 10 9 9 8 9 13 11 10 10 5 6 5 5 6 8 7 6 4 3 6 9 9 8 8 8 8 6 9 5 3 4 3 5 6 7 8 7 7 7 9
13 18 14 14 10 11 10 6 8 11 17 16 15 11 7 9 8 6 5 6 8 7 6 7 5 10 11 11 8 5 5 5 2 5 8 8 8 7 9 10 11 5 4 4 3 4 4 4 4 5 6 9 13 16
13 19 16 10 9 13 11 14 16 12 18 18 15 13 13 15 13 10 6 3 1 4 4 11 18 15 13 11 9 8 8 7 6 7 11 13 14 12 11 8 6 5 5 4 3 2 1 3 6 10 13 16 18 21
16 11 7 8 9 5 10 12 17 18 20 22 19 18 20 14 11 10 8 9 5 12 26 22 16 14 13 12 11 11 11 11 10 11 14 13 12 8 7 7 6 5 3 2 2 4 7 10 13 17 20 22 25 27
22 17 11 7 8 19 15 14 14 15 18 17 15 15 16 16 16 18 13 9 22 27 23 19 16 13 11 10 11 12 13 12 12 11 11 10 8 6 4 2 0 2 5 7 9 12 14 17 19 21 24 26 28 29
15 14 13 14 12 10 18 18 12 8 6 8 7 10 11 12 13 9 16 25 25 22 19 16 16 14 12 12 11 11 12 9 7 6 6 4 2 1 1 3 6 8 11 13 15 17 19 21 23 25 27 28 31 33
6 6 10 8 9 10 10 8 9 8 8 6 5 7 8 8 7 11 18 17 17 15 12 12 11 8 7 5 3 3 3 3 1 1 1 3 4 6 8 10 12 14 16 17 19 21 23 25 27 29 31 33 35 37
5 8 8 8 7 9 9 9 8 8 10 7 5 5 3 3 3 6 10 11 11 9 8 8 6 5 2 2 1 1 1 2 3 5 6 7 9 10 11 13 15 17 19 21 23 25 27 28 31 33 35 37 39 41
7 6 5 7 9 8 8 10 10 11 8 6 5 5 5 4 3 5 9 9 7 6 4 3 3 2 2 1 1 2 3 4 6 8 10 11 12 14 15 16 18 20 22 24 26 28 29 31 33 35 37 39 41 42
13 14 19 18 17 14 15 13 11 9 7 6 6 3 1 0 1 6 9 9 8 6 5 4 2 1 2 3 5 7 8 8 9 10 12 13 14 16 18 20 21 23 24 25 27 29 31 32 33 34 36 38 40 41
23 21 17 16 14 13 11 9 7 5 4 3 1 1 1 1 3 7 9 8 6 5 4 3 3 4 6 7 8 9 9 9 11 13 15 17 18 19 19 20 22 24 26 27 27 28 29 31 33 34 34 35 36 38
20 17 14 11 9 8 8 8 7 6 5 4 4 5 4 4 3 8 7 6 6 5 5 5 6 6 6 6 7 8 10 12 14 16 16 16 18 20 21 22 23 23 23 25 26 28 29 29 29 30 31 32 34 33
16 14 11 10 9 10 9 8 7 7 7 7 7 6 4 1 2 4 5 5 6 5 5 4 4 3 5 7 9 11 12 13 12 14 16 17 19 20 20 19 19 20 20 22 23 24 25 26 28 29 30 31 32 31
15 12 11 12 11 9 8 8 7 7 7 7 7 5 4 1 2 3 3 3 4 3 2 2 4 6 8 11 12 11 11 13 15 16 17 18 18 17 17 17 17 17 19 19 20 21 23 24 25 26 27 28 29 28
10 10 10 9 9 8 7 7 8 7 8 8 7 7 5 3 2 1 1 1 2 2 3 5 8 9 10 10 10 12 13 14 15 16 16 16 15 15 15 15 15 16 17 18 20 22 23 24 25 26 26 26 26 26
7 8 8 8 9 8 8 9 8 8 9 9 6 2 1 1 2 1 2 2 2 5 7 8 9 9 9 11 12 12 13 14 15 15 14 13 13 13 14 13 14 15 17 19 20 22 23 24 25 26 26 26 26 25

GFSWCAN_700_spd_060.txt.gz
Wind_Speed
11 12 15 18 20 21 30 38 44 44 47 50 47 44 50 57 64 58 60 56 51 37 30 33 26 26 37 35 43 33 29 32 34 24 17 11 12 14 15 16 18 20 20 22 19 14 15 17 19 23 25 20 20 19
9 13 14 14 16 22 29 34 39 40 44 43 41 47 48 51 57 58 60 54 51 31 23 39 32 30 29 38 36 35 40 36 29 21 19 14 14 14 18 22 26 21 23 18 20 20 23 18 17 20 20 21 22 22
22 18 14 13 16 24 25 30 34 41 36 42 43 47 46 50 56 49 51 53 49 45 31 26 28 29 31 34 42 34 40 38 38 35 23 20 14 18 23 27 22 34 34 36 35 28 27 24 23 24 24 26 26 26
15 19 29 29 24 31 34 32 34 38 36 35 38 41 48 53 55 58 55 48 45 39 30 18 33 25 33 39 42 39 28 27 28 23 29 27 24 25 22 23 26 25 24 36 43 38 29 26 27 27 25 25 23 25
18 19 26 31 30 26 32 33 32 30 36 35 36 42 46 49 51 46 48 50 36 35 20 30 25 26 25 35 42 43 38 34 28 22 26 30 26 20 22 30 35 30 33 32 35 27 33 24 22 25 26 25 25 27
24 26 26 25 29 31 32 32 34 33 33 36 39 40 38 51 50 39 36 38 40 35 14 20 31 28 25 30 34 38 40 31 35 29 28 29 28 29 22 31 30 28 34 31 31 30 32 31 27 26 28 27 25 27
23 27 29 30 31 32 33 34 34 35 37 44 42 37 35 37 38 34 30 36 35 26 29 11 14 32 30 33 26 31 30 35 40 32 30 25 28 30 35 38 25 22 27 30 30 25 31 27 27 27 27 28 30 27
22 23 23 24 27 31 30 29 31 31 36 34 31 31 34 31 25 25 25 25 20 14 23 11 10 15 31 37 29 30 30 30 32 36 35 35 29 31 31 37 42 38 32 23 22 29 35 33 33 31 32 34 31 28
27 26 23 21 22 27 30 29 31 30 31 32 32 28 27 26 24 22 23 17 15 17 14 8 21 15 29 32 34 35 30 25 27 34 36 31 31 27 31 30 33 25 20 20 27 33 34 32 35 35 34 34 30 30
29 26 25 28 33 32 28 27 25 27 31 32 30 28 27 27 22 21 22 18 17 18 20 22 30 13 15 33 30 31 27 20 14 30 26 35 44 40 34 23 14 14 15 19 24 26 29 33 35 38 37 32 30 32
30 29 27 21 25 31 33 31 32 32 32 30 25 25 29 30 26 10 13 12 16 11 20 24 31 6 18 22 26 15 16 12 8 7 21 13 21 26 36 38 40 41 38 35 33 30 30 32 36 36 29 30 31 35
26 26 27 25 28 36 36 35 35 33 35 30 20 33 32 14 9 8 10 9 13 20 11 22 20 11 15 20 11 11 9 9 5 9 10 6 14 16 18 22 26 32 32 29 27 27 26 26 29 31 30 25 28 32
22 24 25 28 30 38 34 33 33 23 17 17 22 19 10 7 7 7 11 10 12 25 18 22 27 19 12 7 5 8 7 6 6 9 5 7 10 14 18 20 23 24 26 29 29 32 29 28 26 24 22 24 26 27
19 19 21 25 25 27 28 28 19 16 20 19 11 7 6 8 8 10 15 16 20 15 15 16 21 17 11 10 5 4 6 5 7 5 4 7 8 7 3 2 5 10 14 14 17 14 9 7 11 14 16 14 15 17
10 14 16 16 17 18 22 22 20 15 14 5 6 6 8 5 8 17 17 16 14 16 20 17 14 8 8 4 5 4 5 3 4 2 4 8 7 7 5 4 4 6 9 10 11 9 10 7 7 7 8 10 12 12
8 11 13 12 16 21 23 23 30 16 3 3 5 6 7 8 15 17 23 25 17 19 20 19 10 7 7 5 5 4 4 3 1 2 4 3 4 4 4 4 4 4 4 7 8 7 4 3 4 4 3 5 5 8
18 17 19 19 19 17 15 7 16 12 2 3 7 9 9 12 14 18 21 22 22 24 26 14 8 5 8 6 5 5 6 4 2 1 2 4 6 6 5 5 5 8 9 5 3 3 3 3 3 4 3 5 7 8
19 22 25 27 26 16 5 6 11 9 12 14 15 15 13 13 13 13 15 16 15 15 15 9 9 8 6 7 8 9 7 6 4 1 2 4 5 6 8 9 11 11 7 7 9 9 8 6 4 3 4 3 3 3
11 11 10 11 11 9 9 14 16 15 18 17 17 17 19 19 17 14 11 7 5 5 7 8 7 12 14 15 11 8 7 6 4 2 3 5 6 8 11 15 12 11 11 11 9 6 4 2 1 0 0 2 6 9
22 19 15 13 8 12 10 12 15 14 20 20 19 19 20 21 19 16 12 10 6 1 4 12 20 17 15 13 11 10 9 9 7 7 12 16 17 15 14 11 9 8 6 6 5 4 3 1 1 4 7 11 15 18
21 15 9 9 8 11 11 12 17 18 21 23 22 22 22 16 12 12 9 11 5 16 27 23 18 15 13 12 11 11 11 11 10 12 15 14 14 11 10 10 9 7 6 4 2 1 3 6 9 12 15 19 22 24
17 18 19 18 21 20 15 14 15 18 18 16 15 16 16 17 18 19 15 15 26 29 25 21 18 16 14 14 13 12 13 12 11 11 12 11 10 8 6 5 4 1 2 4 6 8 11 13 16 18 20 23 25 27
21 17 11 14 11 10 18 14 9 9 7 9 9 12 14 16 16 10 17 25 26 24 22 19 17 15 14 15 14 14 13 10 8 9 9 7 4 2 0 2 4 6 8 10 13 14 16 18 20 23 25 27 29 31
6 2 8 6 7 9 9 9 9 9 8 7 8 11 12 13 11 13 17 17 17 17 15 14 12 10 9 8 5 6 7 8 5 3 1 0 1 4 6 8 10 11 13 15 17 19 21 22 24 25 27 29 31 33
2 5 7 7 7 9 8 8 8 9 10 8 7 6 4 4 4 7 11 14 13 11 10 9 8 7 4 4 3 2 2 1 1 2 3 5 7 8 9 11 13 14 16 17 19 21 22 24 25 27 29 30 31 32
4 4 4 6 9 8 8 11 9 9 7 6 5 5 5 3 2 4 10 11 11 10 8 7 6 5 4 3 1 0 2 3 5 5 6 8 9 10 12 13 15 16 18 18 20 22 23 24 25 25 27 28 29 30
9 13 16 16 16 14 14 12 10 7 5 4 4 3 2 1 1 5 10 11 10 9 7 6 5 4 2 1 2 3 5 5 5 6 7 9 11 12 13 14 15 17 19 20 21 21 21 22 23 23 24 26 26 28
20 20 17 15 13 12 10 8 6 4 4 3 2 2 2 2 4 6 10 10 8 7 6 5 4 3 3 3 3 3 4 5 7 9 11 12 12 13 15 16 18 18 18 18 18 19 19 20 21 21 23 24 25 27
21 17 14 11 9 9 9 9 7 5 4 3 3 4 4 5 4 7 9 8 7 6 5 4 4 4 3 3 4 5 8 10 11 11 12 13 15 16 17 18 17 16 16 16 17 17 18 18 19 20 22 23 25 26
17 14 12 10 9 11 9 7 7 6 6 6 5 4 3 1 3 4 5 5 5 5 4 4 4 3 3 4 7 9 9 9 10 11 13 15 15 16 15 14 14 14 14 15 15 16 17 19 20 22 22 23 24 25
17 13 11 10 10 9 8 8 7 6 6 5 5 3 2 0 2 3 4 4 4 4 3 3 3 4 6 8 9 8 9 10 11 13 14 14 13 12 12 12 11 12 13 13 14 16 17 18 19 20 22 23 23 24
13 11 9 8 8 7 6 6 6 6 6 6 6 5 2 1 1 2 2 2 2 3 3 3 5 7 8 7 8 9 10 11 12 13 12 12 11 10 10 10 10 11 12 13 14 15 17 18 19 20 21 22 23 24
9 8 6 5 5 5 5 6 7 7 8 6 4 2 1 1 0 1 2 2 2 3 5 6 7 7 7 9 9 9 10 11 11 11 10 10 9 9 9 10 10 11 12 13 15 17 18 19 20 21 22 22 23 24

GFSWCAN_700_spd_063.txt.gz
Wind_Speed
18 21 21 21 20 19 7 30 42 46 43 44 54 53 54 58 60 62 59 64 51 30 30 18 21 23 33 46 41 32 37 29 28 22 21 14 13 25 25 25 21 25 22 21 22 20 16 18 20 23 25 17 16 15
27 19 14 14 15 18 20 30 40 42 43 45 53 49 50 48 55 48 59 55 58 28 20 28 24 24 32 41 35 37 35 30 24 22 20 19 13 17 19 25 19 16 21 27 18 17 22 16 17 20 20 19 18 18
18 22 14 16 21 22 28 33 37 38 39 48 47 46 45 44 52 50 54 49 57 51 25 25 28 26 30 46 39 38 41 22 28 24 19 16 16 18 18 22 27 26 18 22 17 22 18 16 14 18 19 19 19 20
15 23 22 15 18 25 26 28 34 37 40 40 39 40 46 47 47 49 53 40 43 34 19 15 17 28 30 49 43 45 32 21 24 26 25 20 22 16 15 17 22 24 18 22 32 31 28 28 32 24 23 23 24 24
20 21 25 26 24 30 33 33 34 38 36 39 39 40 44 53 54 46 38 34 44 29 18 11 12 18 33 45 37 34 39 29 28 27 29 27 22 17 16 22 26 23 23 25 26 19 25 27 28 28 30 27 22 24
20 24 24 28 28 34 34 36 36 38 40 40 36 39 48 47 43 41 34 33 36 32 8 15 20 13 30 43 45 42 38 32 27 25 24 24 21 21 16 23 22 26 26 26 27 22 25 24 22 22 23 24 26 25
23 23 22 24 26 26 21 24 28 27 27 31 36 36 40 40 38 36 33 33 29 29 20 4 5 18 19 21 43 41 41 31 25 22 23 17 18 22 24 25 27 18 18 23 23 25 34 28 31 34 28 27 28 29
22 24 26 27 26 25 26 27 29 32 36 39 40 46 41 37 31 34 24 21 26 23 23 6 5 9 19 20 25 33 40 39 28 24 19 21 20 22 21 26 27 31 30 25 22 27 31 32 33 30 29 29 31 32
19 23 25 27 28 32 33 35 36 35 36 33 30 28 32 33 26 20 23 28 29 19 11 12 9 9 22 26 26 31 30 33 25 32 26 18 25 22 17 25 27 22 21 21 22 26 33 31 29 32 36 39 38 37
19 17 22 28 31 31 34 34 32 33 32 30 32 33 29 25 21 18 17 20 22 16 17 19 16 16 21 29 26 21 13 22 19 25 23 28 28 23 22 22 16 20 24 23 24 25 26 27 28 31 34 36 39 40
22 24 22 21 22 27 28 30 33 34 33 30 25 23 27 25 21 18 12 11 10 10 19 22 21 23 17 14 22 18 12 12 10 12 23 17 27 29 39 38 38 39 33 29 28 29 27 26 30 35 37 38 39 39
17 25 24 24 25 28 30 32 30 25 22 22 20 28 26 20 11 6 9 8 6 9 9 16 25 26 25 8 27 32 18 14 8 12 14 7 16 20 28 30 32 35 39 39 40 37 37 39 35 35 35 33 32 33
24 27 24 26 28 35 33 29 30 20 19 21 21 20 11 5 4 7 7 5 7 10 11 7 13 25 26 15 8 6 7 6 7 11 8 6 9 11 14 18 22 22 22 22 24 26 30 33 33 34 35 33 30 27
25 28 26 23 26 30 24 17 18 24 26 17 6 4 3 3 3 5 5 7 10 10 14 7 12 10 8 1 4 5 5 7 8 6 4 4 8 8 9 7 5 9 13 17 19 20 16 14 14 12 9 12 12 12
18 20 19 17 21 19 16 15 15 16 10 3 3 1 1 3 10 10 11 11 14 13 13 14 16 16 10 3 2 3 6 3 3 3 2 2 3 3 4 3 3 3 4 5 7 8 9 10 8 6 5 4 3 3
7 11 14 14 13 13 12 11 9 8 1 5 3 5 9 8 7 13 17 17 17 15 12 13 5 5 3 4 4 4 3 4 2 1 1 1 2 2 3 4 4 4 5 5 5 5 6 5 4 4 6 8 6 4
7 6 6 10 8 7 8 10 11 1 6 7 3 4 7 4 7 15 19 17 16 13 13 9 4 4 5 3 4 5 6 4 4 2 2 2 2 2 4 6 9 12 9 8 8 9 8 9 9 8 6 5 1 2
11 14 12 13 13 11 14 15 13 2 4 6 5 6 6 7 9 10 14 16 14 15 17 12 5 7 5 5 6 10 8 5 4 4 3 4 4 5 7 11 13 10 9 11 11 12 12 10 7 4 1 2 2 3
13 12 13 21 8 11 20 16 17 12 12 12 13 14 15 15 14 12 12 12 13 15 20 13 5 8 10 15 13 10 8 7 6 5 6 8 10 12 15 14 13 13 13 12 11 8 6 3 2 2 2 1 2 6
15 13 12 11 9 15 12 12 16 13 18 20 21 20 19 17 15 13 12 12 14 14 9 10 19 17 15 12 11 9 9 9 7 8 12 16 18 17 16 15 13 12 9 8 7 6 5 4 2 1 4 7 11 14
16 14 11 8 11 13 12 14 17 16 22 20 22 22 22 17 13 10 11 11 12 22 28 22 18 15 13 12 11 11 12 12 12 14 17 17 16 13 12 11 10 9 7 6 4 2 1 3 6 9 12 15 17 20
22 21 19 16 20 18 14 14 15 17 16 16 15 16 20 22 22 20 19 20 28 27 25 20 18 16 14 14 13 13 14 14 12 12 12 12 11 10 8 7 7 3 2 2 4 6 9 11 13 14 16 18 21 23
19 16 13 14 11 10 13 11 10 10 7 9 10 13 15 16 14 10 17 23 26 23 21 19 18 16 15 16 15 14 12 10 10 11 10 8 6 4 3 1 2 4 6 9 10 11 12 14 16 19 21 23 26 27
8 7 7 5 6 8 10 10 10 10 8 9 10 12 12 12 11 12 16 17 17 18 17 16 15 13 13 12 10 11 12 11 8 6 4 3 1 2 3 5 7 9 10 11 13 15 17 19 21 22 24 25 26 27
5 5 7 7 7 9 8 10 11 11 11 9 9 7 5 4 4 5 9 13 13 12 11 10 9 8 5 5 5 5 5 4 3 2 1 2 4 6 7 8 9 11 13 15 17 18 19 21 22 23 23 22 22 23
2 4 4 6 10 7 8 9 8 9 8 7 6 5 5 4 2 2 8 9 10 10 9 8 7 6 6 4 3 3 2 2 3 4 4 5 6 8 10 11 13 14 15 17 18 19 20 19 19 18 18 18 18 20
7 10 13 13 14 12 12 11 8 7 6 5 4 3 3 3 2 3 8 10 10 9 8 6 6 5 4 3 3 3 4 4 5 6 7 8 10 11 12 13 14 15 16 17 16 15 15 14 14 14 15 17 18 20
15 16 15 13 12 9 8 7 5 4 3 2 2 2 3 3 6 5 7 10 10 9 8 7 6 6 5 5 5 5 5 5 7 8 9 10 10 11 12 13 14 14 13 12 11 11 11 12 13 15 16 18 19 20
20 16 13 10 7 7 6 6 5 3 2 2 4 5 6 8 9 7 8 9 8 7 7 7 7 6 6 5 5 5 6 7 8 8 9 9 11 12 12 12 11 10 9 9 9 10 12 13 14 15 17 18 19 20
15 12 10 8 6 8 7 6 5 4 4 4 5 5 5 3 1 3 5 6 7 7 7 6 6 5 5 4 6 8 8 8 8 9 10 11 12 12 11 10 9 8 9 9 10 11 12 13 15 16 17 19 20 21
15 11 9 8 9 9 7 5 5 4 5 6 7 6 5 3 3 4 5 5 5 5 5 5 4 4 5 7 8 7 7 8 9 10 11 11 11 10 9 9 8 8 9 10 11 13 14 15 17 18 19 20 21 22
12 10 8 8 8 7 5 4 5 7 8 9 8 6 4 3 4 4 4 4 4 4 4 4 5 6 7 7 6 8 8 8 9 10 9 9 8 7 7 7 8 9 10 11 12 14 15 16 17 18 19 20 21 22
9 8 6 5 5 4 4 6 6 8 8 4 2 2 2 2 3 3 4 4 4 4 5 5 6 5 6 7 8 8 7 8 8 8 8 7 7 6 7 7 8 9 10 12 13 14 16 17 17 18 19 20 21 22

GFSWCAN_700_spd_069.txt.gz
Wind_Speed
26 27 29 28 29 31 32 33 36 40 44 44 43 41 39 41 45 49 53 56 37 54 49 37 27 28 26 33 39 31 25 38 31 38 33 25 20 29 10 18 30 25 21 28 25 11 21 5 17 27 27 26 20 15
26 26 26 23 24 24 25 22 29 39 43 44 45 42 40 42 46 49 51 43 33 46 46 49 40 24 28 33 35 40 34 30 36 33 19 33 16 19 28 18 23 30 30 27 26 20 10 23 18 15 15 16 20 24
24 24 18 16 16 19 23 13 8 24 38 37 35 45 41 44 45 44 51 39 46 39 35 36 41 31 36 34 39 36 36 33 38 42 33 18 22 14 32 31 21 24 20 22 21 29 19 26 33 27 31 26 22 24
19 21 15 17 17 17 16 19 19 25 31 35 35 41 42 44 40 42 41 45 49 32 21 36 40 35 36 36 35 40 31 36 29 28 34 24 20 27 29 22 30 25 21 24 23 18 20 31 12 20 24 27 17 15
21 18 16 18 17 17 16 19 24 27 31 38 41 42 40 39 35 33 32 28 42 37 26 26 35 21 22 27 26 37 36 31 33 31 44 28 24 23 24 33 34 27 22 20 20 13 14 15 15 13 17 28 23 22
22 25 19 21 23 26 29 29 30 31 36 39 43 41 39 35 35 36 33 34 32 18 25 19 24 29 21 26 28 32 34 38 30 30 40 36 30 23 13 22 27 29 28 19 16 15 10 16 15 19 17 21 24 26
23 27 25 20 21 24 29 32 34 38 38 40 41 41 38 35 36 35 32 35 27 24 14 12 15 20 24 24 22 27 30 31 35 35 22 42 25 26 29 19 19 22 23 25 20 18 19 23 24 25 26 28 28 26
17 22 26 26 21 25 25 32 33 34 34 35 39 41 37 34 30 32 24 25 23 25 10 5 9 12 16 12 9 17 24 28 35 30 31 24 28 22 22 24 25 24 22 22 24 23 22 20 24 28 30 28 25 26
17 21 26 30 31 25 24 27 32 40 37 33 28 31 32 30 28 23 22 30 21 15 9 9 11 8 7 9 5 9 12 19 25 34 28 25 26 14 20 23 23 25 28 27 30 33 29 27 26 28 30 27 28 27
24 25 30 30 27 25 36 36 39 43 41 35 34 33 25 22 26 26 24 17 9 6 6 8 7 4 3 6 10 10 11 11 18 26 27 18 5 22 23 24 26 26 25 25 24 25 24 24 27 28 26 26 26 20
22 25 28 30 31 27 29 34 33 33 34 34 31 28 30 27 24 16 10 6 4 4 4 4 6 5 9 4 4 8 7 9 8 19 21 13 18 20 16 19 21 22 22 24 25 23 20 20 23 21 22 24 25 27
19 22 25 25 26 27 26 24 22 20 21 20 26 29 24 14 9 7 8 7 5 4 3 4 12 11 5 4 1 1 3 6 3 8 13 17 22 25 26 29 29 31 31 30 31 32 32 33 32 33 35 34 34 33
19 22 24 24 25 22 18 18 18 20 25 28 25 15 7 6 6 5 4 5 6 9 8 3 4 7 9 9 4 6 6 4 11 13 9 6 17 18 18 25 28 33 35 38 38 38 37 35 33 28 25 25 25 25
23 22 22 20 15 18 20 23 25 29 25 17 11 8 5 5 6 6 10 10 10 9 8 5 5 6 7 5 4 2 3 3 3 5 4 6 2 8 17 22 24 26 22 19 20 20 20 21 20 19 19 19 16 14
26 23 19 17 21 18 19 19 17 13 10 9 6 6 6 10 10 9 7 10 12 9 10 6 5 8 5 2 1 1 0 6 5 4 5 7 2 4 9 12 13 13 11 8 8 8 9 10 11 12 12 10 9 9
18 17 15 15 17 15 13 13 12 8 9 6 6 8 6 5 2 2 3 7 8 12 11 6 6 4 2 2 1 5 4 5 2 4 7 6 5 3 5 8 8 6 5 5 6 7 9 10 10 11 15 15 14 12
11 9 8 8 9 10 8 6 6 3 6 6 4 1 3 5 4 5 5 10 11 13 13 5 4 4 2 2 4 5 4 1 5 8 6 3 3 4 3 3 5 7 9 12 15 15 15 15 14 13 10 11 10 10
7 7 4 5 4 5 7 6 5 5 10 7 6 6 5 7 10 10 10 12 11 8 6 2 5 4 4 6 8 8 3 1 4 5 5 4 1 2 3 6 11 13 15 16 14 13 13 12 10 9 9 11 10 8
7 6 7 4 4 6 7 10 12 13 19 19 14 10 9 12 14 12 11 9 8 5 5 4 4 5 6 8 9 3 3 2 2 1 1 1 3 5 7 10 13 13 13 12 11 10 9 8 7 8 8 6 4 5
9 10 7 9 9 14 14 16 19 15 23 23 21 20 16 13 12 13 12 11 9 7 3 3 8 10 11 11 8 4 2 3 4 3 5 8 10 11 12 13 12 11 9 7 5 6 7 6 5 4 5 6 9 11
10 8 8 11 15 19 16 13 13 13 17 17 19 23 24 16 12 8 7 5 5 5 12 12 11 10 9 7 5 3 3 4 3 5 8 12 14 13 13 12 10 8 7 7 6 4 3 2 4 7 9 12 14 16
12 14 15 12 15 20 15 15 16 18 18 17 17 19 21 22 22 21 16 18 24 22 17 14 12 10 8 7 5 5 7 10 10 10 11 10 10 10 9 9 9 6 4 2 1 3 5 8 10 12 14 16 18 19
20 17 16 17 11 10 14 13 11 13 8 12 11 14 15 16 16 9 12 20 20 18 15 13 12 11 8 8 9 9 10 9 7 7 8 7 6 6 5 3 1 1 4 6 9 10 11 12 14 16 17 18 18 18
14 10 7 5 7 11 12 14 15 14 13 13 13 14 14 13 11 12 15 15 12 11 9 10 10 9 9 9 7 6 7 7 5 4 4 4 2 1 2 4 5 6 7 9 11 12 13 15 16 17 18 17 15 13
9 9 9 9 8 10 9 11 13 12 14 13 14 11 9 9 8 8 7 7 7 6 6 6 5 5 5 4 3 2 2 2 2 3 3 4 5 6 6 7 8 10 11 12 14 15 16 16 16 15 13 11 11 12
6 5 5 8 11 8 8 10 9 11 10 10 9 8 9 7 7 5 5 3 4 4 4 3 3 3 3 3 2 3 3 4 5 6 6 6 6 7 8 9 11 12 13 14 14 15 15 13 10 9 9 10 11 13
8 8 10 10 12 12 14 13 11 9 8 7 9 9 7 5 5 5 5 2 5 6 6 5 5 4 4 5 5 5 5 5 5 6 7 8 9 9 10 11 12 13 14 14 14 12 10 8 8 8 9 10 12 13
14 17 16 16 14 13 11 10 9 9 8 9 8 7 4 6 6 7 6 4 5 6 6 6 6 6 6 6 6 6 6 7 7 8 8 9 10 11 11 12 13 13 12 11 9 7 7 7 8 9 10 12 13 14
20 18 14 12 10 10 13 14 12 12 10 9 10 8 8 8 8 7 5 3 3 4 5 6 6 6 6 8 8 8 8 9 9 9 8 9 10 11 12 13 12 11 9 7 6 6 7 8 9 10 12 13 14 14
16 14 12 10 10 15 13 12 11 10 9 10 10 9 9 8 7 6 4 2 1 3 4 5 6 7 6 7 7 8 10 11 11 10 10 10 11 12 11 11 10 8 6 6 6 7 8 9 11 12 13 14 15 16
15 12 11 12 14 14 12 10 9 8 9 10 10 9 9 8 7 5 4 4 4 4 5 5 5 5 5 6 7 10 10 9 10 10 11 11 11 11 9 8 7 6 6 6 7 8 9 10 11 12 13 14 16 17
15 13 10 13 14 12 9 8 8 9 10 11 10 10 11 9 8 7 6 5 4 4 3 3 4 5 7 9 9 8 9 10 10 10 10 10 10 8 7 6 6 6 6 7 9 10 11 12 13 14 15 16 17 18
15 14 11 11 11 9 8 8 9 11 11 9 10 12 12 11 8 8 7 6 5 5 4 5 6 8 8 8 9 10 10 9 9 9 9 9 8 7 6 6 6 7 8 9 10 11 12 13 14 15 16 17 18 19

GFSWCAN_700_spd_072.txt.gz
Wind_Speed
23 25 26 28 23 25 25 28 31 35 36 39 40 39 42 44 48 54 52 47 46 27 39 44 40 39 31 35 37 29 30 35 33 30 31 26 22 24 21 17 18 20 16 24 19 15 8 13 10 16 16 11 16 19
24 23 23 21 20 21 24 27 28 27 36 40 43 38 41 42 44 49 49 44 38 39 34 31 29 21 20 19 22 25 36 23 38 25 27 25 21 18 31 27 21 20 32 30 22 21 19 16 29 9 20 15 16 14
20 21 19 21 20 21 22 26 24 26 32 42 45 41 40 40 41 43 46 41 37 45 31 44 33 25 22 22 25 27 35 37 21 34 24 27 17 28 20 28 26 21 20 24 23 27 23 25 28 25 24 19 14 14
20 19 18 20 18 17 17 17 13 11 34 39 42 41 39 37 40 41 41 37 35 49 22 39 45 33 27 25 27 27 31 35 26 22 26 28 28 19 34 32 29 32 21 23 26 25 24 27 19 25 27 35 26 21
19 19 21 21 21 16 16 16 20 28 34 36 38 38 38 36 41 38 30 39 43 27 24 39 39 40 42 38 30 30 27 31 31 27 30 28 32 31 20 26 29 19 28 29 29 22 23 18 21 11 16 30 36 23
17 18 18 23 24 22 22 24 27 30 29 34 37 35 37 35 33 33 33 41 48 9 27 31 29 27 31 29 29 29 25 27 32 27 31 34 28 30 33 26 25 30 25 17 17 22 17 13 9 7 8 6 8 13
17 15 20 22 24 28 30 31 33 35 38 39 39 38 35 37 36 38 33 34 31 23 20 19 18 20 35 16 20 17 15 21 27 22 24 25 27 30 36 29 15 20 24 28 29 20 20 16 14 13 14 13 19 23
21 21 22 25 27 28 33 38 38 38 38 41 39 37 37 34 24 24 24 35 23 25 19 9 15 21 24 15 12 14 16 20 26 29 30 30 19 24 27 28 31 22 24 23 27 28 26 19 17 16 18 22 24 24
25 24 20 26 25 28 29 33 34 35 41 36 39 38 33 24 26 33 39 30 23 13 9 12 18 19 20 18 16 12 13 19 19 23 28 27 23 11 23 31 19 36 29 25 26 24 21 19 20 21 21 22 24 25
14 16 23 27 31 27 26 26 29 35 37 35 35 35 33 27 34 29 23 22 25 21 21 18 12 17 14 15 13 10 9 10 6 15 18 28 20 20 19 23 19 20 22 27 31 26 18 20 19 19 18 20 21 20
18 20 26 26 29 29 25 24 25 28 26 31 38 41 34 33 33 16 10 8 8 8 10 10 9 7 7 6 9 9 6 7 7 10 16 14 18 15 20 26 11 15 21 21 21 23 23 21 20 21 22 21 20 18
20 22 20 25 22 21 21 23 28 26 26 30 33 32 26 16 9 8 8 8 7 6 10 10 8 8 8 8 5 0 8 9 5 15 9 8 12 21 25 27 27 23 16 16 18 20 21 23 25 26 28 30 30 30
20 21 22 20 19 17 15 15 21 19 17 27 25 15 7 6 6 6 6 7 8 10 10 10 8 10 9 8 3 4 4 4 5 10 6 2 9 17 20 23 19 22 23 24 28 31 32 32 33 34 34 35 33 32
19 18 15 17 16 18 17 20 24 25 20 15 9 8 5 6 7 9 14 14 14 11 8 8 8 6 6 7 2 2 4 3 3 4 2 5 6 8 9 15 16 20 23 24 27 26 20 19 20 21 21 23 22 22
17 14 12 14 16 20 23 22 13 9 10 6 5 6 10 16 15 15 14 14 14 12 10 9 8 7 6 3 3 3 2 3 4 2 4 7 7 6 5 8 10 13 16 15 15 14 12 12 14 16 17 14 12 13
17 15 14 15 18 21 17 12 11 7 11 7 7 14 16 15 14 11 11 13 14 14 12 7 6 4 4 2 2 3 3 3 3 2 7 8 7 5 3 2 2 4 5 7 7 6 7 7 8 10 12 12 12 12
10 10 12 12 11 11 9 4 1 3 4 5 6 9 11 10 9 9 12 12 13 12 11 2 4 3 3 3 4 4 6 6 1 4 5 6 6 5 3 2 5 7 9 13 13 14 15 16 16 15 13 15 13 13
10 10 9 7 5 4 3 2 0 7 12 11 8 10 10 11 11 11 12 13 13 13 11 5 6 5 4 4 6 9 6 3 2 2 1 2 4 5 7 8 13 14 15 14 14 14 13 13 11 11 12 14 11 9
8 8 7 9 9 8 4 9 9 14 20 15 13 13 13 16 15 16 16 14 8 6 6 4 2 4 8 13 11 8 5 1 1 1 2 4 6 9 11 14 15 15 14 14 12 11 10 10 10 11 9 7 4 3
11 11 9 12 13 11 15 17 21 17 24 20 18 15 14 14 13 12 10 8 6 5 3 3 11 13 12 11 9 5 5 3 3 2 1 4 9 10 12 12 12 11 9 8 7 8 8 7 6 5 4 5 7 9
12 16 18 17 19 23 17 14 16 15 20 19 24 24 23 15 9 6 4 3 6 4 17 18 16 14 11 9 8 7 7 7 6 5 5 8 11 11 10 10 8 7 6 7 6 4 3 3 5 7 9 10 12 15
19 18 16 17 21 23 19 21 20 24 23 20 22 22 23 23 21 18 16 12 23 24 21 17 13 11 8 6 6 6 7 9 10 10 10 10 9 9 8 8 8 6 4 2 1 4 6 7 9 11 13 15 16 18
19 18 16 17 12 10 15 15 12 15 10 15 16 20 20 20 18 11 17 20 20 17 14 11 10 8 6 5 5 6 7 9 8 8 8 8 6 6 5 3 2 1 3 5 6 7 9 11 12 14 15 16 17 16
16 10 8 5 7 12 16 18 19 18 16 17 17 17 17 16 16 18 19 18 16 15 12 11 11 9 8 8 7 6 6 7 5 3 3 4 3 3 3 4 6 5 5 7 9 11 12 14 14 15 15 14 12 10
9 8 11 12 12 14 17 18 18 19 20 18 17 13 10 11 12 12 11 11 10 9 8 7 7 6 6 5 4 3 3 3 3 3 3 5 6 7 7 6 6 8 9 10 11 12 13 14 14 13 11 9 8 9
5 5 7 11 16 12 13 14 14 16 14 14 10 10 11 10 8 6 5 4 3 3 3 1 0 1 1 2 3 3 4 4 5 5 5 5 6 7 8 9 9 9 11 12 13 12 12 13 11 8 8 8 9 10
10 12 15 16 17 16 18 16 14 12 12 9 10 8 6 4 3 4 3 1 3 5 5 4 4 5 5 5 6 6 7 7 6 6 7 8 8 9 10 11 11 12 12 12 13 12 9 8 7 7 8 9 10 11
21 23 21 20 18 15 15 14 12 10 10 11 9 6 4 3 3 4 4 3 3 4 5 5 6 6 6 6 7 7 7 6 7 8 10 10 10 10 10 10 12 12 12 11 9 8 7 6 7 8 9 10 11 12
24 22 18 16 15 15 17 17 15 15 13 12 11 10 7 6 5 5 4 2 0 2 3 3 4 5 5 6 6 6 6 6 7 9 10 10 10 11 11 11 11 10 9 8 6 6 6 7 7 8 10 10 11 12
19 18 16 14 14 17 16 16 14 13 12 11 11 10 9 8 6 5 3 2 1 2 3 4 5 7 7 6 5 6 7 8 8 7 8 9 9 10 11 10 9 8 7 6 5 6 7 8 9 10 11 12 13 14
18 16 15 16 19 19 16 14 12 12 11 10 10 10 10 9 7 6 4 3 2 2 3 4 4 3 3 5 7 9 9 8 8 9 9 9 9 9 8 7 7 6 5 6 6 7 8 9 10 11 11 13 14 16
19 16 15 16 17 16 13 11 11 10 10 10 11 11 11 9 7 5 3 2 1 2 2 3 3 3 5 7 8 8 8 9 9 9 9 9 9 8 7 6 6 6 6 6 7 8 9 10 11 12 13 14 16 17
21 18 15 16 15 14 11 11 10 8 9 10 11 11 9 8 6 6 4 2 2 2 2 2 4 6 6 7 8 8 9 9 9 8 8 8 7 7 6 6 6 6 7 8 9 10 11 11 12 13 14 16 17 18

GFSWCAN_700_spd_075.txt.gz
Wind_Speed
24 25 28 27 28 27 28 30 30 30 32 34 37 38 41 42 40 50 54 54 49 44 43 31 43 46 41 36 34 28 24 27 34 33 23 16 17 23 19 8 5 11 9 12 11 6 9 7 11 14 20 19 15 22
20 22 23 24 25 27 31 29 29 31 33 34 36 37 39 43 42 47 54 55 51 43 18 46 29 26 36 35 25 30 26 23 35 27 29 13 21 14 25 18 22 13 14 10 11 12 13 10 12 18 16 17 12 14
18 19 20 21 23 25 24 27 30 33 35 36 38 41 39 42 43 46 51 52 45 42 44 23 34 32 24 28 27 26 26 33 18 33 27 23 16 21 24 14 20 30 27 21 18 21 21 22 13 20 19 18 17 17
17 15 21 23 23 20 20 22 21 28 32 31 32 40 41 41 45 46 48 47 43 33 33 24 27 28 30 30 30 29 24 21 26 17 30 26 21 20 21 20 29 24 22 26 21 21 24 23 21 19 21 22 24 29
13 17 18 24 21 16 14 13 12 5 30 33 37 39 38 41 41 44 38 33 35 29 32 17 30 34 27 28 28 23 18 17 24 31 27 20 21 20 20 21 26 27 26 29 32 29 31 24 20 18 16 13 17 24
11 13 19 23 17 16 16 17 21 26 32 37 41 38 39 41 42 36 30 34 40 36 18 31 29 32 32 28 24 20 17 18 21 28 30 25 25 19 13 25 31 32 19 28 27 18 25 25 20 16 16 18 17 9
18 18 21 23 23 23 22 22 29 32 36 38 39 38 37 37 35 36 32 36 40 35 37 17 35 33 30 27 24 23 21 19 21 24 28 27 24 23 26 30 24 22 30 16 18 20 20 17 19 18 17 17 12 10
13 14 21 24 25 25 27 30 29 32 35 33 36 35 32 31 29 28 21 33 38 17 27 11 17 28 30 28 25 24 27 26 28 28 27 28 19 18 17 25 29 29 27 22 11 15 21 24 23 18 19 19 18 15
14 17 16 19 20 23 25 33 37 38 37 38 39 39 34 35 29 24 24 17 18 11 5 16 22 19 27 24 20 12 9 9 9 14 16 17 21 15 21 20 21 24 30 32 25 19 18 19 22 24 21 19 19 17
14 17 21 21 23 22 27 32 33 35 37 39 31 30 29 31 27 32 29 26 21 15 12 20 19 19 28 25 17 12 10 11 7 16 15 23 24 26 27 26 26 19 20 27 39 24 18 20 19 19 19 18 19 18
14 17 21 22 23 21 24 22 23 28 27 23 25 39 42 45 39 23 13 9 9 13 21 21 16 22 18 21 20 14 8 8 6 9 14 10 19 26 25 21 21 14 13 25 15 21 21 22 21 21 21 21 20 21
14 15 15 17 22 26 25 22 23 21 21 24 33 33 25 13 9 8 8 9 8 7 15 18 18 16 17 17 11 11 7 9 5 8 11 6 12 22 26 24 22 22 21 18 14 21 22 21 19 20 21 22 23 25
16 16 14 14 16 22 25 30 29 29 26 23 22 16 7 6 7 6 7 9 8 15 18 18 16 15 15 8 6 6 4 4 6 14 6 5 7 12 17 21 18 17 17 17 18 15 18 16 23 28 30 31 32 32
14 14 13 12 14 17 21 26 22 21 14 9 6 6 5 5 7 11 21 21 18 16 16 15 14 9 9 8 4 4 4 4 3 3 2 3 4 7 10 11 12 14 15 17 17 18 17 22 23 24 22 22 21 23
15 13 14 11 14 19 21 16 10 11 2 3 5 6 9 18 21 21 21 22 18 14 13 14 11 10 9 4 4 4 4 2 3 4 3 5 5 4 4 6 8 10 13 14 12 10 11 12 13 13 14 14 13 13
9 11 11 13 16 12 7 6 6 5 7 4 7 19 19 18 18 18 18 17 17 12 14 8 6 5 4 3 3 2 2 3 5 3 2 4 5 4 3 2 5 6 4 3 4 4 4 5 6 6 11 12 11 10
10 9 11 11 13 10 8 2 3 1 4 8 13 16 15 14 12 13 14 13 13 13 9 4 3 3 4 3 4 3 5 7 3 3 4 5 5 5 5 3 3 4 5 7 10 12 12 14 14 14 15 17 14 13
5 8 8 7 6 6 7 4 1 4 12 16 13 14 11 9 9 11 10 9 9 8 7 1 2 3 2 3 6 10 6 4 4 4 4 5 4 6 8 9 11 13 14 16 15 16 15 15 13 13 14 15 12 11
8 5 7 6 4 3 2 9 10 13 16 16 14 12 9 8 9 9 11 11 8 6 4 3 2 4 10 14 12 9 6 5 5 4 4 5 7 10 12 14 14 13 12 11 11 11 11 12 12 12 10 9 5 3
5 3 2 7 7 3 14 16 23 19 22 19 17 16 13 13 13 11 9 7 5 3 1 6 16 16 15 13 11 8 6 5 5 5 5 7 10 12 11 10 9 8 7 7 8 9 9 7 6 4 3 3 4 5
11 12 12 9 10 21 18 15 19 21 25 25 22 20 17 14 10 7 4 4 2 7 18 20 18 16 13 10 8 7 6 5 6 7 7 7 10 11 10 9 7 6 6 7 6 4 3 1 2 4 5 6 8 10
19 19 15 14 24 30 21 23 24 26 25 23 25 26 26 24 21 17 16 14 22 22 19 18 14 12 10 9 8 8 9 9 10 10 9 10 9 9 8 7 7 6 4 3 2 3 4 5 6 8 10 11 12 13
23 22 22 22 16 13 19 19 16 19 11 17 18 20 19 18 16 14 18 23 23 21 17 15 13 12 11 10 9 8 8 11 9 9 9 9 8 7 7 6 5 4 5 6 6 6 7 9 11 12 13 14 14 14
15 12 10 6 8 14 19 20 22 20 19 19 19 20 20 19 17 18 18 17 15 14 12 9 9 9 7 5 5 5 5 8 6 5 4 4 4 4 4 5 7 7 6 6 8 10 11 12 12 13 14 14 13 12
8 8 11 16 15 17 16 18 19 20 19 16 16 14 12 14 16 14 11 10 9 8 7 6 6 5 5 4 3 2 1 1 2 2 3 4 6 7 8 7 7 8 9 11 11 12 13 13 13 13 12 10 9 9
4 5 7 13 19 17 18 18 16 15 14 13 10 12 12 10 7 5 5 3 2 2 3 4 3 2 1 1 1 2 3 4 5 6 7 7 6 6 7 8 9 10 11 12 13 13 12 12 10 8 7 7 8 9
9 11 17 17 18 18 21 20 17 15 13 9 11 8 6 4 3 3 3 1 3 4 5 4 3 3 3 3 4 5 6 6 7 6 6 6 8 9 10 9 10 11 11 11 12 12 11 9 8 7 7 7 8 10
24 25 24 21 20 18 19 18 15 11 11 10 8 5 3 2 2 4 4 4 4 4 5 4 4 4 4 4 5 5 6 6 7 7 8 9 9 10 11 11 11 12 12 12 10 9 8 7 7 8 9 9 10 10
27 24 21 19 17 17 17 17 17 17 14 12 11 10 7 5 4 4 4 4 4 4 5 5 5 5 5 6 6 7 7 7 8 9 10 10 9 9 10 11 11 12 11 10 8 7 6 7 8 8 9 10 11 12
23 21 20 18 17 19 18 18 16 15 13 12 11 10 8 6 5 4 4 3 2 3 4 5 5 6 7 6 6 6 6 8 9 9 9 9 10 9 10 11 10 9 8 6 6 6 7 8 9 9 10 11 11 12
21 19 18 18 21 20 19 17 14 14 12 11 12 11 10 9 7 5 4 4 5 5 6 6 6 6 5 4 5 7 8 8 7 8 8 9 9 10 10 9 7 7 7 6 6 7 8 9 10 11 12 13 14 15
21 18 17 19 20 19 16 15 15 12 11 12 12 12 11 10 8 6 5 5 6 5 4 4 4 4 5 7 7 7 7 9 9 9 8 8 9 8 7 7 6 6 6 7 8 9 9 10 11 12 12 13 15 16
21 19 17 19 19 17 14 13 13 10 9 10 11 12 11 10 8 8 6 5 5 4 3 3 4 5 6 7 8 9 8 8 8 7 7 8 8 7 7 6 6 6 7 8 10 10 11 11 12 13 14 16 17 18

GFSWCAN_700_spd_078.txt.gz
Wind_Speed
26 25 26 26 29 29 29 32 32 32 31 33 36 36 37 37 39 40 44 48 45 33 26 30 38 44 32 30 30 25 23 23 23 28 21 12 10 9 18 9 2 5 11 16 13 8 8 9 10 10 16 18 17 13
25 25 27 26 25 27 28 31 33 35 34 33 33 36 37 36 38 40 39 42 46 40 23 24 30 33 32 36 28 29 28 18 16 18 28 15 15 7 13 11 19 9 8 1 4 8 11 12 13 10 12 16 19 16
23 25 24 25 28 29 28 26 29 30 32 32 33 34 37 44 40 41 42 37 40 40 41 28 20 25 20 16 20 26 23 26 27 20 22 19 16 8 17 12 15 21 20 20 19 14 13 15 15 15 13 18 21 20
21 18 23 26 27 24 21 21 22 26 31 37 37 35 35 36 39 45 48 40 41 40 39 32 15 18 26 27 22 28 25 20 23 15 20 25 21 19 21 17 17 14 19 23 26 22 25 19 13 11 16 22 22 23
17 20 22 20 20 19 18 19 20 23 29 35 37 37 34 37 38 42 39 36 34 39 10 35 38 27 20 31 31 33 30 24 17 22 21 25 21 16 15 17 15 13 17 21 25 25 24 21 19 17 19 21 20 19
21 21 19 24 24 16 16 15 14 8 26 31 34 35 35 36 41 44 38 28 27 30 28 10 29 37 26 33 34 35 28 25 23 23 27 25 17 17 12 18 18 17 21 26 27 24 30 20 12 18 18 21 19 21
16 17 22 25 22 17 20 21 24 27 29 31 32 35 35 43 40 37 31 31 30 33 34 12 16 34 34 30 32 33 32 27 23 25 25 26 25 24 23 24 23 24 22 19 24 24 21 20 20 15 16 18 18 17
11 17 20 22 22 19 24 29 32 33 33 34 36 37 38 35 31 31 26 24 29 33 36 3 12 27 38 25 32 32 24 19 17 16 18 24 20 21 21 27 24 22 22 26 28 26 20 16 17 17 17 19 20 19
13 18 19 21 22 22 22 26 28 30 32 34 36 37 33 32 31 22 16 13 25 28 20 17 11 15 42 26 20 14 13 16 18 19 22 17 23 18 22 19 21 22 21 17 18 27 25 16 17 21 20 22 22 21
14 15 18 18 24 21 22 26 26 22 31 30 28 30 30 28 28 16 14 23 23 20 19 12 22 19 24 24 19 15 11 11 7 12 10 16 19 25 29 27 25 23 23 22 17 20 28 24 20 22 21 19 19 20
14 17 17 20 18 18 23 26 28 26 30 35 18 26 38 33 25 9 9 7 7 4 9 20 19 21 26 26 22 15 8 7 5 8 13 8 13 22 28 27 27 25 20 17 17 21 19 27 29 22 21 20 20 21
6 13 15 16 15 14 16 18 13 24 35 33 31 35 24 16 9 6 7 7 5 7 18 20 19 25 26 20 12 10 7 8 5 7 10 6 11 14 20 26 28 25 23 23 20 16 16 21 26 25 25 22 23 23
3 6 11 12 15 16 19 21 17 23 23 28 18 14 7 4 5 5 6 5 7 20 23 24 21 18 21 12 7 7 6 5 5 7 5 2 8 12 14 17 19 22 24 21 20 20 20 19 11 15 22 24 25 27
8 6 8 11 16 19 20 17 16 11 8 4 4 5 3 5 9 13 17 19 21 23 21 19 19 11 11 8 6 5 6 5 4 4 3 4 7 9 11 11 14 16 20 18 18 19 21 21 19 21 23 24 24 26
7 6 6 8 15 16 13 11 5 6 6 3 5 6 10 22 23 21 18 18 18 17 16 14 12 8 9 4 4 4 5 3 2 4 1 4 7 9 9 8 9 10 10 12 13 13 14 15 15 16 15 14 14 14
3 5 7 13 17 14 11 7 4 0 0 4 5 18 23 21 20 19 17 17 14 14 14 10 6 5 4 4 4 2 2 2 4 3 2 6 8 9 6 3 3 3 3 4 4 4 4 5 5 6 8 9 9 10
6 4 8 9 8 9 8 7 5 3 4 7 13 16 17 16 16 16 16 14 13 14 7 5 3 3 5 3 4 3 5 8 5 3 3 3 4 5 5 5 6 6 6 6 7 8 8 9 10 11 11 14 13 13
2 4 5 5 6 6 3 4 2 4 16 19 16 16 13 11 10 11 12 11 11 11 4 2 3 2 2 4 8 11 8 6 5 4 3 4 5 7 10 13 14 14 13 13 13 14 15 15 13 14 15 16 13 12
4 5 5 5 4 3 3 1 5 10 15 15 14 13 11 11 11 10 10 9 7 4 2 3 3 5 11 14 12 10 9 8 7 5 5 7 9 13 15 15 14 13 12 11 12 12 12 12 12 11 9 8 5 3
4 4 7 10 6 3 4 10 16 14 17 17 14 13 10 11 12 13 11 8 7 4 2 5 14 16 15 12 10 9 8 8 7 7 6 7 11 13 11 10 9 9 9 9 9 9 8 6 5 3 1 1 3 5
7 7 9 8 7 9 18 13 19 21 22 21 16 15 15 13 11 8 6 5 3 9 21 20 16 13 10 9 8 7 6 5 6 7 8 8 10 11 10 8 7 7 8 7 6 5 3 2 3 3 5 7 7 8
16 14 13 13 21 25 19 20 19 21 24 23 21 19 17 15 14 15 15 13 20 21 19 17 13 10 8 7 6 6 6 6 7 9 9 9 9 9 8 7 7 7 6 5 4 5 5 5 6 7 9 10 11 11
24 25 26 26 21 18 25 25 22 25 15 21 21 21 19 20 18 15 14 18 19 17 14 12 10 8 9 8 7 6 6 7 7 7 7 7 7 6 5 5 5 5 5 6 7 7 6 8 9 11 12 12 12 12
13 10 9 6 8 14 20 19 22 20 20 20 20 21 19 19 16 16 17 15 13 13 11 9 8 8 7 7 7 5 5 5 6 5 4 3 3 2 3 5 6 8 8 8 8 8 10 11 12 12 12 12 11 10
7 7 10 18 15 20 19 19 20 22 21 19 16 13 11 11 12 12 10 9 7 7 6 5 4 4 4 4 3 3 2 1 1 1 2 3 4 6 7 8 7 7 7 8 9 10 11 12 12 12 12 11 9 8
4 5 7 13 18 16 17 19 19 19 15 11 10 11 11 7 5 4 4 2 1 0 1 2 3 3 3 3 3 3 4 4 5 5 6 7 6 6 6 7 8 9 10 11 11 11 12 12 12 12 11 10 9 9
7 12 19 19 21 21 19 19 17 15 13 10 11 7 5 4 4 3 4 2 3 3 4 4 4 3 3 4 4 5 6 6 7 7 6 7 7 8 9 9 10 10 10 11 12 11 11 10 9 8 8 8 9 9
22 25 23 22 21 20 20 20 17 12 11 9 7 5 4 3 3 4 4 5 5 6 6 6 6 6 6 6 6 7 7 7 7 7 7 8 9 9 9 9 10 11 11 12 12 12 10 9 7 7 8 8 9 10
29 27 24 22 21 18 16 18 20 18 15 13 12 10 7 6 5 5 6 6 6 6 6 6 6 6 6 6 7 8 8 8 8 8 8 9 9 9 10 10 10 11 11 11 11 9 8 8 8 8 9 10 10 11
27 25 23 20 20 21 20 20 19 17 15 14 13 13 11 9 8 8 7 7 6 6 6 6 6 6 6 6 6 6 7 8 9 9 10 9 9 10 10 10 10 10 9 9 8 7 7 8 8 9 10 10 11 11
25 23 20 19 23 23 22 20 18 17 16 15 15 14 13 12 10 9 8 9 8 7 7 6 6 5 4 4 5 7 9 9 8 9 9 9 9 9 10 9 9 8 7 6 7 7 8 9 9 10 11 11 12 13
22 20 19 20 23 21 20 18 17 15 14 14 14 14 14 12 11 11 10 8 7 6 7 7 7 6 6 7 8 9 9 10 10 9 9 9 9 9 9 8 7 7 7 7 7 8 9 10 11 12 12 13 14 15
22 21 19 21 20 20 17 15 14 11 10 11 11 12 13 13 11 10 8 7 6 6 6 6 7 7 7 9 10 11 10 10 10 10 10 9 9 8 8 7 7 7 8 9 10 11 11 11 12 12 13 15 16 18

GFSWCAN_700_spd_081.txt.gz
Wind_Speed
25 27 27 27 25 26 28 27 27 28 30 28 29 32 31 33 34 38 41 45 32 36 24 33 40 43 38 30 27 24 21 23 23 21 17 10 11 10 11 18 2 4 15 17 22 11 6 5 5 5 8 7 10 8
26 26 26 26 25 26 27 30 30 30 30 31 30 32 37 35 35 39 39 41 43 36 14 24 30 31 28 28 27 24 21 14 15 15 17 12 14 10 10 6 13 9 3 2 8 11 6 6 12 10 11 10 8 10
22 20 24 26 27 29 32 32 30 30 30 30 32 33 33 34 36 37 40 36 38 37 38 18 32 24 22 26 27 27 27 25 22 15 12 12 9 14 15 17 10 7 16 16 15 8 8 4 6 9 11 9 9 11
17 21 23 22 23 24 25 25 26 26 26 33 32 34 33 37 39 38 38 36 34 34 28 33 13 18 19 26 27 26 21 17 20 18 18 15 14 15 16 14 13 13 13 16 23 26 26 21 18 18 14 16 12 13
20 21 23 23 22 20 20 20 21 24 28 30 30 30 34 36 38 40 38 35 31 28 10 31 33 23 20 27 28 23 23 23 13 17 20 15 15 15 14 15 14 12 13 16 19 21 21 19 24 21 20 17 16 15
18 20 25 23 19 21 18 17 16 17 26 31 33 33 32 33 33 45 41 34 29 29 17 6 23 28 24 16 28 28 25 26 24 17 12 19 15 17 12 18 20 22 23 21 19 20 22 20 18 20 19 21 19 16
17 23 22 17 19 22 24 21 19 18 29 32 35 33 32 33 35 41 41 36 27 25 26 12 9 27 37 33 20 33 34 34 29 26 24 22 19 24 20 15 15 15 18 22 24 23 20 15 14 18 24 19 15 12
15 16 19 16 22 21 25 26 22 27 29 32 36 35 28 32 35 39 28 17 22 23 25 8 10 14 36 34 27 29 35 34 31 30 26 24 20 21 19 26 26 26 24 25 24 22 23 22 16 17 21 20 15 14
12 14 18 16 17 19 26 30 32 27 30 36 35 31 31 33 33 25 15 13 19 23 12 13 3 13 30 31 22 36 31 31 22 33 17 11 16 16 18 20 24 20 19 19 20 19 18 20 20 18 17 18 16 15
12 13 19 20 21 17 17 28 29 32 39 40 40 38 34 31 22 17 13 19 23 21 21 17 15 10 27 20 29 19 25 10 14 15 12 16 19 24 26 22 19 18 19 20 21 20 21 18 20 25 22 18 17 18
11 13 16 17 18 23 23 22 26 28 31 32 29 32 29 25 23 16 14 10 9 7 13 20 16 24 33 26 20 10 12 11 8 8 12 8 12 19 20 24 26 28 30 30 28 22 18 18 21 22 28 23 20 21
10 9 11 10 13 10 14 18 19 21 19 28 28 30 28 14 4 7 8 6 6 5 5 19 19 24 22 20 9 8 6 7 4 9 8 6 11 15 18 23 27 27 29 28 25 22 19 16 14 15 21 27 25 22
6 6 9 9 12 10 22 29 26 19 32 28 13 9 6 5 4 5 6 7 7 10 21 22 25 26 18 9 9 7 5 5 8 9 6 6 8 12 15 18 20 21 22 22 23 24 25 26 25 18 18 20 26 25
8 7 10 13 12 19 19 23 18 16 10 6 5 5 4 4 6 10 16 19 21 20 21 19 19 13 14 8 5 4 5 7 6 5 5 5 7 10 12 16 19 20 20 20 20 20 19 18 19 17 18 14 10 13
8 6 5 8 12 12 10 11 9 11 8 3 4 5 12 21 19 16 20 22 22 21 18 15 10 11 10 5 5 4 6 4 4 5 3 3 7 9 10 10 8 10 12 13 14 13 14 13 11 10 12 12 8 7
4 6 7 8 10 9 7 3 5 6 4 6 7 23 24 21 19 17 18 17 16 15 12 10 5 5 4 3 4 3 4 3 5 5 1 3 7 9 9 7 5 2 1 1 1 2 2 2 1 2 4 8 10 10
4 4 10 11 13 11 8 4 3 3 3 8 17 20 21 19 19 18 15 15 16 13 8 6 3 3 4 3 4 3 5 9 7 3 1 3 4 4 2 4 6 8 8 9 10 11 10 11 11 10 9 12 12 12
2 4 6 6 7 6 5 5 6 6 20 24 19 19 16 15 14 13 12 11 12 7 6 4 4 4 3 4 7 11 10 8 6 4 2 2 4 7 10 12 14 15 15 15 14 14 15 16 15 15 16 16 14 12
2 3 5 7 6 2 2 5 7 14 20 18 17 15 13 13 12 12 10 8 7 5 3 4 4 5 10 14 12 10 9 8 6 4 4 6 11 13 15 15 14 13 12 12 13 13 14 13 12 12 11 10 7 4
5 6 7 8 6 3 1 6 13 16 18 16 14 13 11 11 12 11 10 9 7 5 3 6 15 15 13 11 9 8 7 6 6 6 7 9 11 12 11 11 10 9 9 10 9 9 8 6 5 4 2 1 1 2
4 3 6 8 7 5 9 12 14 20 18 16 15 13 14 14 10 9 7 6 3 9 20 19 15 12 10 8 6 5 5 4 5 6 8 8 9 9 8 7 7 7 7 7 6 5 4 3 3 3 2 5 7 8
12 12 10 8 14 17 15 18 20 20 19 19 17 17 16 14 13 13 14 11 20 20 17 14 10 8 6 5 4 3 3 3 4 5 6 7 7 7 6 5 5 5 5 4 3 4 5 5 5 5 6 7 8 9
19 15 15 21 17 14 25 28 24 22 13 20 19 19 17 18 16 13 11 15 17 14 11 8 6 5 5 4 4 3 3 3 4 3 3 4 4 4 3 3 3 3 4 5 7 7 7 6 6 7 8 9 10 10
12 12 10 6 9 15 19 19 23 21 20 19 17 17 16 16 15 15 15 13 10 9 8 6 4 4 3 2 3 2 1 1 2 2 2 2 2 2 3 4 5 6 7 7 7 6 7 7 9 10 11 11 10 10
7 7 11 19 15 20 18 19 21 22 23 21 18 15 10 9 10 11 9 8 6 5 4 3 2 2 2 2 3 3 3 2 2 3 3 4 5 6 7 7 8 7 7 7 8 9 10 10 11 11 11 10 9 9
5 6 7 13 20 16 18 20 20 22 18 13 10 11 10 7 6 5 5 4 3 1 0 1 2 3 3 3 3 3 4 4 5 5 6 7 7 7 7 7 7 8 9 9 10 10 11 11 11 10 10 8 8 8
6 11 20 19 20 20 20 21 17 13 12 9 11 7 5 4 4 4 4 2 1 2 3 4 4 5 5 5 5 6 6 7 7 7 8 8 8 8 9 9 10 10 10 10 10 10 10 10 10 9 8 7 7 8
18 22 22 21 20 19 20 19 17 13 11 9 7 6 5 4 5 6 6 6 5 5 5 5 5 5 5 5 6 6 6 6 7 7 8 9 9 10 10 10 10 10 10 10 10 10 9 8 8 8 7 7 8 8
26 25 23 21 20 20 17 17 22 20 18 17 16 15 12 10 10 9 9 9 8 7 7 6 6 6 6 7 7 7 8 8 8 8 9 9 9 9 9 9 9 9 10 10 9 8 7 6 6 6 7 8 8 9
28 25 25 22 21 24 22 22 22 20 20 19 19 18 17 16 14 12 11 10 9 7 7 6 6 6 6 7 6 6 6 8 9 9 9 8 8 8 8 9 10 10 10 9 7 7 6 6 6 7 8 9 10 11
27 24 22 23 26 26 24 23 22 21 20 19 19 19 19 18 15 13 11 10 8 8 7 6 6 6 5 5 6 8 9 9 9 9 10 9 9 9 9 9 9 8 7 7 7 6 6 7 9 10 10 11 11 12
23 23 22 25 27 25 23 22 20 18 16 16 16 16 16 16 15 15 12 9 9 8 7 6 5 5 6 6 8 9 10 10 10 10 9 9 9 9 8 8 7 7 6 6 6 7 9 10 11 11 11 12 13 14
24 24 23 25 24 23 20 18 17 15 13 13 13 14 15 15 14 15 12 10 8 8 7 7 8 8 8 10 11 11 11 11 11 11 10 9 8 8 7 7 7 7 7 8 9 10 11 11 11 11 12 13 14 16

GFSWCAN_700_spd_084.txt.gz
Wind_Speed
22 21 21 20 20 22 22 22 23 25 26 26 25 26 28 30 32 36 39 37 36 45 45 39 38 38 37 35 30 23 18 25 25 24 16 9 10 14 12 11 4 14 17 19 20 9 9 6 3 5 5 12 3 2
18 19 20 19 21 22 23 25 25 25 25 26 28 29 30 31 32 34 36 37 33 30 28 40 40 36 35 34 29 31 27 20 19 19 17 11 11 11 13 8 7 10 11 13 13 12 6 7 6 3 8 8 9 9
18 19 20 20 22 23 24 24 25 27 30 30 27 30 32 32 35 34 32 32 35 34 25 21 32 31 30 31 25 22 24 23 18 16 13 14 9 11 14 16 9 6 9 7 4 0 4 5 15 14 12 9 9 13
21 19 20 22 26 27 25 24 24 24 27 29 28 31 33 33 35 36 35 32 35 38 35 26 18 26 19 29 28 24 23 26 26 19 16 12 10 9 11 14 11 9 9 6 9 14 19 8 22 22 20 13 13 16
20 18 24 22 20 21 19 20 20 22 24 27 29 31 34 35 36 35 28 28 27 27 9 32 23 17 24 29 31 30 29 23 19 22 21 17 15 12 12 13 13 13 14 11 8 12 14 16 20 22 22 24 18 19
13 20 22 16 20 23 24 21 19 20 24 28 31 29 33 33 37 38 35 25 24 25 9 12 35 22 26 27 26 27 29 27 20 18 19 19 13 15 7 10 17 17 17 17 19 18 14 19 20 18 17 16 17 19
14 17 18 19 24 26 20 18 14 9 26 30 34 29 33 37 39 43 38 28 22 27 13 8 6 35 30 20 23 25 26 28 25 25 23 14 15 19 18 15 18 20 21 22 17 18 19 21 23 19 16 16 17 16
13 15 17 18 24 25 22 20 23 30 34 34 33 33 36 34 39 39 29 25 26 26 24 9 7 14 34 33 29 26 28 27 27 27 23 21 18 18 16 25 26 22 22 24 26 27 23 17 16 21 22 17 13 15
11 17 17 15 19 25 22 25 26 33 38 38 35 34 27 30 43 38 26 21 22 21 13 16 15 12 27 31 29 24 25 25 27 25 32 23 23 17 16 18 23 25 26 27 27 25 20 21 19 17 21 22 16 12
12 14 14 21 25 25 16 29 35 36 34 32 35 41 36 32 30 30 19 22 25 23 19 14 22 4 25 36 29 28 21 19 15 27 20 30 15 23 23 19 18 21 22 25 25 26 25 22 23 22 19 22 22 16
9 11 10 12 18 22 24 24 28 30 27 37 37 33 32 26 24 20 13 13 12 7 17 23 26 12 23 34 33 15 14 14 13 16 14 13 23 25 25 25 25 26 27 27 26 27 27 27 25 22 21 20 23 24
6 9 9 11 12 17 18 20 21 24 28 31 35 34 28 17 11 6 10 9 8 9 9 17 24 20 30 23 17 17 8 8 5 15 13 6 15 17 19 22 23 24 26 27 27 29 30 25 23 20 16 15 16 21
7 8 13 13 25 20 12 12 12 22 24 26 26 18 11 5 5 7 7 7 8 10 12 17 17 19 27 20 7 7 6 5 9 12 7 8 12 15 16 17 19 21 23 24 24 23 21 21 23 24 25 24 20 18
11 10 15 19 22 25 22 18 23 20 14 7 6 7 4 4 4 8 14 16 16 18 21 23 20 12 14 9 6 4 8 11 9 6 6 9 9 9 11 13 15 17 19 20 19 18 18 18 18 20 19 19 18 15
10 10 11 13 15 15 12 10 8 6 3 3 3 4 8 17 18 21 23 21 19 17 15 15 12 13 10 5 5 5 7 4 5 5 8 7 5 6 10 12 13 13 14 15 14 13 13 15 16 15 16 16 15 14
10 11 11 12 12 8 4 4 8 8 7 6 5 20 20 20 22 20 18 19 19 16 13 9 7 5 4 4 4 4 6 4 7 9 4 2 4 6 7 8 6 5 5 4 3 3 4 6 6 7 9 10 10 10
7 11 12 11 8 8 5 3 4 3 4 10 17 19 19 18 17 15 15 15 13 10 6 4 3 2 4 2 3 3 4 9 9 6 4 3 3 3 2 2 3 4 5 6 7 9 10 12 12 12 11 14 14 14
7 7 11 11 10 9 7 4 1 4 18 24 20 19 18 16 15 13 13 12 9 6 5 3 4 4 3 4 4 9 10 8 5 3 1 1 2 4 6 8 9 11 12 12 12 12 13 14 14 15 15 16 14 13
7 9 11 11 8 6 5 7 11 14 21 19 17 15 14 13 11 10 9 9 6 4 3 4 2 3 6 12 13 10 8 6 4 3 4 5 8 10 10 11 11 11 11 11 12 12 13 12 11 11 10 9 6 4
7 9 11 13 10 8 5 9 17 14 17 16 15 14 12 11 11 10 9 8 7 5 3 4 14 15 13 11 9 7 6 5 4 5 6 7 8 9 8 8 7 7 8 8 8 7 6 5 4 4 3 3 4 4
7 9 11 12 11 8 6 14 12 19 18 16 15 14 14 12 11 9 7 6 5 5 19 18 15 12 10 8 6 4 3 2 3 3 6 7 8 8 7 6 6 6 6 6 5 4 3 3 4 5 5 5 3 3
11 12 13 13 11 10 11 15 18 19 17 16 15 16 14 13 11 10 11 11 19 19 16 14 11 8 6 5 4 2 1 1 2 3 5 6 7 7 6 5 5 5 5 4 4 5 6 7 7 6 5 4 4 6
16 14 13 16 13 10 21 25 23 20 13 19 18 17 16 17 16 12 11 15 17 14 11 9 7 6 5 4 3 3 2 1 2 2 3 4 5 5 4 5 5 5 6 6 7 8 8 8 7 6 6 7 8 9
14 12 8 5 7 15 22 17 22 21 20 19 17 16 14 14 14 14 15 13 11 9 8 6 5 4 3 2 1 1 0 0 1 1 2 3 3 4 5 6 6 7 8 9 9 8 7 7 8 9 10 10 10 10
8 8 10 17 18 18 17 19 22 22 20 21 18 15 11 9 11 11 10 8 7 5 4 3 2 2 2 2 2 3 3 3 3 4 4 5 6 7 7 8 8 8 8 7 8 8 9 10 10 10 11 10 10 10
5 6 7 13 21 17 18 19 21 24 20 13 10 12 12 9 6 5 5 4 3 1 1 1 2 3 4 4 5 5 5 6 6 7 7 8 8 8 8 8 8 8 9 10 10 10 11 11 11 11 11 10 10 9
7 11 19 20 21 22 22 24 21 15 12 10 13 9 5 4 4 3 3 2 2 2 3 3 4 4 5 5 6 6 6 7 7 7 7 8 8 8 9 9 10 10 10 10 10 11 11 11 11 10 9 9 9 9
19 23 21 21 21 22 24 20 17 13 12 10 8 6 4 4 5 5 5 4 3 3 3 3 3 3 4 4 5 6 6 7 7 8 9 9 10 10 10 10 10 11 11 11 11 11 11 10 10 9 8 8 9 9
27 26 25 24 24 22 19 17 20 21 19 17 18 18 16 14 12 10 8 7 5 4 3 3 3 3 3 4 5 6 6 6 7 8 9 9 10 10 10 10 10 10 10 10 10 9 8 7 7 7 8 8 9 10
30 28 26 23 22 23 23 23 23 23 22 21 20 21 20 19 17 14 11 9 8 6 5 5 4 4 4 4 4 5 6 7 8 8 8 8 8 8 9 9 9 9 9 8 7 6 6 6 7 7 8 9 10 10
29 26 24 23 27 29 27 26 24 22 20 19 19 18 18 17 16 15 12 10 8 7 6 6 5 5 4 4 5 6 7 7 8 8 8 8 8 8 8 8 8 7 7 6 6 6 6 6 8 9 10 10 10 11
25 24 23 26 29 28 25 24 22 19 17 16 15 15 14 14 14 14 13 11 9 8 7 5 5 5 5 6 7 8 8 8 8 8 8 8 8 7 7 7 6 5 5 5 6 6 7 9 10 10 10 11 11 12
26 26 25 28 28 26 23 22 19 16 13 12 11 11 12 12 12 13 13 11 9 7 6 5 6 6 7 8 9 9 8 8 9 9 9 8 7 7 6 6 5 5 6 6 7 8 9 10 10 11 11 12 13 14